ftp/pub/palmer/observations_modified/2019/April/original_files/AR190401_BASE.txt

Download

Sample DateTime	Unit Id	WS Avg 2min	WD Avg 2min	WGS 10min	WGD 10min	Air Temp	Rel Humidity	Dew Point	Pyranometer	Quantum	Air Pressure	Snow Level	Rainfall	PW Current	Visibility	CBase 1	CBase 2	CBase 3	Vert Vis
2019/04/01 00:00:01	BASE	6.04	339	9.93	12	-0.4	100	-0.4	0	0	980.1	NA	0.0000	-SN	9999	620	2460	0	0
2019/04/01 00:01:01	BASE	5.95	335	9.93	12	-0.4	100	-0.4	0	0	980.1	NA	0.0000	-SN	9999	460	0	0	0
2019/04/01 00:02:01	BASE	5.70	341	9.93	12	-0.3	100	-0.3	0	0	980.1	NA	0.0000	-SN	9999	660	0	0	0
2019/04/01 00:03:01	BASE	7.71	352	10.19	355	-0.3	100	-0.3	0	0	980.1	NA	0.0000		9999	560	2460	0	0
2019/04/01 00:04:01	BASE	8.69	353	10.19	355	-0.3	100	-0.3	0	0	980.1	NA	0.0000		9999	2300	0	0	0
2019/04/01 00:05:01	BASE	7.32	348	10.19	355	-0.3	100	-0.3	0	0	980.2	NA	0.0000		9999	2790	0	0	0
2019/04/01 00:06:01	BASE	6.66	350	10.19	355	-0.3	100	-0.3	0	0	980.2	NA	0.0000		9999	430	2490	0	0
2019/04/01 00:07:01	BASE	6.75	8	10.19	355	-0.3	100	-0.3	0	0	980.2	NA	0.0000		9999	1610	2300	0	0
2019/04/01 00:08:01	BASE	6.22	22	10.19	355	-0.3	100	-0.3	0	0	980.3	NA	0.0000		9999	1670	2360	0	0
2019/04/01 00:09:01	BASE	5.56	14	10.19	355	-0.3	100	-0.3	0	0	980.3	NA	0.0000		9999	2300	0	0	0
2019/04/01 00:10:01	BASE	5.60	356	10.19	355	-0.3	100	-0.3	0	0	980.3	NA	0.0000		9999	1640	0	0	0
2019/04/01 00:11:01	BASE	5.74	344	10.19	355	-0.3	100	-0.3	0	0	980.3	NA	0.0000		9999	1770	0	0	0
2019/04/01 00:12:01	BASE	5.57	349	10.19	355	-0.2	100	-0.2	0	0	980.3	NA	0.0000		9999	2400	0	0	0
2019/04/01 00:13:01	BASE	4.69	359	9.05	360	-0.2	100	-0.2	0	0	980.4	NA	0.0000		9999	1510	0	0	0
2019/04/01 00:14:01	BASE	3.79	354	7.97	12	-0.3	100	-0.3	0	0	980.4	NA	0.0000		9999	1180	0	0	0
2019/04/01 00:15:01	BASE	4.03	338	7.97	12	-0.3	100	-0.3	0	0	980.4	NA	0.0000		9999	1540	0	0	0
2019/04/01 00:16:01	BASE	5.04	334	7.92	27	-0.3	100	-0.3	0	0	980.4	NA	0.0000		9999	1610	0	0	0
2019/04/01 00:17:01	BASE	5.28	343	7.20	351	-0.3	100	-0.3	0	0	980.4	NA	0.0000		9999	1250	0	0	0
2019/04/01 00:18:01	BASE	6.72	359	11.73	9	-0.3	100	-0.3	0	0	980.4	NA	0.0000		9999	0	0	0	3280
2019/04/01 00:19:01	BASE	8.41	4	11.73	9	-0.3	100	-0.3	0	0	980.4	NA	0.0000		9999	390	0	0	0
2019/04/01 00:20:01	BASE	7.78	357	11.73	9	-0.3	100	-0.3	0	0	980.4	NA	0.0000		9999	1640	0	0	0
2019/04/01 00:21:01	BASE	7.23	358	11.73	9	-0.3	100	-0.3	0	0	980.4	NA	0.0000		9999	390	0	0	0
2019/04/01 00:22:01	BASE	7.69	357	11.73	9	-0.3	100	-0.3	0	0	980.4	NA	0.0000		9999	360	0	0	0
2019/04/01 00:23:01	BASE	7.70	352	11.73	9	-0.3	100	-0.3	0	0	980.4	NA	0.0000		9999	360	0	0	0
2019/04/01 00:24:01	BASE	7.49	346	11.73	9	-0.3	100	-0.3	0	0	980.4	NA	0.0000		9999	390	0	0	0
2019/04/01 00:25:01	BASE	8.59	354	11.73	9	-0.3	100	-0.3	0	0	980.4	NA	0.0000		9999	360	2690	0	0
2019/04/01 00:26:01	BASE	8.88	360	11.73	9	-0.3	100	-0.3	0	0	980.4	NA	0.0000		9999	360	1870	0	0
2019/04/01 00:27:01	BASE	9.05	359	12.45	17	-0.3	100	-0.3	0	0	980.4	NA	0.0000		9999	360	0	0	0
2019/04/01 00:28:01	BASE	10.69	5	13.84	12	-0.3	100	-0.3	0	0	980.4	NA	0.0000		9999	0	0	0	3350
2019/04/01 00:29:01	BASE	11.74	7	14.04	8	-0.3	100	-0.3	0	0	980.4	NA	0.0000	-SN	9000	0	0	0	3250
2019/04/01 00:30:01	BASE	11.38	9	14.04	8	-0.3	100	-0.3	0	0	980.4	NA	0.0000	-SN	9000	0	0	0	3540
2019/04/01 00:31:01	BASE	8.76	14	14.04	8	-0.3	100	-0.3	0	0	980.5	NA	0.0000	-SN	6000	0	0	0	3280
2019/04/01 00:32:01	BASE	6.46	1	14.04	8	-0.3	100	-0.3	0	0	980.6	NA	0.0000	-SN	8000	300	0	0	0
2019/04/01 00:33:01	BASE	6.93	0	14.04	8	-0.3	100	-0.3	0	0	980.6	NA	0.0000	-SN	9999	260	950	0	0
2019/04/01 00:34:01	BASE	7.51	5	14.04	8	-0.3	100	-0.3	0	0	980.5	NA	0.0000	-SN	9999	360	0	0	0
2019/04/01 00:35:01	BASE	6.61	354	14.04	8	-0.3	100	-0.3	0	0	980.5	NA	0.0000	-SN	9999	260	0	0	0
2019/04/01 00:36:01	BASE	5.45	356	14.04	8	-0.3	100	-0.3	0	0	980.6	NA	0.0000	-SN BR	9999	0	0	0	3310
2019/04/01 00:37:01	BASE	5.94	2	14.04	8	-0.4	100	-0.4	0	0	980.5	NA	0.0000	-SN BR	9999	1640	0	0	0
2019/04/01 00:38:01	BASE	6.77	0	14.04	8	-0.4	100	-0.4	0	0	980.6	NA	0.0000	-SN	9999	1150	0	0	0
2019/04/01 00:39:01	BASE	6.00	354	12.60	25	-0.4	100	-0.4	0	0	980.6	NA	0.0000	-SN	9999	0	0	0	3380
2019/04/01 00:40:01	BASE	8.70	354	14.61	3	-0.4	100	-0.4	0	0	980.4	NA	0.0000	-SN	9999	750	0	0	0
2019/04/01 00:41:01	BASE	12.84	1	14.61	349	-0.4	100	-0.4	0	0	980.4	NA	0.0000	-SN	9999	620	0	0	0
2019/04/01 00:42:01	BASE	14.63	2	17.29	360	-0.4	100	-0.4	0	0	980.3	NA	0.0000	-SN	9999	0	0	0	3150
2019/04/01 00:43:01	BASE	15.41	4	17.65	11	-0.4	100	-0.4	0	0	980.3	NA	0.0000	-SN	9999	0	0	0	3020
2019/04/01 00:44:01	BASE	15.61	8	17.85	8	-0.4	100	-0.4	0	0	980.2	NA	0.0000	-SN	9999	0	0	0	3870
2019/04/01 00:45:01	BASE	17.30	8	19.70	6	-0.4	100	-0.4	0	0	980.2	NA	0.0000	-SN	9999	0	0	0	3770
2019/04/01 00:46:01	BASE	18.27	6	19.70	6	-0.4	100	-0.4	0	0	980.1	NA	0.0000	-SN	9999	590	0	0	0
2019/04/01 00:47:01	BASE	18.77	6	20.83	8	-0.4	100	-0.4	0	0	980.1	NA	0.0000		9999	390	0	0	0
2019/04/01 00:48:01	BASE	19.19	6	20.89	4	-0.4	100	-0.4	0	0	980.1	NA	0.0000	-SN	9999	0	0	0	3900
2019/04/01 00:49:01	BASE	18.59	9	20.99	15	-0.5	100	-0.5	0	0	980.1	NA	0.0000	-SN	9999	0	0	0	4040
2019/04/01 00:50:01	BASE	19.10	13	21.97	11	-0.5	100	-0.5	0	0	980.1	NA	0.0000	-SN	9999	430	0	0	0
2019/04/01 00:51:01	BASE	19.92	11	21.97	11	-0.5	100	-0.5	0	0	980.1	NA	0.0000	-SN	9999	390	0	0	0
2019/04/01 00:52:01	BASE	19.77	11	21.97	11	-0.5	100	-0.5	0	0	980.1	NA	0.0000	-SN	9999	330	0	0	0
2019/04/01 00:53:01	BASE	19.86	13	21.97	11	-0.5	100	-0.5	0	0	980.1	NA	0.0000	-SN	9999	0	0	0	4100
2019/04/01 00:54:01	BASE	21.03	13	24.33	15	-0.5	100	-0.5	0	0	980.0	NA	0.0000	-SN	9999	0	0	0	4230
2019/04/01 00:55:01	BASE	20.40	14	24.33	15	-0.5	100	-0.5	0	0	980.1	NA	0.0000	-SN	9999	430	0	0	0
2019/04/01 00:56:01	BASE	18.96	18	24.33	15	-0.4	100	-0.4	0	0	980.2	NA	0.0000	-SN	9999	430	0	0	0
2019/04/01 00:57:01	BASE	19.03	19	24.33	15	-0.4	100	-0.4	0	0	980.1	NA	0.0000	-SN	9999	360	3250	0	0
2019/04/01 00:58:01	BASE	19.96	17	24.33	15	-0.4	100	-0.4	0	0	980.1	NA	0.0000	-SN	7000	4330	0	0	0
2019/04/01 00:59:01	BASE	21.86	15	24.33	15	-0.5	100	-0.5	0	0	980.0	NA	0.0000	-SN	5000	3310	4430	0	0
2019/04/01 01:00:01	BASE	21.57	13	24.33	15	-0.5	100	-0.5	0	0	980.1	NA	0.0000	-SN BR	6000	3150	4460	0	0
2019/04/01 01:01:01	BASE	20.85	13	24.33	15	-0.5	100	-0.5	0	0	980.1	NA	0.0000	-SN BR	8000	3150	0	0	0
2019/04/01 01:02:01	BASE	21.75	12	24.33	15	-0.5	100	-0.5	0	0	980.1	NA	0.0000	-SN BR	9000	2760	0	0	0
2019/04/01 01:03:01	BASE	20.84	11	24.33	15	-0.5	100	-0.5	0	0	980.2	NA	0.0000	-SN BR	9999	2760	0	0	0
2019/04/01 01:04:01	BASE	19.52	7	24.13	13	-0.5	100	-0.5	0	0	980.1	NA	0.0000	-SN BR	9999	2890	0	0	0
2019/04/01 01:05:01	BASE	20.13	7	24.13	13	-0.4	100	-0.4	0	0	980.1	NA	0.0000	-SN BR	9999	2560	0	0	0
2019/04/01 01:06:01	BASE	20.51	15	24.13	13	-0.4	100	-0.4	0	0	980.2	NA	0.0000	-SN BR	9999	2560	0	0	0
2019/04/01 01:07:01	BASE	20.64	17	24.13	13	-0.3	100	-0.3	0	0	980.3	NA	0.0000	-SN BR	9999	2690	0	0	0
2019/04/01 01:08:01	BASE	20.59	17	24.13	13	-0.3	100	-0.3	0	0	980.3	NA	0.0000	-SN BR	9999	2690	0	0	0
2019/04/01 01:09:01	BASE	20.52	15	23.87	10	-0.3	100	-0.3	0	0	980.3	NA	0.0000	-SN	9999	2790	0	0	0
2019/04/01 01:10:01	BASE	21.13	13	24.74	12	-0.3	100	-0.3	0	0	980.3	NA	0.0000	-SN	9999	2590	0	0	0
2019/04/01 01:11:01	BASE	22.95	16	26.13	15	-0.4	100	-0.4	0	0	980.2	NA	0.0000	-SN	9999	2620	0	0	0
2019/04/01 01:12:01	BASE	22.78	17	26.13	15	-0.4	100	-0.4	0	0	980.3	NA	0.0000	-SN	9999	2560	0	0	0
2019/04/01 01:13:01	BASE	20.20	14	26.13	15	-0.4	100	-0.4	0	0	980.4	NA	0.0000	-SN	9999	2560	0	0	0
2019/04/01 01:14:01	BASE	19.88	11	26.13	15	-0.4	100	-0.4	0	0	980.4	NA	0.0000	-SN	9999	2530	0	0	0
2019/04/01 01:15:01	BASE	20.98	14	26.13	15	-0.4	100	-0.4	0	0	980.4	NA	0.0000	-SN	9999	2490	0	0	0
2019/04/01 01:16:01	BASE	21.54	15	26.13	15	-0.3	100	-0.3	0	0	980.5	NA	0.0000	-SN	9999	2530	0	0	0
2019/04/01 01:17:01	BASE	20.97	15	26.13	15	-0.3	100	-0.3	0	0	980.5	NA	0.0000	-SN	9999	2530	0	0	0
2019/04/01 01:18:01	BASE	20.24	16	26.13	15	-0.3	100	-0.3	0	0	980.6	NA	0.0000	-SN	9999	2530	0	0	0
2019/04/01 01:19:01	BASE	19.56	16	26.13	15	-0.2	100	-0.2	0	0	980.5	NA	0.0000	-SN	9999	2660	0	0	0
2019/04/01 01:20:01	BASE	19.14	16	26.13	15	-0.2	100	-0.2	0	0	980.6	NA	0.0000	-SN	9999	2460	2890	0	0
2019/04/01 01:21:01	BASE	19.83	17	23.77	16	-0.2	100	-0.2	0	0	980.6	NA	0.0000	-SN	9999	2460	3120	0	0
2019/04/01 01:22:01	BASE	19.66	18	23.77	16	-0.2	100	-0.2	0	0	980.7	NA	0.0000	-SN	9999	2460	3120	0	0
2019/04/01 01:23:01	BASE	17.75	15	23.77	16	-0.1	100	-0.1	0	0	980.7	NA	0.0000	-SN	9999	2560	0	0	0
2019/04/01 01:24:01	BASE	16.44	9	23.77	16	-0.0	100	-0.0	0	0	980.7	NA	0.0000	-SN	9999	2590	0	0	0
2019/04/01 01:25:01	BASE	17.33	5	23.72	16	0.0	100	0.0	0	0	980.7	NA	0.0000	-SN	9999	2330	2890	0	0
2019/04/01 01:26:01	BASE	18.29	8	22.53	17	0.1	100	0.0	0	0	980.7	NA	0.0000	-SN	9999	2170	0	0	0
2019/04/01 01:27:01	BASE	18.77	12	22.02	15	0.1	99	0.0	0	0	980.7	NA	0.0000	-SN	9999	2230	0	0	0
2019/04/01 01:28:01	BASE	18.78	15	22.02	15	0.1	99	-0.0	0	0	980.7	NA	0.0000	-SN	9999	2200	0	0	0
2019/04/01 01:29:01	BASE	17.77	17	22.02	15	0.1	99	-0.1	0	0	980.8	NA	0.0000	-SN	9999	2300	0	0	0
2019/04/01 01:30:01	BASE	18.33	14	21.81	22	0.0	98	-0.2	0	0	980.8	NA	0.0000	-SN	9999	2200	0	0	0
2019/04/01 01:31:01	BASE	18.96	12	21.81	22	0.0	98	-0.2	0	0	980.8	NA	0.0000	-SN	9999	2300	0	0	0
2019/04/01 01:32:01	BASE	18.78	16	21.61	7	-0.0	99	-0.2	0	0	980.8	NA	0.0000	-SN	9999	2620	4270	0	0
2019/04/01 01:33:01	BASE	19.11	18	21.61	7	-0.1	99	-0.2	0	0	980.7	NA	0.0000		9999	2360	3450	0	0
2019/04/01 01:34:01	BASE	19.65	18	21.61	7	-0.1	99	-0.2	0	0	980.7	NA	0.0000	-SN	9999	2360	3540	4170	0
2019/04/01 01:35:01	BASE	20.42	18	21.61	7	-0.1	99	-0.2	0	0	980.7	NA	0.0000	-SN	9999	3540	4230	0	0
2019/04/01 01:36:01	BASE	20.75	20	21.97	19	-0.2	99	-0.3	0	0	980.6	NA	0.0000	-SN	9999	3670	4300	0	0
2019/04/01 01:37:01	BASE	20.80	22	22.33	20	-0.2	100	-0.3	0	0	980.6	NA	0.0000	-SN	9999	3810	0	0	0
2019/04/01 01:38:01	BASE	21.38	21	22.48	18	-0.2	100	-0.2	0	0	980.6	NA	0.0000	-SN	9999	3810	0	0	0
2019/04/01 01:39:01	BASE	21.30	20	22.48	18	-0.2	100	-0.2	0	0	980.7	NA	0.0000	-SN	9999	3970	0	0	0
2019/04/01 01:40:01	BASE	21.08	20	23.46	19	-0.2	100	-0.2	0	0	980.7	NA	0.0000	-SN	9999	3840	0	0	0
2019/04/01 01:41:01	BASE	21.36	20	23.46	19	-0.2	100	-0.2	0	0	980.7	NA	0.0000	-SN	9999	4070	0	0	0
2019/04/01 01:42:01	BASE	21.06	18	23.46	19	-0.1	100	-0.1	0	0	980.7	NA	0.0000	-SN	9999	4170	0	0	0
2019/04/01 01:43:01	BASE	20.78	18	23.46	19	-0.1	100	-0.1	0	0	980.8	NA	0.0000	-SN	9999	4270	0	0	0
2019/04/01 01:44:01	BASE	20.54	19	23.46	19	-0.1	100	-0.1	0	0	980.8	NA	0.0000		9999	4300	0	0	0
2019/04/01 01:45:01	BASE	20.31	19	23.46	19	-0.1	100	-0.1	0	0	980.9	NA	0.0000		9999	4400	0	0	0
2019/04/01 01:46:01	BASE	20.50	21	23.46	19	-0.1	100	-0.1	0	0	980.9	NA	0.0000		9999	4530	0	0	0
2019/04/01 01:47:01	BASE	20.25	22	23.46	19	-0.1	100	-0.1	0	0	980.9	NA	0.0000		9999	4630	0	0	0
2019/04/01 01:48:01	BASE	19.45	21	23.46	19	-0.1	100	-0.1	0	0	980.9	NA	0.0000		9999	3120	4630	0	0
2019/04/01 01:49:01	BASE	19.56	21	23.46	19	-0.1	100	-0.2	0	0	980.9	NA	0.0000		9999	2950	0	0	0
2019/04/01 01:50:01	BASE	20.27	21	22.64	16	-0.1	99	-0.2	0	0	980.9	NA	0.0000		9999	3280	4820	0	0
2019/04/01 01:51:01	BASE	20.76	21	22.64	16	-0.1	99	-0.2	0	0	981.0	NA	0.0000		9999	2820	5050	0	0
2019/04/01 01:52:01	BASE	20.82	22	22.28	16	-0.1	99	-0.3	0	0	981.0	NA	0.0000		9999	3310	5220	0	0
2019/04/01 01:53:01	BASE	19.96	23	22.12	23	-0.1	99	-0.3	0	0	981.0	NA	0.0000		9999	5150	0	0	0
2019/04/01 01:54:01	BASE	19.25	23	22.12	23	-0.1	99	-0.3	0	0	981.1	NA	0.0000		9999	2920	5380	0	0
2019/04/01 01:55:01	BASE	18.99	23	22.12	23	-0.1	99	-0.3	0	0	981.1	NA	0.0000		9999	2890	5150	0	0
2019/04/01 01:56:01	BASE	18.64	24	22.12	23	-0.1	99	-0.3	0	0	981.1	NA	0.0000		9999	2890	3450	5280	0
2019/04/01 01:57:01	BASE	19.02	24	22.12	23	-0.1	98	-0.3	0	0	981.1	NA	0.0000		9999	2690	0	0	0
2019/04/01 01:58:01	BASE	19.27	24	22.12	23	-0.1	98	-0.3	0	0	981.1	NA	0.0000		9999	2720	5480	0	0
2019/04/01 01:59:01	BASE	18.08	23	21.97	20	-0.1	98	-0.4	0	0	981.2	NA	0.0000		9999	2760	5380	0	0
2019/04/01 02:00:01	BASE	17.48	24	21.97	20	-0.1	98	-0.4	0	0	981.2	NA	0.0000		9999	2660	5450	0	0
2019/04/01 02:01:01	BASE	18.60	23	21.61	18	-0.1	98	-0.4	0	0	981.2	NA	0.0000		9999	2620	5450	0	0
2019/04/01 02:02:01	BASE	18.93	21	20.89	23	-0.1	98	-0.4	0	0	981.3	NA	0.0000		9999	2560	5280	0	0
2019/04/01 02:03:01	BASE	18.83	18	21.14	11	-0.0	98	-0.3	0	0	981.3	NA	0.0000		9999	2530	5320	0	0
2019/04/01 02:04:01	BASE	18.32	17	21.14	11	0.0	98	-0.3	0	0	981.4	NA	0.0000		9999	2560	5320	0	0
2019/04/01 02:05:01	BASE	17.14	19	21.14	11	0.1	98	-0.2	0	0	981.4	NA	0.0000		9999	2590	3770	5350	0
2019/04/01 02:06:01	BASE	16.15	18	21.14	11	0.1	98	-0.3	0	0	981.4	NA	0.0000		9999	2760	3770	5580	0
2019/04/01 02:07:01	BASE	15.30	17	21.14	11	0.1	98	-0.2	0	0	981.5	NA	0.0000		9999	5410	0	0	0
2019/04/01 02:08:01	BASE	15.17	16	21.14	11	0.1	98	-0.3	0	0	981.4	NA	0.0000		9999	2560	3350	5580	0
2019/04/01 02:09:01	BASE	16.11	15	21.14	11	0.1	98	-0.3	0	0	981.4	NA	0.0000		9999	2820	5540	0	0
2019/04/01 02:10:01	BASE	16.28	14	21.14	11	0.1	98	-0.2	0	0	981.4	NA	0.0000		9999	2560	0	0	0
2019/04/01 02:11:01	BASE	15.97	17	21.14	11	0.1	98	-0.2	0	0	981.5	NA	0.0000		9999	2430	0	0	0
2019/04/01 02:12:01	BASE	15.24	18	21.14	11	0.2	98	-0.2	0	0	981.5	NA	0.0000		9999	2430	0	0	0
2019/04/01 02:13:01	BASE	12.16	11	18.88	18	0.3	97	-0.1	0	0	981.6	NA	0.0000		9999	2330	0	0	0
2019/04/01 02:14:01	BASE	10.39	7	18.57	12	0.4	97	-0.1	0	0	981.6	NA	0.0000		9999	2400	0	0	0
2019/04/01 02:15:01	BASE	12.21	8	18.57	12	0.5	96	-0.1	0	0	981.6	NA	0.0000		9999	2360	0	0	0
2019/04/01 02:16:01	BASE	14.83	13	18.57	12	0.6	95	-0.1	0	0	981.6	NA	0.0000		9999	2360	0	0	0
2019/04/01 02:17:01	BASE	15.89	19	18.57	12	0.6	94	-0.3	0	0	981.6	NA	0.0000		9999	2360	0	0	0
2019/04/01 02:18:01	BASE	15.64	21	18.57	12	0.5	93	-0.4	0	0	981.6	NA	0.0000		9999	2300	0	0	0
2019/04/01 02:19:01	BASE	14.22	18	17.90	18	0.5	93	-0.6	0	0	981.6	NA	0.0000		9999	2360	0	0	0
2019/04/01 02:20:01	BASE	13.91	13	17.90	18	0.4	93	-0.6	0	0	981.7	NA	0.0000		9999	2260	0	0	0
2019/04/01 02:21:01	BASE	16.08	15	18.11	22	0.3	93	-0.6	0	0	981.6	NA	0.0000		9999	2230	0	0	0
2019/04/01 02:22:01	BASE	17.61	19	19.81	12	0.3	94	-0.6	0	0	981.6	NA	0.0000		9999	2430	0	0	0
2019/04/01 02:23:01	BASE	16.04	13	19.81	12	0.3	94	-0.5	0	0	981.7	NA	0.0000		9999	2400	0	0	0
2019/04/01 02:24:01	BASE	13.81	7	19.81	12	0.3	94	-0.5	0	0	981.7	NA	0.0000		9999	2300	0	0	0
2019/04/01 02:25:01	BASE	12.59	11	19.81	12	0.2	95	-0.5	0	0	981.8	NA	0.0000		9999	2330	0	0	0
2019/04/01 02:26:01	BASE	13.63	14	19.81	12	0.2	95	-0.5	0	0	981.7	NA	0.0000		9999	2400	5320	0	0
2019/04/01 02:27:01	BASE	16.31	16	19.81	12	0.2	95	-0.5	0	0	981.7	NA	0.0000		9999	2360	0	0	0
2019/04/01 02:28:01	BASE	17.30	19	19.81	12	0.3	95	-0.5	0	0	981.7	NA	0.0000		9999	2460	0	0	0
2019/04/01 02:29:01	BASE	17.56	21	19.81	12	0.2	95	-0.5	0	0	981.7	NA	0.0000		9999	2430	0	0	0
2019/04/01 02:30:01	BASE	17.60	21	19.81	12	0.2	94	-0.6	0	0	981.7	NA	0.0000		9999	2490	0	0	0
2019/04/01 02:31:01	BASE	17.78	19	19.81	12	0.2	94	-0.6	0	0	981.7	NA	0.0000		9999	2490	5510	0	0
2019/04/01 02:32:01	BASE	18.36	18	19.50	19	0.2	94	-0.6	0	0	981.7	NA	0.0000		9999	2690	5380	0	0
2019/04/01 02:33:01	BASE	18.32	18	19.50	19	0.1	94	-0.6	0	0	981.8	NA	0.0000		9999	2530	5710	0	0
2019/04/01 02:34:01	BASE	17.80	17	19.50	19	0.1	95	-0.6	0	0	981.8	NA	0.0000		9999	2400	0	0	0
2019/04/01 02:35:01	BASE	17.22	17	19.50	19	0.1	95	-0.6	0	0	981.8	NA	0.0000		9999	2330	0	0	0
2019/04/01 02:36:01	BASE	16.33	16	19.50	19	0.1	95	-0.6	0	0	981.8	NA	0.0000		9999	2490	0	0	0
2019/04/01 02:37:01	BASE	15.46	15	19.50	19	0.2	95	-0.6	0	0	981.8	NA	0.0000		9999	2460	4170	4860	0
2019/04/01 02:38:01	BASE	15.63	17	19.50	19	0.2	95	-0.5	0	0	981.8	NA	0.0000		9999	2460	4270	0	0
2019/04/01 02:39:01	BASE	17.31	16	19.50	19	0.2	95	-0.5	0	0	981.8	NA	0.0000		9999	2460	0	0	0
2019/04/01 02:40:01	BASE	17.87	13	19.50	19	0.3	95	-0.4	0	0	981.8	NA	0.0000		9999	2460	4400	0	0
2019/04/01 02:41:01	BASE	16.14	12	19.45	19	0.3	95	-0.4	0	0	981.9	NA	0.0000		9999	2460	4460	0	0
2019/04/01 02:42:01	BASE	15.23	16	19.09	17	0.3	95	-0.4	0	0	981.9	NA	0.0000		9999	2590	4590	0	0
2019/04/01 02:43:01	BASE	15.98	17	19.09	17	0.3	95	-0.5	0	0	981.8	NA	0.0000		9999	2460	3740	4690	0
2019/04/01 02:44:01	BASE	17.34	17	19.39	13	0.3	94	-0.5	0	0	981.8	NA	0.0000		9999	2660	3770	4760	0
2019/04/01 02:45:01	BASE	18.04	18	20.58	20	0.3	94	-0.5	0	0	981.9	NA	0.0000		9999	3840	4820	0	0
2019/04/01 02:46:01	BASE	17.43	17	20.58	20	0.3	94	-0.6	0	0	981.9	NA	0.0000		9999	2330	3870	0	0
2019/04/01 02:47:01	BASE	17.46	16	20.58	20	0.3	94	-0.6	0	0	981.8	NA	0.0000		9999	4000	0	0	0
2019/04/01 02:48:01	BASE	18.09	19	20.58	20	0.3	94	-0.6	0	0	981.8	NA	0.0000		9999	4100	6270	0	0
2019/04/01 02:49:01	BASE	18.13	21	20.58	20	0.2	94	-0.6	0	0	981.8	NA	0.0000		9999	4270	5380	6370	0
2019/04/01 02:50:01	BASE	17.81	22	20.58	20	0.2	94	-0.6	0	0	981.8	NA	0.0000		9999	2430	6370	0	0
2019/04/01 02:51:01	BASE	17.52	23	20.58	20	0.2	94	-0.6	0	0	981.9	NA	0.0000		9999	6270	0	0	0
2019/04/01 02:52:01	BASE	18.04	23	20.58	20	0.2	94	-0.7	0	0	981.8	NA	0.0000		9999	5640	6370	0	0
2019/04/01 02:53:01	BASE	18.98	23	21.50	22	0.1	94	-0.7	0	0	981.8	NA	0.0000		9999	5770	6660	0	0
2019/04/01 02:54:01	BASE	19.53	23	21.50	22	0.1	94	-0.8	0	0	981.8	NA	0.0000		9999	3940	6760	0	0
2019/04/01 02:55:01	BASE	19.79	23	21.50	22	0.1	94	-0.8	0	0	981.8	NA	0.0000	UP	9999	1310	6920	0	0
2019/04/01 02:56:01	BASE	19.50	23	21.50	22	0.0	94	-0.8	0	0	981.8	NA	0.0000	UP	9999	7020	0	0	0
2019/04/01 02:57:01	BASE	19.24	24	21.50	22	-0.0	94	-0.8	0	0	981.8	NA	0.0000	UP	9999	0	0	0	4300
2019/04/01 02:58:01	BASE	19.50	24	21.50	22	-0.0	95	-0.8	0	0	981.8	NA	0.0000	UP	9999	0	0	0	5120
2019/04/01 02:59:01	BASE	18.93	24	21.50	22	-0.1	95	-0.8	0	0	981.8	NA	0.0000	UP	9999	3310	0	0	0
2019/04/01 03:00:01	BASE	18.69	25	21.50	22	-0.1	95	-0.8	0	0	981.8	NA	0.0000	UP	9999	3250	0	0	0
2019/04/01 03:01:01	BASE	19.30	27	21.50	22	-0.1	95	-0.8	0	0	981.8	NA	0.0000	UP	9999	0	0	0	5970
2019/04/01 03:02:01	BASE	19.30	27	21.50	22	-0.2	95	-0.8	0	0	981.8	NA	0.0000	UP	9999	0	0	0	7050
2019/04/01 03:03:01	BASE	19.98	27	22.33	20	-0.2	95	-0.8	0	0	981.7	NA	0.0000	UP	9999	6100	0	0	0
2019/04/01 03:04:01	BASE	20.24	27	22.33	20	-0.2	96	-0.8	0	0	981.8	NA	0.0000	UP	9999	0	0	0	7020
2019/04/01 03:05:01	BASE	19.78	25	22.33	20	-0.2	96	-0.8	0	0	981.8	NA	0.0000	UP	9999	2760	0	0	0
2019/04/01 03:06:01	BASE	19.67	24	22.33	20	-0.2	96	-0.8	0	0	981.8	NA	0.0000	UP	9999	2720	0	0	0
2019/04/01 03:07:01	BASE	19.65	23	22.33	20	-0.2	96	-0.7	0	0	981.8	NA	0.0000	UP	9999	6790	0	0	0
2019/04/01 03:08:01	BASE	20.09	24	22.33	20	-0.2	96	-0.7	0	0	981.8	NA	0.0000	UP	9999	6960	0	0	0
2019/04/01 03:09:01	BASE	20.35	26	22.33	20	-0.2	97	-0.7	0	0	981.8	NA	0.0000	UP	9999	2890	0	0	0
2019/04/01 03:10:01	BASE	19.26	24	22.33	20	-0.3	97	-0.7	0	0	981.9	NA	0.0000	UP	9999	6370	0	0	0
2019/04/01 03:11:01	BASE	19.74	23	22.33	20	-0.3	97	-0.7	0	0	981.8	NA	0.0000	UP	9999	2690	0	0	0
2019/04/01 03:12:01	BASE	20.53	25	22.33	20	-0.3	97	-0.6	0	0	981.9	NA	0.0000	UP	9999	2690	0	0	0
2019/04/01 03:13:01	BASE	19.45	26	22.28	21	-0.3	98	-0.6	0	0	982.0	NA	0.0000	UP	9999	4400	0	0	0
2019/04/01 03:14:01	BASE	19.66	25	22.28	21	-0.3	98	-0.6	0	0	981.9	NA	0.0000	UP	9999	2920	0	0	0
2019/04/01 03:15:01	BASE	19.30	23	22.28	21	-0.3	98	-0.5	0	0	982.0	NA	0.0000	UP	9999	2920	0	0	0
2019/04/01 03:16:00	BASE	19.80	23	22.94	22	-0.2	98	-0.5	0	0	981.9	NA	0.0000	UP	9999	2920	0	0	0
2019/04/01 03:17:00	BASE	20.92	23	22.94	22	-0.2	98	-0.5	0	0	981.9	NA	0.0000	UP	9999	3020	0	0	0
2019/04/01 03:18:00	BASE	20.55	23	22.94	22	-0.2	98	-0.5	0	0	982.0	NA	0.0000		9999	0	0	0	6170
2019/04/01 03:19:01	BASE	20.53	22	22.94	22	-0.2	98	-0.5	0	0	982.0	NA	0.0000		9999	5280	0	0	0
2019/04/01 03:20:01	BASE	21.39	20	23.20	17	-0.2	98	-0.5	0	0	981.9	NA	0.0000	UP	9999	5250	0	0	0
2019/04/01 03:21:00	BASE	21.99	19	23.20	17	-0.1	98	-0.5	0	0	982.0	NA	0.0000	UP	9999	0	0	0	4890
2019/04/01 03:22:00	BASE	21.41	19	23.41	22	-0.1	97	-0.5	0	0	982.1	NA	0.0000	UP	9999	2400	0	0	0
2019/04/01 03:23:00	BASE	20.26	20	23.41	22	-0.1	97	-0.5	0	0	982.1	NA	0.0000	UP	9999	0	0	0	6000
2019/04/01 03:24:00	BASE	19.45	21	23.41	22	-0.0	97	-0.5	0	0	982.2	NA	0.0000	UP	9999	2590	0	0	0
2019/04/01 03:25:01	BASE	19.95	22	23.41	22	-0.0	96	-0.5	0	0	982.1	NA	0.0000	UP	9999	2400	0	0	0
2019/04/01 03:26:01	BASE	19.55	23	23.41	22	-0.0	96	-0.6	0	0	982.2	NA	0.0000	UP	9999	2360	0	0	0
2019/04/01 03:27:00	BASE	19.39	23	23.41	22	-0.0	96	-0.6	0	0	982.1	NA	0.0000	UP	9999	2590	0	0	0
2019/04/01 03:28:01	BASE	20.19	23	23.41	22	-0.0	96	-0.6	0	0	982.1	NA	0.0000	UP	9999	2460	0	0	0
2019/04/01 03:29:00	BASE	19.98	22	23.41	22	0.0	96	-0.5	0	0	982.2	NA	0.0000	UP	9999	2490	0	0	0
2019/04/01 03:30:01	BASE	20.28	21	23.41	22	0.1	96	-0.5	0	0	982.2	NA	0.0000	UP	9999	2460	0	0	0
2019/04/01 03:31:00	BASE	21.36	20	23.41	22	0.1	95	-0.5	0	0	982.2	NA	0.0000	UP	9999	360	0	0	0
2019/04/01 03:32:00	BASE	21.62	18	23.20	15	0.2	95	-0.5	0	0	982.2	NA	0.0000	UP	9999	430	2530	0	0
2019/04/01 03:33:00	BASE	20.17	16	23.20	15	0.2	95	-0.6	0	0	982.4	NA	0.0000	UP	9999	330	0	0	0
2019/04/01 03:34:00	BASE	19.67	17	23.20	15	0.2	94	-0.6	0	0	982.4	NA	0.0000	-SN	9999	330	0	0	0
2019/04/01 03:35:01	BASE	20.35	19	23.87	22	0.1	94	-0.7	0	0	982.4	NA	0.0000	-SN	7000	300	2620	0	0
2019/04/01 03:36:00	BASE	19.34	20	23.87	22	0.1	94	-0.7	0	0	982.5	NA	0.0000	-SN	5000	300	0	0	0
2019/04/01 03:37:00	BASE	17.58	14	23.87	22	0.1	94	-0.7	0	0	982.6	NA	0.0000	-SN BR	6000	300	0	0	0
2019/04/01 03:38:00	BASE	18.26	15	23.87	22	0.0	95	-0.7	0	0	982.6	NA	0.0000	-SN BR	8000	300	0	0	0
2019/04/01 03:39:00	BASE	19.39	19	23.87	22	0.0	95	-0.7	0	0	982.6	NA	0.0000	-SN BR	6000	300	0	0	0
2019/04/01 03:40:01	BASE	18.00	13	23.87	22	-0.0	96	-0.6	0	0	982.6	NA	0.0000	-SN BR	6000	300	0	0	0
2019/04/01 03:41:01	BASE	18.43	11	23.87	22	-0.0	96	-0.6	0	0	982.6	NA	0.0000	-SN BR	8000	260	0	0	0
2019/04/01 03:42:00	BASE	18.48	11	23.87	22	-0.1	97	-0.5	0	0	982.7	NA	0.0000	-SN BR	7000	260	0	0	0
2019/04/01 03:43:00	BASE	17.00	12	23.87	22	-0.1	97	-0.5	0	0	982.7	NA	0.0000	-SN BR	5000	0	0	0	4490
2019/04/01 03:44:00	BASE	17.00	10	23.87	22	-0.0	98	-0.4	0	0	982.7	NA	0.0000	-SN BR	6000	300	0	0	0
2019/04/01 03:45:01	BASE	17.16	12	22.38	354	0.0	98	-0.3	0	0	982.7	NA	0.0000	-SN BR	9999	360	0	0	0
2019/04/01 03:46:00	BASE	17.50	16	22.38	354	0.1	98	-0.2	0	0	982.7	NA	0.0000	-SN BR	9999	0	0	0	5120
2019/04/01 03:47:00	BASE	17.72	15	22.38	354	0.1	98	-0.1	0	0	982.7	NA	0.0000	-SN BR	9999	0	0	0	5220
2019/04/01 03:48:00	BASE	19.13	16	22.38	354	0.1	98	-0.1	0	0	982.7	NA	0.0000	-SN BR	9999	0	0	0	4490
2019/04/01 03:49:00	BASE	19.94	15	22.38	354	0.1	98	-0.1	0	0	982.7	NA	0.0000	-SN BR	9999	390	0	0	0
2019/04/01 03:50:00	BASE	19.34	12	22.38	354	0.1	98	-0.2	0	0	982.7	NA	0.0000	-SN BR	9000	300	0	0	0
2019/04/01 03:51:00	BASE	18.48	10	22.38	354	0.1	98	-0.2	0	0	982.8	NA	0.0000	-SN BR	7000	230	0	0	0
2019/04/01 03:52:00	BASE	16.04	8	22.07	19	0.0	98	-0.2	0	0	982.9	NA	0.0000	-SN BR	9000	360	0	0	0
2019/04/01 03:53:00	BASE	14.75	4	22.07	19	0.0	98	-0.2	0	0	982.9	NA	0.0000	-SN BR	9999	0	0	0	3150
2019/04/01 03:54:00	BASE	15.99	2	22.07	19	0.1	98	-0.2	0	0	982.9	NA	0.0000	-SN	9999	0	0	0	3120
2019/04/01 03:55:01	BASE	18.03	7	22.07	19	0.1	98	-0.2	0	0	982.9	NA	0.0000	-SN	9999	0	0	0	3220
2019/04/01 03:56:00	BASE	19.29	12	22.07	19	0.1	98	-0.2	0	0	982.8	NA	0.0000	-SN	9999	0	0	0	3410
2019/04/01 03:57:00	BASE	19.43	13	22.12	12	0.1	98	-0.2	0	0	982.9	NA	0.0000	-SN	9999	0	0	0	3120
2019/04/01 03:58:00	BASE	20.01	16	22.58	15	0.1	98	-0.2	0	0	982.8	NA	0.0000	-SN	9999	0	0	0	2850
2019/04/01 03:59:00	BASE	20.76	16	22.58	15	0.1	98	-0.2	0	0	982.9	NA	0.0000	-SN	9999	520	0	0	0
2019/04/01 04:00:00	BASE	20.40	15	22.58	15	0.0	98	-0.2	0	0	983.0	NA	0.0000	-SN	9999	0	0	0	3080
2019/04/01 04:01:00	BASE	19.21	19	22.58	15	-0.0	98	-0.3	0	0	983.0	NA	0.0000	-SN	9999	0	0	0	3080
2019/04/01 04:02:01	BASE	17.97	19	22.58	15	-0.1	98	-0.3	0	0	983.0	NA	0.0000	-SN	9999	0	0	0	2950
2019/04/01 04:03:00	BASE	17.97	15	22.58	15	-0.1	98	-0.4	0	0	983.1	NA	0.0000	-SN	9999	2130	0	0	0
2019/04/01 04:04:00	BASE	18.80	16	22.58	15	-0.2	98	-0.4	0	0	983.1	NA	0.0000	-SN	9999	2170	0	0	0
2019/04/01 04:05:01	BASE	18.71	15	22.58	15	-0.2	98	-0.4	0	0	983.1	NA	0.0000	-SN	9999	1150	0	0	0
2019/04/01 04:06:00	BASE	18.97	14	22.58	15	-0.2	98	-0.4	0	0	983.1	NA	0.0000	-SN	9999	850	0	0	0
2019/04/01 04:07:00	BASE	18.67	17	22.58	15	-0.2	99	-0.4	0	0	983.1	NA	0.0000	-SN	9999	430	0	0	0
2019/04/01 04:08:00	BASE	17.17	6	22.28	13	-0.2	99	-0.3	0	0	983.2	NA	0.0000	-SN	9999	360	0	0	0
2019/04/01 04:09:00	BASE	15.97	357	21.61	18	-0.1	99	-0.2	0	0	983.2	NA	0.0000	-SN	9999	430	0	0	0
2019/04/01 04:10:00	BASE	15.67	0	21.61	18	0.0	99	-0.1	0	0	983.2	NA	0.0000	-SN	9999	390	0	0	0
2019/04/01 04:11:00	BASE	15.79	2	21.35	18	0.1	99	-0.1	0	0	983.3	NA	0.0000	-SN	9999	430	0	0	0
2019/04/01 04:12:00	BASE	14.54	350	21.30	14	0.2	98	-0.0	0	0	983.4	NA	0.0000	-SN	9999	360	0	0	0
2019/04/01 04:13:00	BASE	11.88	347	21.30	14	0.3	98	0.1	0	0	983.5	NA	0.0000	-SN	9999	360	1940	0	0
2019/04/01 04:14:00	BASE	12.40	355	21.20	12	0.3	98	0.0	0	0	983.5	NA	0.0000	-SN	9999	390	0	0	0
2019/04/01 04:15:00	BASE	15.64	353	21.20	12	0.3	98	-0.0	0	0	983.4	NA	0.0000	-SN	9999	390	0	0	0
2019/04/01 04:16:00	BASE	16.04	347	21.20	12	0.3	97	-0.0	0	0	983.5	NA	0.0000	-SN	9999	330	0	0	0
2019/04/01 04:17:00	BASE	11.96	337	21.20	12	0.3	97	-0.1	0	0	983.7	NA	0.0000	-SN	9999	330	0	0	0
2019/04/01 04:18:00	BASE	8.84	338	20.47	2	0.3	97	-0.1	0	0	983.7	NA	0.0000	-SN	9999	0	0	0	2300
2019/04/01 04:19:00	BASE	9.84	333	18.88	4	0.3	97	-0.1	0	0	983.7	NA	0.0000	-SN	9999	330	0	0	0
2019/04/01 04:20:00	BASE	10.18	326	18.47	344	0.3	97	-0.1	0	0	983.8	NA	0.0000		9999	360	0	0	0
2019/04/01 04:21:00	BASE	9.64	338	18.47	344	0.3	98	-0.0	0	0	983.9	NA	0.0000		9999	390	0	0	0
2019/04/01 04:22:00	BASE	9.63	347	18.47	344	0.3	98	-0.1	0	0	983.9	NA	0.0000		9999	360	0	0	0
2019/04/01 04:23:00	BASE	9.81	349	18.47	344	0.2	98	-0.1	0	0	983.9	NA	0.0000		9999	390	0	0	0
2019/04/01 04:24:00	BASE	9.24	350	18.47	344	0.1	98	-0.2	0	0	983.9	NA	0.0000		9999	300	0	0	0
2019/04/01 04:25:01	BASE	8.56	347	18.47	344	0.0	98	-0.2	0	0	984.0	NA	0.0000		9999	0	0	0	2130
2019/04/01 04:26:01	BASE	8.68	343	12.04	327	-0.0	98	-0.3	0	0	984.1	NA	0.0000		9999	360	0	0	0
2019/04/01 04:27:00	BASE	8.15	331	12.04	327	-0.0	98	-0.2	0	0	984.2	NA	0.0000		9999	560	0	0	0
2019/04/01 04:28:00	BASE	7.77	312	12.04	327	0.0	99	-0.2	0	0	984.3	NA	0.0000		9999	520	0	0	0
2019/04/01 04:29:00	BASE	8.85	294	14.20	280	0.1	99	-0.1	0	0	984.3	NA	0.0000		9999	330	0	0	0
2019/04/01 04:30:01	BASE	12.79	280	16.93	274	0.1	99	-0.0	0	0	984.3	NA	0.0000	-SN	6000	360	0	0	0
2019/04/01 04:31:00	BASE	15.76	276	16.98	273	0.0	99	-0.1	0	0	984.4	NA	0.0000	-SN BR	2100	0	0	0	790
2019/04/01 04:32:00	BASE	16.46	278	18.98	283	-0.1	100	-0.2	0	0	984.4	NA	0.0000	-SN BR	1500	0	0	0	720
2019/04/01 04:33:00	BASE	15.19	275	18.98	283	-0.3	100	-0.3	0	0	984.4	NA	0.0000	-SN BR	1500	0	0	0	850
2019/04/01 04:34:01	BASE	14.47	267	18.98	283	-0.4	100	-0.4	0	0	984.4	NA	0.0000	-SN BR	1800	0	0	0	890
2019/04/01 04:35:00	BASE	16.11	263	20.06	259	-0.6	100	-0.6	0	0	984.5	NA	0.0000	-SN BR	2300	0	0	0	1080
2019/04/01 04:36:00	BASE	15.52	263	20.06	259	-0.7	100	-0.7	0	0	984.6	NA	0.2540	-SN BR	2800	0	0	0	1120
2019/04/01 04:37:00	BASE	13.52	264	20.06	259	-0.8	100	-0.8	0	0	984.7	NA	0.0000	-SN BR	2600	0	0	0	1020
2019/04/01 04:38:01	BASE	12.57	266	20.06	259	-0.9	100	-0.9	0	0	984.6	NA	0.0000	-SN BR	2700	0	0	0	980
2019/04/01 04:39:00	BASE	12.56	264	20.06	259	-1.0	100	-1.0	0	0	984.6	NA	0.0000	-SN BR	3000	0	0	0	920
2019/04/01 04:40:01	BASE	11.86	265	20.06	259	-1.0	100	-1.0	0	0	984.6	NA	0.0000	-SN BR	3100	0	0	0	820
2019/04/01 04:41:00	BASE	10.11	270	20.06	259	-1.1	100	-1.1	0	0	984.7	NA	0.0000	-SN BR	3400	0	0	0	720
2019/04/01 04:42:00	BASE	9.77	274	20.06	259	-1.1	100	-1.1	0	0	984.7	NA	0.0000	-SN BR	3700	0	0	0	720
2019/04/01 04:43:00	BASE	10.92	281	20.06	259	-1.1	100	-1.1	0	0	984.7	NA	0.0000	-SN BR	3700	0	0	0	690
2019/04/01 04:44:00	BASE	11.56	284	20.06	259	-1.1	100	-1.1	0	0	984.7	NA	0.2540	-SN BR	3700	0	0	0	750
2019/04/01 04:45:00	BASE	11.22	285	19.60	253	-1.2	100	-1.2	0	0	984.8	NA	0.0000	-SN BR	4000	0	0	0	820
2019/04/01 04:46:00	BASE	10.34	289	17.59	254	-1.2	100	-1.2	0	0	984.8	NA	0.0000	-SN BR	4400	0	0	0	850
2019/04/01 04:47:00	BASE	9.88	290	16.20	271	-1.2	100	-1.2	0	0	984.8	NA	0.0000	-SN BR	5000	0	0	0	1050
2019/04/01 04:48:00	BASE	9.03	286	14.25	263	-1.2	100	-1.2	0	0	984.8	NA	0.0000	-SN BR	5000	0	0	0	1120
2019/04/01 04:49:00	BASE	8.44	283	13.99	277	-1.2	100	-1.2	0	0	984.8	NA	0.0000	-SN BR	4600	0	0	0	1310
2019/04/01 04:50:00	BASE	8.21	283	13.99	277	-1.1	100	-1.1	0	0	984.8	NA	0.0000	-SN BR	5000	0	0	0	1280
2019/04/01 04:51:00	BASE	9.36	282	13.99	277	-1.1	100	-1.1	0	0	984.8	NA	0.0000	-SN BR	5000	0	0	0	1350
2019/04/01 04:52:00	BASE	10.88	281	13.99	277	-1.1	100	-1.1	0	0	984.8	NA	0.0000	-SN BR	4800	0	0	0	890
2019/04/01 04:53:00	BASE	12.34	275	18.01	257	-1.1	100	-1.1	0	0	984.8	NA	0.0000	-SN BR	4700	0	0	0	950
2019/04/01 04:54:00	BASE	12.92	265	18.01	257	-1.0	100	-1.0	0	0	984.9	NA	0.0000	-SN BR	5000	0	0	0	1640
2019/04/01 04:55:00	BASE	13.55	257	18.01	257	-1.0	100	-1.0	0	0	984.9	NA	0.0000	-SN BR	5000	0	0	0	1440
2019/04/01 04:56:00	BASE	15.31	253	18.01	257	-1.1	100	-1.1	0	0	984.9	NA	0.0000	-SN BR	7000	0	0	0	2030
2019/04/01 04:57:00	BASE	16.05	255	18.01	257	-1.1	100	-1.1	0	0	984.9	NA	0.0000	-SN BR	6000	0	0	0	2200
2019/04/01 04:58:00	BASE	15.91	254	18.01	257	-1.2	100	-1.2	0	0	984.9	NA	0.0000	-SN BR	5000	0	0	0	2200
2019/04/01 04:59:01	BASE	15.08	252	18.01	257	-1.2	100	-1.2	0	0	984.9	NA	0.0000	-SN BR	6000	0	0	0	1350
2019/04/01 05:00:00	BASE	14.94	249	18.01	257	-1.3	100	-1.3	0	0	984.9	NA	0.0000	-SN BR	5000	0	0	0	2170
2019/04/01 05:01:00	BASE	15.38	246	18.01	257	-1.3	100	-1.3	0	0	985.0	NA	0.0000	-SN BR	3800	0	0	0	1570
2019/04/01 05:02:00	BASE	15.75	247	18.21	255	-1.3	100	-1.3	0	0	985.1	NA	0.0000	-SN BR	4200	0	0	0	2430
2019/04/01 05:03:00	BASE	17.20	250	20.11	245	-1.3	100	-1.3	0	0	985.1	NA	0.0000	-SN BR	4800	0	0	0	2490
2019/04/01 05:04:00	BASE	18.42	249	20.27	245	-1.4	100	-1.4	0	0	985.1	NA	0.0000	-SN BR	6000	0	0	0	2690
2019/04/01 05:05:00	BASE	17.54	251	20.27	245	-1.5	100	-1.5	0	0	985.1	NA	0.0000	-SN BR	6000	0	0	0	2660
2019/04/01 05:06:02	BASE	16.47	254	20.27	245	-1.6	100	-1.6	0	0	985.2	NA	0.0000	-SN BR	4800	0	0	0	2690
2019/04/01 05:07:00	BASE	16.10	252	20.27	245	-1.6	100	-1.6	0	0	985.2	NA	0.2540	-SN BR	4700	0	0	0	1610
2019/04/01 05:08:00	BASE	15.74	250	20.27	245	-1.7	100	-1.7	0	0	985.2	NA	0.0000	-SN BR	3800	0	0	0	1510
2019/04/01 05:09:00	BASE	14.45	245	20.27	245	-1.6	100	-1.6	0	0	985.3	NA	0.0000	-SN BR	3500	0	0	0	1410
2019/04/01 05:10:00	BASE	13.92	248	20.27	245	-1.6	100	-1.6	0	0	985.3	NA	0.0000	-SN BR	3400	0	0	0	1350
2019/04/01 05:11:00	BASE	13.30	250	20.27	245	-1.6	100	-1.6	0	0	985.3	NA	0.0000	-SN BR	3500	0	0	0	1250
2019/04/01 05:12:00	BASE	12.66	246	20.27	245	-1.6	100	-1.6	0	0	985.3	NA	0.0000	-SN BR	3600	0	0	0	1210
2019/04/01 05:13:00	BASE	12.55	244	20.27	245	-1.6	100	-1.6	0	0	985.4	NA	0.0000	-SN BR	3200	0	0	0	1180
2019/04/01 05:14:00	BASE	11.62	245	18.42	255	-1.6	100	-1.6	0	0	985.4	NA	0.0000	-SN BR	2600	0	0	0	1150
2019/04/01 05:15:01	BASE	11.80	245	17.95	253	-1.6	100	-1.6	0	0	985.4	NA	0.0000	-SN BR	2700	0	0	0	1250
2019/04/01 05:16:01	BASE	11.87	245	17.95	253	-1.5	100	-1.5	0	0	985.4	NA	0.0000	-SN BR	3200	0	0	0	1280
2019/04/01 05:17:00	BASE	12.34	248	17.08	252	-1.5	100	-1.5	0	0	985.4	NA	0.0000	-SN BR	3400	0	0	0	1350
2019/04/01 05:18:00	BASE	12.89	247	16.62	234	-1.5	100	-1.5	0	0	985.4	NA	0.0000	-SN BR	3300	0	0	0	1480
2019/04/01 05:19:00	BASE	12.04	243	16.05	249	-1.5	100	-1.5	0	0	985.4	NA	0.0000	-SN BR	3400	0	0	0	1440
2019/04/01 05:20:00	BASE	11.22	241	15.02	239	-1.5	100	-1.5	0	0	985.4	NA	0.0000	-SN BR	3500	0	0	0	1350
2019/04/01 05:21:00	BASE	11.59	237	15.02	239	-1.5	100	-1.5	0	0	985.4	NA	0.0000	-SN BR	3200	0	0	0	1350
2019/04/01 05:22:00	BASE	11.51	238	14.71	232	-1.5	100	-1.5	0	0	985.5	NA	0.0000	-SN BR	2800	0	0	0	1440
2019/04/01 05:23:00	BASE	10.78	241	14.71	232	-1.5	100	-1.5	0	0	985.5	NA	0.0000	-SN BR	3000	0	0	0	1670
2019/04/01 05:24:00	BASE	10.07	240	14.71	232	-1.5	100	-1.5	0	0	985.6	NA	0.0000	-SN BR	4000	0	0	0	2030
2019/04/01 05:25:00	BASE	9.87	239	14.71	232	-1.5	100	-1.5	0	0	985.6	NA	0.0000	-SN BR	6000	0	0	0	2230
2019/04/01 05:26:00	BASE	9.68	240	14.71	232	-1.5	100	-1.5	0	0	985.6	NA	0.0000	-SN BR	9000	330	0	0	0
2019/04/01 05:27:00	BASE	8.31	246	14.71	232	-1.5	100	-1.5	0	0	985.6	NA	0.0000	-SN BR	8000	330	0	0	0
2019/04/01 05:28:00	BASE	7.89	250	14.71	232	-1.5	100	-1.5	0	0	985.7	NA	0.0000	-SN BR	9000	0	0	0	2760
2019/04/01 05:29:00	BASE	8.85	251	14.71	232	-1.4	100	-1.4	0	0	985.7	NA	0.0000	-SN BR	9999	0	0	0	3180
2019/04/01 05:30:00	BASE	9.46	253	14.71	232	-1.4	100	-1.4	0	0	985.7	NA	0.0000	-SN BR	9999	360	0	0	0
2019/04/01 05:31:00	BASE	10.40	252	13.68	240	-1.3	100	-1.3	0	0	985.7	NA	0.0000	-SN BR	9999	360	0	0	0
2019/04/01 05:32:00	BASE	10.34	253	13.32	249	-1.3	100	-1.3	0	0	985.8	NA	0.0000	-SN BR	9999	360	0	0	0
2019/04/01 05:33:00	BASE	8.54	256	13.32	249	-1.2	100	-1.2	0	0	985.8	NA	0.0000	-SN BR	9999	390	0	0	0
2019/04/01 05:34:00	BASE	8.36	257	13.32	249	-1.2	100	-1.2	0	0	985.8	NA	0.0000	-SN	9999	1900	0	0	0
2019/04/01 05:35:00	BASE	9.20	252	13.32	249	-1.1	100	-1.1	0	0	985.8	NA	0.0000	-SN	9999	390	0	0	0
2019/04/01 05:36:00	BASE	9.82	254	13.32	249	-1.1	100	-1.1	0	0	985.8	NA	0.0000	-SN	9999	2030	2950	0	0
2019/04/01 05:37:00	BASE	10.84	253	13.32	249	-1.0	100	-1.0	0	0	985.8	NA	0.0000	-SN	9999	1900	2720	0	0
2019/04/01 05:38:00	BASE	11.89	245	14.25	244	-1.0	100	-1.0	0	0	985.8	NA	0.0000	-SN	9999	1870	0	0	0
2019/04/01 05:39:00	BASE	12.46	246	14.76	255	-0.9	100	-0.9	0	0	985.9	NA	0.0000	-SN	9999	1800	0	0	0
2019/04/01 05:40:00	BASE	13.70	252	16.10	255	-0.9	100	-0.9	0	0	985.9	NA	0.0000	-SN	9000	430	0	0	0
2019/04/01 05:41:00	BASE	14.96	253	17.90	253	-0.8	100	-0.8	0	0	985.9	NA	0.0000	-SN	9999	2260	0	0	0
2019/04/01 05:42:00	BASE	15.17	252	17.90	253	-0.8	100	-0.8	0	0	985.8	NA	0.0000	-SN	9999	2360	0	0	0
2019/04/01 05:43:00	BASE	14.28	253	17.90	253	-0.7	100	-0.7	0	0	985.9	NA	0.0000	-SN	9999	2070	0	0	0
2019/04/01 05:44:00	BASE	14.85	253	17.90	253	-0.7	100	-0.7	0	0	985.9	NA	0.0000	-SN	9999	360	0	0	0
2019/04/01 05:45:00	BASE	14.91	254	17.90	253	-0.7	100	-0.7	0	0	986.0	NA	0.0000	-SN	9999	330	2790	0	0
2019/04/01 05:46:00	BASE	13.85	251	17.90	253	-0.6	100	-0.6	0	0	985.9	NA	0.0000	-SN	9999	390	2920	0	0
2019/04/01 05:47:00	BASE	13.42	246	17.90	253	-0.6	100	-0.6	0	0	986.0	NA	0.0000	-SN	9999	1740	2530	0	0
2019/04/01 05:48:00	BASE	13.90	246	17.90	253	-0.6	100	-0.6	0	0	986.0	NA	0.0000	-SN	9999	2170	0	0	0
2019/04/01 05:49:00	BASE	15.94	248	18.67	247	-0.6	100	-0.6	0	0	986.0	NA	0.0000	-SN	9999	2100	0	0	0
2019/04/01 05:50:00	BASE	16.97	248	18.67	247	-0.6	100	-0.6	0	0	986.0	NA	0.0000	-SN	9999	2130	0	0	0
2019/04/01 05:51:00	BASE	17.55	249	19.24	242	-0.7	100	-0.7	0	0	986.0	NA	0.0000	-SN	9999	2230	0	0	0
2019/04/01 05:52:00	BASE	17.21	250	19.24	242	-0.7	100	-0.7	0	0	986.0	NA	0.0000	-SN	9999	2200	0	0	0
2019/04/01 05:53:00	BASE	15.73	248	19.24	242	-0.7	100	-0.7	0	0	986.1	NA	0.0000	-SN	9999	2260	0	0	0
2019/04/01 05:54:00	BASE	15.67	249	19.24	242	-0.7	99	-0.8	0	0	986.1	NA	0.0000	-SN	9999	2330	2890	0	0
2019/04/01 05:55:00	BASE	17.04	248	19.34	250	-0.7	99	-0.9	0	0	986.1	NA	0.0000		9999	2820	0	0	0
2019/04/01 05:56:00	BASE	16.00	249	19.34	250	-0.7	98	-0.9	0	0	986.2	NA	0.0000		9999	360	0	0	0
2019/04/01 05:57:00	BASE	15.28	251	19.34	250	-0.7	97	-1.1	0	0	986.2	NA	0.0000		9999	3220	0	0	0
2019/04/01 05:58:00	BASE	15.75	250	19.34	250	-0.7	96	-1.3	0	0	986.2	NA	0.0000		9999	3310	0	0	0
2019/04/01 05:59:00	BASE	16.14	250	19.34	250	-0.7	95	-1.4	0	0	986.2	NA	0.0000		9999	3810	0	0	0
2019/04/01 06:00:00	BASE	17.47	250	19.34	250	-0.7	94	-1.6	0	0	986.2	NA	0.0000		9999	3540	4100	0	0
2019/04/01 06:01:00	BASE	17.83	249	19.34	239	-0.7	93	-1.6	0	0	986.3	NA	0.0000		9999	4200	0	0	0
2019/04/01 06:02:00	BASE	16.57	247	19.34	239	-0.7	92	-1.7	0	0	986.3	NA	0.0000		9999	2200	3450	0	0
2019/04/01 06:03:00	BASE	15.70	246	19.34	239	-0.6	92	-1.8	0	0	986.3	NA	0.0000		9999	2070	0	0	0
2019/04/01 06:04:00	BASE	15.82	247	19.34	239	-0.6	91	-1.8	0	0	986.3	NA	0.0000		9999	2100	0	0	0
2019/04/01 06:05:00	BASE	16.22	244	19.34	239	-0.6	91	-1.9	0	0	986.3	NA	0.0000		9999	2230	3310	0	0
2019/04/01 06:06:00	BASE	14.85	239	19.34	239	-0.6	91	-1.9	0	0	986.4	NA	0.0000		9999	4000	6860	8300	0
2019/04/01 06:07:00	BASE	13.51	238	19.34	239	-0.6	91	-1.9	0	0	986.5	NA	0.0000		9999	8170	0	0	0
2019/04/01 06:08:00	BASE	13.68	239	19.34	239	-0.6	90	-2.0	0	0	986.5	NA	0.0000		9999	3540	8200	0	0
2019/04/01 06:09:00	BASE	13.99	239	19.34	239	-0.6	90	-2.0	0	0	986.5	NA	0.0000		9999	2490	4100	0	0
2019/04/01 06:10:00	BASE	14.59	237	19.34	239	-0.6	90	-2.1	0	0	986.5	NA	0.0000		9999	2760	8500	0	0
2019/04/01 06:11:00	BASE	13.76	235	18.62	246	-0.6	89	-2.1	0	0	986.5	NA	0.0000		9999	2950	8530	0	0
2019/04/01 06:12:00	BASE	12.82	236	18.62	246	-0.6	89	-2.1	0	0	986.6	NA	0.0000		9999	2990	8530	0	0
2019/04/01 06:13:00	BASE	14.33	237	18.62	246	-0.6	89	-2.1	0	0	986.6	NA	0.0000		9999	2620	3580	8660	0
2019/04/01 06:14:00	BASE	14.72	237	18.62	246	-0.6	89	-2.1	0	0	986.6	NA	0.0000		9999	2620	0	0	0
2019/04/01 06:15:00	BASE	12.75	237	17.34	236	-0.6	89	-2.2	0	0	986.6	NA	0.0000		9999	2530	0	0	0
2019/04/01 06:16:00	BASE	12.85	236	17.34	236	-0.6	89	-2.2	0	0	986.6	NA	0.0000		9999	2430	0	0	0
2019/04/01 06:17:00	BASE	13.74	234	17.34	236	-0.6	88	-2.3	0	0	986.6	NA	0.0000		9999	2360	0	0	0
2019/04/01 06:18:00	BASE	13.66	235	17.34	236	-0.6	88	-2.3	0	0	986.6	NA	0.0000		9999	2360	2850	0	0
2019/04/01 06:19:00	BASE	13.44	238	17.34	236	-0.5	88	-2.3	0	0	986.6	NA	0.0000		9999	2330	0	0	0
2019/04/01 06:20:00	BASE	13.78	236	17.34	236	-0.5	88	-2.2	0	0	986.6	NA	0.0000		9999	2490	2990	0	0
2019/04/01 06:21:00	BASE	14.06	232	17.34	236	-0.5	89	-2.2	0	0	986.6	NA	0.0000		9999	2430	0	0	0
2019/04/01 06:22:00	BASE	13.98	236	17.34	236	-0.5	89	-2.1	0	0	986.7	NA	0.0000		9999	2690	0	0	0
2019/04/01 06:23:00	BASE	13.18	243	17.18	237	-0.5	89	-2.1	0	0	986.7	NA	0.0000		9999	2590	0	0	0
2019/04/01 06:24:00	BASE	13.55	248	17.18	237	-0.5	89	-2.1	0	0	986.7	NA	0.0000		9999	2430	0	0	0
2019/04/01 06:25:00	BASE	14.45	249	17.18	237	-0.5	89	-2.2	0	0	986.7	NA	0.0000		9999	2620	0	0	0
2019/04/01 06:26:00	BASE	14.46	250	17.18	237	-0.6	89	-2.2	0	0	986.7	NA	0.0000		9999	2790	0	0	0
2019/04/01 06:27:00	BASE	15.21	250	17.70	255	-0.6	88	-2.2	0	0	986.7	NA	0.0000		9999	2430	3180	0	0
2019/04/01 06:28:00	BASE	17.04	251	19.70	251	-0.6	88	-2.3	0	0	986.6	NA	0.0000		9999	2400	0	0	0
2019/04/01 06:29:00	BASE	17.69	250	19.70	251	-0.6	87	-2.4	0	0	986.7	NA	0.0000		9999	2760	0	0	0
2019/04/01 06:30:00	BASE	16.64	246	19.70	251	-0.6	87	-2.5	0	0	986.7	NA	0.0000		9999	2920	0	0	0
2019/04/01 06:31:00	BASE	16.88	241	19.70	251	-0.6	86	-2.6	0	0	986.7	NA	0.0000		9999	2890	0	0	0
2019/04/01 06:32:00	BASE	17.13	241	19.70	251	-0.6	85	-2.8	0	0	986.7	NA	0.0000		9999	3120	0	0	0
2019/04/01 06:33:00	BASE	15.43	245	19.70	251	-0.6	84	-2.9	0	0	986.7	NA	0.0000		9999	3080	0	0	0
2019/04/01 06:34:00	BASE	13.73	247	19.70	251	-0.6	83	-3.1	0	0	986.8	NA	0.0000		9999	3120	0	0	0
2019/04/01 06:35:00	BASE	14.38	244	19.70	251	-0.6	82	-3.2	0	0	986.8	NA	0.0000		9999	3310	0	0	0
2019/04/01 06:36:01	BASE	15.51	239	19.70	251	-0.6	82	-3.3	0	0	986.8	NA	0.0000		9999	3350	0	0	0
2019/04/01 06:37:00	BASE	15.63	237	19.70	251	-0.5	81	-3.4	0	0	986.8	NA	0.0000		9999	3250	0	0	0
2019/04/01 06:38:00	BASE	15.54	237	18.93	238	-0.5	81	-3.4	0	0	986.8	NA	0.0000		9999	3450	0	0	0
2019/04/01 06:39:00	BASE	15.10	237	18.93	238	-0.5	81	-3.4	0	0	986.8	NA	0.0000		9999	3410	3970	0	0
2019/04/01 06:40:00	BASE	14.74	234	18.93	238	-0.5	81	-3.4	0	0	986.8	NA	0.0000		9999	3380	0	0	0
2019/04/01 06:41:00	BASE	13.40	235	18.47	242	-0.5	81	-3.4	0	0	986.9	NA	0.0000		9999	3380	0	0	0
2019/04/01 06:42:00	BASE	11.24	239	18.11	235	-0.5	81	-3.4	0	0	986.9	NA	0.0000		9999	3380	0	0	0
2019/04/01 06:43:00	BASE	10.92	237	18.11	235	-0.5	81	-3.4	0	0	986.9	NA	0.0000		9999	3810	0	0	0
2019/04/01 06:44:00	BASE	12.19	233	18.11	235	-0.5	81	-3.4	0	0	986.9	NA	0.0000		9999	3480	0	0	0
2019/04/01 06:45:00	BASE	13.04	232	18.11	235	-0.5	81	-3.4	0	0	986.9	NA	0.0000		9999	3540	0	0	0
2019/04/01 06:46:00	BASE	12.55	236	18.11	235	-0.5	81	-3.4	0	0	987.0	NA	0.0000		9999	3380	0	0	0
2019/04/01 06:47:00	BASE	12.19	245	18.06	232	-0.5	81	-3.5	0	0	987.0	NA	0.0000		9999	3310	0	0	0
2019/04/01 06:48:00	BASE	13.26	244	16.82	238	-0.5	80	-3.5	0	0	987.0	NA	0.0000		9999	3280	0	0	0
2019/04/01 06:49:00	BASE	13.06	244	16.57	234	-0.5	80	-3.6	0	0	987.0	NA	0.0000		9999	3280	0	0	0
2019/04/01 06:50:00	BASE	11.61	249	15.38	242	-0.5	79	-3.7	0	0	987.0	NA	0.0000		9999	3120	0	0	0
2019/04/01 06:51:00	BASE	10.62	244	15.38	242	-0.5	79	-3.7	0	0	987.0	NA	0.0000		9999	3180	0	0	0
2019/04/01 06:52:00	BASE	10.03	239	15.38	242	-0.5	79	-3.7	0	0	987.1	NA	0.0000		9999	3050	0	0	0
2019/04/01 06:53:00	BASE	9.77	241	15.38	242	-0.5	79	-3.6	0	0	987.1	NA	0.0000		9999	2990	0	0	0
2019/04/01 06:54:00	BASE	10.07	242	15.38	242	-0.5	80	-3.6	0	0	987.0	NA	0.0000		9999	3120	0	0	0
2019/04/01 06:55:00	BASE	10.36	237	15.38	242	-0.5	80	-3.5	0	0	987.0	NA	0.0000		9999	2990	0	0	0
2019/04/01 06:56:00	BASE	10.15	231	15.38	242	-0.5	81	-3.5	0	0	987.0	NA	0.0000		9999	3050	0	0	0
2019/04/01 06:57:00	BASE	9.28	235	15.38	242	-0.5	81	-3.5	0	0	987.1	NA	0.0000		9999	2920	0	0	0
2019/04/01 06:58:00	BASE	9.19	242	14.15	241	-0.5	81	-3.5	0	0	987.1	NA	0.0000		9999	2850	0	0	0
2019/04/01 06:59:00	BASE	10.18	244	13.02	255	-0.5	81	-3.5	0	0	987.1	NA	0.0000		9999	2820	0	0	0
2019/04/01 07:00:00	BASE	9.94	240	12.30	237	-0.5	80	-3.5	0	0	987.1	NA	0.0000		9999	2760	0	0	0
2019/04/01 07:01:00	BASE	9.38	241	12.30	237	-0.5	80	-3.5	0	0	987.1	NA	0.0000		9999	2720	0	0	0
2019/04/01 07:02:00	BASE	8.67	240	12.30	237	-0.5	81	-3.4	0	0	987.2	NA	0.0000		9999	2620	0	0	0
2019/04/01 07:03:00	BASE	7.79	234	12.30	237	-0.5	81	-3.4	0	0	987.2	NA	0.0000		9999	1610	0	0	0
2019/04/01 07:04:00	BASE	8.75	236	11.99	240	-0.5	81	-3.3	0	0	987.2	NA	0.0000		9999	2820	0	0	0
2019/04/01 07:05:00	BASE	9.93	243	13.07	248	-0.5	82	-3.2	0	0	987.2	NA	0.0000		9999	2850	0	0	0
2019/04/01 07:06:00	BASE	10.07	244	13.07	248	-0.5	83	-3.0	0	0	987.2	NA	0.0000		9999	2850	0	0	0
2019/04/01 07:07:00	BASE	9.93	245	13.07	248	-0.5	83	-3.0	0	0	987.2	NA	0.0000		9999	1410	0	0	0
2019/04/01 07:08:00	BASE	10.79	245	14.71	237	-0.5	83	-3.0	0	0	987.2	NA	0.0000		9999	2820	0	0	0
2019/04/01 07:09:00	BASE	12.07	239	14.71	237	-0.5	83	-3.0	0	0	987.2	NA	0.0000		9999	2850	0	0	0
2019/04/01 07:10:00	BASE	13.59	234	17.44	230	-0.5	83	-3.0	0	0	987.2	NA	0.0000		9999	2820	0	0	0
2019/04/01 07:11:00	BASE	14.41	239	17.44	230	-0.5	82	-3.1	0	0	987.2	NA	0.0000		9999	3450	0	0	0
2019/04/01 07:12:00	BASE	12.87	242	17.44	230	-0.5	82	-3.2	0	0	987.3	NA	0.0000		9999	2850	0	0	0
2019/04/01 07:13:00	BASE	12.08	242	17.44	230	-0.4	81	-3.3	0	0	987.3	NA	0.0000		9999	2790	0	0	0
2019/04/01 07:14:00	BASE	12.75	244	17.44	230	-0.4	81	-3.3	0	0	987.3	NA	0.0000		9999	2760	0	0	0
2019/04/01 07:15:00	BASE	14.13	242	18.62	231	-0.4	81	-3.4	0	0	987.3	NA	0.0000		9999	2660	0	0	0
2019/04/01 07:16:00	BASE	14.08	241	18.62	231	-0.4	81	-3.3	0	0	987.3	NA	0.0000		9999	2850	0	0	0
2019/04/01 07:17:00	BASE	14.36	247	18.62	231	-0.4	81	-3.2	0	0	987.3	NA	0.0000		9999	3150	0	0	0
2019/04/01 07:18:00	BASE	15.50	246	18.62	231	-0.4	81	-3.2	0	0	987.3	NA	0.0000		9999	3150	0	0	0
2019/04/01 07:19:00	BASE	14.22	242	18.62	231	-0.4	81	-3.3	0	0	987.3	NA	0.0000		9999	2820	0	0	0
2019/04/01 07:20:00	BASE	12.27	243	18.62	231	-0.4	81	-3.3	0	0	987.4	NA	0.0000		9999	3250	0	0	0
2019/04/01 07:21:00	BASE	11.89	244	18.62	231	-0.5	80	-3.4	0	0	987.4	NA	0.0000		9999	3310	0	0	0
2019/04/01 07:23:00	BASE	13.68	242	18.62	231	-0.5	80	-3.5	0	0	987.3	NA	0.0000		9999	3480	0	0	0
2019/04/01 07:24:00	BASE	15.07	244	18.62	231	-0.5	79	-3.6	0	0	987.3	NA	0.0000		9999	3450	0	0	0
2019/04/01 07:25:00	BASE	16.23	247	18.62	245	-0.5	79	-3.7	0	0	987.3	NA	0.0000		9999	3480	0	0	0
2019/04/01 07:26:00	BASE	16.76	246	18.62	245	-0.5	78	-3.8	0	0	987.4	NA	0.0000		9999	3380	4400	0	0
2019/04/01 07:27:00	BASE	15.47	246	18.62	245	-0.5	77	-4.0	0	0	987.4	NA	0.0000		9999	3410	4100	0	0
2019/04/01 07:28:00	BASE	14.88	247	18.62	245	-0.5	75	-4.3	0	0	987.4	NA	0.0000		9999	3540	0	0	0
2019/04/01 07:29:00	BASE	14.26	248	18.62	245	-0.5	74	-4.5	0	0	987.5	NA	0.0000		9999	3480	0	0	0
2019/04/01 07:30:00	BASE	12.41	251	18.62	245	-0.5	73	-4.7	0	0	987.6	NA	0.0000		9999	3450	0	0	0
2019/04/01 07:31:00	BASE	11.84	253	18.62	245	-0.5	72	-4.9	0	0	987.6	NA	0.0000		9999	3310	0	0	0
2019/04/01 07:32:00	BASE	11.90	249	18.62	245	-0.5	72	-4.9	0	0	987.6	NA	0.0000		9999	3250	0	0	0
2019/04/01 07:33:00	BASE	12.20	245	18.62	245	-0.5	72	-5.0	0	0	987.6	NA	0.0000		9999	3150	0	0	0
2019/04/01 07:34:00	BASE	13.52	245	18.62	245	-0.5	72	-4.9	0	0	987.6	NA	0.0000		9999	3120	0	0	0
2019/04/01 07:35:00	BASE	13.41	246	18.21	245	-0.5	72	-4.9	0	0	987.6	NA	0.0000		9999	3080	0	0	0
2019/04/01 07:36:00	BASE	12.78	246	16.26	247	-0.5	73	-4.8	0	0	987.6	NA	0.0000		9999	3150	0	0	0
2019/04/01 07:37:00	BASE	12.30	245	16.26	247	-0.5	73	-4.8	0	0	987.7	NA	0.0000		9999	3220	0	0	0
2019/04/01 07:38:00	BASE	11.70	245	15.90	247	-0.5	73	-4.7	0	0	987.6	NA	0.0000		9999	3280	0	0	0
2019/04/01 07:39:00	BASE	12.91	245	15.90	247	-0.5	73	-4.7	0	0	987.7	NA	0.0000		9999	3380	0	0	0
2019/04/01 07:40:00	BASE	13.96	246	17.18	239	-0.5	74	-4.7	0	0	987.7	NA	0.0000		9999	3380	0	0	0
2019/04/01 07:41:00	BASE	14.52	244	18.42	229	-0.5	74	-4.6	0	0	987.7	NA	0.0000		9999	3670	0	0	0
2019/04/01 07:42:00	BASE	15.00	240	18.42	229	-0.5	73	-4.6	0	0	987.7	NA	0.0000		9999	3610	0	0	0
2019/04/01 07:43:00	BASE	14.75	241	18.42	229	-0.4	73	-4.7	0	0	987.7	NA	0.0000		9999	3770	0	0	0
2019/04/01 07:44:00	BASE	15.25	242	18.42	229	-0.4	73	-4.7	0	0	987.7	NA	0.0000		9999	3900	0	0	0
2019/04/01 07:45:00	BASE	15.51	240	18.42	229	-0.4	72	-4.8	0	0	987.8	NA	0.0000		9999	4040	0	0	0
2019/04/01 07:46:00	BASE	14.44	245	18.42	229	-0.4	72	-4.8	0	0	987.8	NA	0.0000		9999	3970	0	0	0
2019/04/01 07:47:00	BASE	14.14	249	18.42	229	-0.4	72	-4.8	0	0	987.8	NA	0.0000		9999	4170	0	0	0
2019/04/01 07:48:00	BASE	14.86	249	18.42	229	-0.4	72	-4.8	0	0	987.9	NA	0.0000		9999	4200	0	0	0
2019/04/01 07:49:00	BASE	15.54	248	18.42	229	-0.4	72	-4.8	0	0	987.9	NA	0.0000		9999	3150	4300	0	0
2019/04/01 07:50:00	BASE	15.34	248	18.42	229	-0.4	72	-4.8	0	0	987.9	NA	0.0000		9999	3120	4130	0	0
2019/04/01 07:51:00	BASE	15.04	250	18.31	247	-0.4	72	-4.8	0	0	987.9	NA	0.0000		9999	3900	0	0	0
2019/04/01 07:52:00	BASE	16.43	252	20.06	249	-0.4	72	-4.9	0	0	987.9	NA	0.0000		9999	3080	3940	0	0
2019/04/01 07:53:00	BASE	18.15	251	20.94	250	-0.4	72	-4.9	0	0	987.9	NA	0.0000		9999	2820	0	0	0
2019/04/01 07:54:00	BASE	17.63	248	20.94	250	-0.5	72	-4.8	0	0	987.9	NA	0.0000		9999	2690	3640	0	0
2019/04/01 07:55:00	BASE	15.94	244	20.94	250	-0.5	73	-4.7	0	0	988.0	NA	0.0000		9999	2760	3480	4300	0
2019/04/01 07:56:00	BASE	14.63	244	20.94	250	-0.5	74	-4.6	0	0	988.0	NA	0.0000		9999	3900	0	0	0
2019/04/01 07:57:00	BASE	14.61	245	20.94	250	-0.5	75	-4.4	0	0	988.0	NA	0.0000		9999	4300	0	0	0
2019/04/01 07:58:00	BASE	14.39	246	20.94	250	-0.5	76	-4.3	0	0	988.0	NA	0.0000		9999	4630	0	0	0
2019/04/01 07:59:00	BASE	13.26	247	20.94	250	-0.5	77	-4.0	0	0	988.0	NA	0.0000		9999	4530	0	0	0
2019/04/01 08:00:00	BASE	12.25	248	20.94	250	-0.5	78	-3.8	0	0	988.0	NA	0.0000		9999	5050	6070	0	0
2019/04/01 08:01:00	BASE	12.90	246	20.94	250	-0.5	79	-3.7	0	0	988.1	NA	0.0000		9999	4760	6000	0	0
2019/04/01 08:02:00	BASE	13.60	247	20.94	250	-0.5	80	-3.6	0	0	988.1	NA	0.0000		9999	4950	0	0	0
2019/04/01 08:03:00	BASE	13.23	248	19.03	248	-0.5	80	-3.5	0	0	988.1	NA	0.0000		9999	2720	4660	0	0
2019/04/01 08:04:00	BASE	14.49	248	17.08	238	-0.5	80	-3.4	0	0	988.1	NA	0.0000		9999	2620	0	0	0
2019/04/01 08:05:00	BASE	14.65	249	16.82	237	-0.5	80	-3.4	0	0	988.1	NA	0.0000		9999	4070	0	0	0
2019/04/01 08:06:00	BASE	13.86	244	16.82	237	-0.5	80	-3.4	0	0	988.1	NA	0.0000		9999	2690	0	0	0
2019/04/01 08:07:00	BASE	13.53	240	16.82	237	-0.4	80	-3.4	0	0	988.2	NA	0.0000		9999	2620	0	0	0
2019/04/01 08:08:00	BASE	13.22	244	16.82	237	-0.4	80	-3.4	0	0	988.2	NA	0.0000		9999	2620	3410	0	0
2019/04/01 08:09:00	BASE	14.12	249	16.82	237	-0.4	80	-3.4	0	0	988.2	NA	0.0000		9999	2490	0	0	0
2019/04/01 08:10:00	BASE	13.95	247	16.82	237	-0.4	81	-3.3	0	0	988.2	NA	0.0000		9999	2260	0	0	0
2019/04/01 08:11:00	BASE	13.37	240	16.31	243	-0.4	81	-3.3	0	0	988.2	NA	0.0000		9999	2260	0	0	0
2019/04/01 08:12:00	BASE	13.49	236	16.31	243	-0.4	82	-3.2	0	0	988.2	NA	0.0000		9999	1150	0	0	0
2019/04/01 08:13:00	BASE	14.02	234	19.14	235	-0.4	82	-3.0	0	0	988.2	NA	0.0000	UP	9999	390	0	0	0
2019/04/01 08:14:00	BASE	16.05	231	19.14	235	-0.4	83	-2.9	0	0	988.2	NA	0.0000	UP	6000	330	0	0	0
2019/04/01 08:15:00	BASE	16.16	231	19.14	235	-0.5	85	-2.8	0	0	988.3	NA	0.0000	UP	4700	300	2230	0	0
2019/04/01 08:16:00	BASE	14.36	235	19.14	235	-0.5	86	-2.6	0	0	988.3	NA	0.0000	UP BR	3500	0	0	0	4760
2019/04/01 08:17:00	BASE	12.36	235	19.14	235	-0.6	87	-2.5	0	0	988.3	NA	0.0000	-SN BR	4800	4000	0	0	0
2019/04/01 08:18:00	BASE	10.84	236	19.14	235	-0.7	88	-2.4	0	0	988.4	NA	0.0000	-SN BR	9000	2990	0	0	0
2019/04/01 08:19:00	BASE	10.95	239	19.14	235	-0.7	89	-2.3	0	0	988.4	NA	0.0000	-SN BR	9999	2490	0	0	0
2019/04/01 08:20:00	BASE	10.94	239	19.14	235	-0.8	90	-2.2	0	0	988.4	NA	0.0000	-SN BR	9999	2330	5740	0	0
2019/04/01 08:21:00	BASE	10.97	239	19.14	235	-0.8	91	-2.1	0	0	988.4	NA	0.0000	-SN BR	9999	5280	6040	0	0
2019/04/01 08:22:00	BASE	11.88	240	19.14	235	-0.8	92	-2.0	0	0	988.4	NA	0.0000	-SN BR	9999	2560	5940	0	0
2019/04/01 08:23:00	BASE	12.86	237	18.21	226	-0.8	92	-1.9	0	0	988.4	NA	0.0000	-SN BR	9999	2490	4270	4860	0
2019/04/01 08:24:00	BASE	12.41	237	16.51	232	-0.8	93	-1.8	0	0	988.4	NA	0.0000	-SN BR	9999	2660	0	0	0
2019/04/01 08:25:00	BASE	11.72	236	16.41	232	-0.7	93	-1.7	0	0	988.4	NA	0.0000	-SN BR	9999	2490	3810	0	0
2019/04/01 08:26:00	BASE	11.79	232	14.97	238	-0.7	93	-1.6	0	0	988.4	NA	0.0000	-SN	9999	2330	0	0	0
2019/04/01 08:27:00	BASE	12.39	232	15.74	230	-0.6	93	-1.6	0	0	988.4	NA	0.0000		9999	1640	0	0	0
2019/04/01 08:28:00	BASE	14.41	229	17.29	231	-0.6	93	-1.6	0	0	988.4	NA	0.0000		9999	2360	0	0	0
2019/04/01 08:29:00	BASE	15.04	229	17.29	231	-0.6	92	-1.6	0	0	988.4	NA	0.0000		9999	2530	0	0	0
2019/04/01 08:30:00	BASE	13.97	229	17.29	231	-0.6	92	-1.7	0	0	988.4	NA	0.0000		9999	2300	3580	0	0
2019/04/01 08:31:00	BASE	13.99	229	17.29	231	-0.6	91	-1.8	0	0	988.4	NA	0.0000		9999	2260	0	0	0
2019/04/01 08:32:00	BASE	13.80	228	17.29	231	-0.6	91	-1.9	0	0	988.5	NA	0.0000		9999	2230	3610	0	0
2019/04/01 08:33:00	BASE	11.88	228	17.29	231	-0.6	90	-1.9	0	0	988.5	NA	0.0000		9999	2560	3220	0	0
2019/04/01 08:34:00	BASE	10.58	228	17.29	231	-0.5	90	-1.9	0	0	988.5	NA	0.0000		9999	2330	0	0	0
2019/04/01 08:35:00	BASE	11.01	224	17.29	231	-0.5	90	-1.9	0	0	988.5	NA	0.0000		9999	4270	0	0	0
2019/04/01 08:36:00	BASE	12.68	225	17.29	231	-0.5	91	-1.8	0	0	988.5	NA	0.0000		9999	4300	0	0	0
2019/04/01 08:37:00	BASE	13.12	227	17.29	231	-0.5	91	-1.8	0	0	988.5	NA	0.0000		9999	4820	0	0	0
2019/04/01 08:38:00	BASE	12.50	230	16.51	234	-0.5	91	-1.8	0	0	988.5	NA	0.0000		9999	3940	4760	0	0
2019/04/01 08:39:00	BASE	10.92	231	15.74	233	-0.5	91	-1.9	0	0	988.5	NA	0.0000		9999	3310	0	0	0
2019/04/01 08:40:00	BASE	10.53	229	15.74	233	-0.6	90	-1.9	0	0	988.5	NA	0.0000		9999	2660	3410	0	0
2019/04/01 08:41:00	BASE	12.00	229	14.66	228	-0.6	90	-2.0	0	0	988.6	NA	0.0000		9999	2530	0	0	0
2019/04/01 08:42:00	BASE	12.05	228	14.66	228	-0.6	90	-2.0	0	0	988.7	NA	0.0000		9999	2330	0	0	0
2019/04/01 08:43:00	BASE	12.66	229	14.71	226	-0.6	90	-2.0	0	0	988.6	NA	0.0000		9999	2230	0	0	0
2019/04/01 08:44:00	BASE	13.86	227	16.00	225	-0.6	90	-2.0	0	0	988.7	NA	0.0000		9999	2230	0	0	0
2019/04/01 08:45:00	BASE	13.93	224	16.00	225	-0.6	90	-2.0	0	0	988.7	NA	0.0000		9999	2170	0	0	0
2019/04/01 08:46:00	BASE	13.78	224	16.00	225	-0.6	90	-2.0	0	0	988.7	NA	0.0000		9999	2170	2920	0	0
2019/04/01 08:47:00	BASE	13.39	231	16.00	225	-0.5	90	-2.0	0	0	988.8	NA	0.0000		9999	2360	3020	0	0
2019/04/01 08:48:00	BASE	11.60	239	16.00	225	-0.5	89	-2.1	0	0	988.8	NA	0.0000		9999	2560	0	0	0
2019/04/01 08:49:00	BASE	10.62	243	16.00	225	-0.5	89	-2.1	0	0	988.9	NA	0.0000		9999	2720	0	0	0
2019/04/01 08:50:00	BASE	12.27	246	16.05	242	-0.5	89	-2.1	0	0	988.8	NA	0.0000		9999	2720	0	0	0
2019/04/01 08:51:00	BASE	13.75	250	16.05	242	-0.5	89	-2.1	0	0	988.9	NA	0.0000		9999	2620	0	0	0
2019/04/01 08:52:00	BASE	14.86	251	18.21	243	-0.5	89	-2.2	0	0	988.8	NA	0.0000		9999	2590	0	0	0
2019/04/01 08:53:00	BASE	16.52	250	18.42	253	-0.5	88	-2.2	0	0	988.8	NA	0.0000		9999	2590	4100	0	0
2019/04/01 08:54:00	BASE	15.85	247	18.42	253	-0.5	88	-2.3	0	0	988.9	NA	0.0000		9999	2460	0	0	0
2019/04/01 08:55:00	BASE	14.68	242	18.42	253	-0.5	87	-2.3	0	0	988.9	NA	0.0000		9999	2590	0	0	0
2019/04/01 08:56:00	BASE	13.27	241	18.42	253	-0.5	87	-2.4	0	0	989.0	NA	0.0000		9999	2690	0	0	0
2019/04/01 08:57:00	BASE	11.17	244	18.42	253	-0.4	87	-2.3	0	0	989.0	NA	0.0000		9999	2690	0	0	0
2019/04/01 08:58:00	BASE	12.45	245	18.42	253	-0.4	87	-2.3	0	0	988.9	NA	0.0000		9999	2690	0	0	0
2019/04/01 08:59:00	BASE	14.11	244	18.42	253	-0.4	87	-2.3	0	0	988.9	NA	0.0000		9999	2850	0	0	0
2019/04/01 09:00:00	BASE	13.57	244	18.42	253	-0.4	86	-2.4	0	0	989.0	NA	0.0000		9999	3150	0	0	0
2019/04/01 09:01:00	BASE	13.16	245	18.42	253	-0.4	86	-2.5	0	0	989.0	NA	0.0000		9999	3020	0	0	0
2019/04/01 09:02:00	BASE	13.81	247	18.42	253	-0.4	86	-2.6	0	0	989.0	NA	0.0000		9999	2920	0	0	0
2019/04/01 09:03:00	BASE	14.30	245	16.82	235	-0.4	85	-2.6	0	0	989.0	NA	0.0000		9999	2890	0	0	0
2019/04/01 09:04:00	BASE	13.31	243	16.82	235	-0.4	85	-2.7	0	0	989.1	NA	0.0000		9999	2660	0	0	0
2019/04/01 09:05:00	BASE	13.81	247	17.18	253	-0.4	84	-2.7	0	0	989.0	NA	0.0000		9999	2950	4000	0	0
2019/04/01 09:06:00	BASE	14.57	246	17.18	253	-0.4	84	-2.8	0	0	989.0	NA	0.0000		9999	2790	0	0	0
2019/04/01 09:07:00	BASE	14.79	246	17.65	255	-0.4	84	-2.8	0	0	989.0	NA	0.0000		9999	2820	0	0	0
2019/04/01 09:08:00	BASE	16.31	247	19.14	245	-0.4	83	-2.9	0	0	989.0	NA	0.0000		9999	2950	3770	0	0
2019/04/01 09:09:00	BASE	15.64	247	19.14	245	-0.4	83	-2.9	0	0	989.1	NA	0.0000		9999	3380	0	0	0
2019/04/01 09:10:00	BASE	14.72	250	19.14	245	-0.4	83	-3.0	0	0	989.1	NA	0.0000		9999	3450	0	0	0
2019/04/01 09:11:00	BASE	15.41	248	19.14	245	-0.4	82	-3.0	0	0	989.1	NA	0.0000		9999	3310	0	0	0
2019/04/01 09:12:00	BASE	14.66	245	19.14	245	-0.4	82	-3.1	0	0	989.1	NA	0.0000		9999	3480	0	0	0
2019/04/01 09:13:00	BASE	13.86	248	19.14	245	-0.4	82	-3.0	0	0	989.1	NA	0.0000		9999	3220	0	0	0
2019/04/01 09:14:00	BASE	14.68	251	19.14	245	-0.4	82	-3.0	0	0	989.1	NA	0.0000		9999	2720	0	0	0
2019/04/01 09:15:00	BASE	15.78	247	19.24	244	-0.4	83	-3.0	0	0	989.1	NA	0.0000		9999	3280	4130	0	0
2019/04/01 09:16:00	BASE	14.37	248	19.24	244	-0.4	83	-3.0	0	0	989.2	NA	0.0000		9999	3410	4000	0	0
2019/04/01 09:17:00	BASE	14.26	250	19.24	244	-0.3	83	-3.0	0	0	989.2	NA	0.0000		9999	3840	0	0	0
2019/04/01 09:18:00	BASE	16.26	245	19.24	244	-0.4	82	-3.0	0	0	989.1	NA	0.0000		9999	3250	4590	0	0
2019/04/01 09:19:00	BASE	16.17	245	19.24	244	-0.4	82	-3.1	0	0	989.2	NA	0.0000		9999	4460	0	0	0
2019/04/01 09:20:00	BASE	16.13	245	19.24	244	-0.4	82	-3.1	0	0	989.2	NA	0.0000		9999	3050	4660	5280	0
2019/04/01 09:21:00	BASE	15.84	241	19.24	244	-0.4	81	-3.2	0	0	989.2	NA	0.0000		9999	4100	4790	0	0
2019/04/01 09:22:00	BASE	13.76	241	19.24	244	-0.4	81	-3.2	0	0	989.2	NA	0.0000		9999	4100	5480	0	0
2019/04/01 09:23:00	BASE	12.90	241	19.24	244	-0.3	81	-3.2	0	0	989.3	NA	0.0000		9999	4100	0	0	0
2019/04/01 09:24:00	BASE	12.99	241	19.24	244	-0.3	82	-3.1	0	0	989.4	NA	0.0000		9999	3450	0	0	0
2019/04/01 09:25:00	BASE	13.26	241	18.37	257	-0.3	82	-3.0	0	0	989.3	NA	0.0000		9999	3250	3740	0	0
2019/04/01 09:26:00	BASE	14.39	242	18.37	257	-0.3	83	-2.9	0	0	989.3	NA	0.0000		9999	3080	3640	0	0
2019/04/01 09:27:00	BASE	13.90	242	18.16	242	-0.3	83	-2.8	0	0	989.4	NA	0.0000		9999	3610	4760	0	0
2019/04/01 09:28:00	BASE	13.13	241	18.16	242	-0.3	83	-2.8	0	0	989.4	NA	0.0000		9999	2920	4630	0	0
2019/04/01 09:29:00	BASE	12.66	241	18.16	242	-0.3	83	-2.8	0	0	989.4	NA	0.0000		9999	4360	5180	0	0
2019/04/01 09:30:00	BASE	11.60	243	16.67	238	-0.3	83	-2.8	0	0	989.4	NA	0.0000		9999	4360	5050	0	0
2019/04/01 09:31:00	BASE	12.71	247	16.31	237	-0.3	83	-2.8	0	0	989.4	NA	0.0000		9999	5020	0	0	0
2019/04/01 09:32:00	BASE	14.15	246	16.31	237	-0.3	83	-2.8	0	0	989.4	NA	0.0000		9999	2890	5120	0	0
2019/04/01 09:33:00	BASE	13.87	242	16.20	251	-0.3	83	-2.8	0	0	989.4	NA	0.0000		9999	2760	4990	0	0
2019/04/01 09:34:00	BASE	12.99	244	16.20	251	-0.3	83	-2.8	0	0	989.5	NA	0.0000		9999	3050	4920	0	0
2019/04/01 09:35:00	BASE	12.61	247	16.20	251	-0.3	83	-2.8	0	0	989.5	NA	0.0000		9999	4070	4530	0	0
2019/04/01 09:36:00	BASE	13.33	247	16.98	252	-0.3	83	-2.8	0	0	989.5	NA	0.0000		9999	3080	4100	0	0
2019/04/01 09:37:00	BASE	13.97	247	16.98	252	-0.3	83	-2.9	0	0	989.5	NA	0.0000		9999	2820	4860	0	0
2019/04/01 09:38:00	BASE	13.89	245	16.98	252	-0.3	83	-2.9	0	0	989.5	NA	0.0000		9999	2720	4230	0	0
2019/04/01 09:39:00	BASE	14.10	245	17.34	245	-0.3	82	-3.0	0	0	989.5	NA	0.0000		9999	2720	0	0	0
2019/04/01 09:40:00	BASE	14.71	247	17.34	245	-0.3	82	-3.0	0	0	989.5	NA	0.0000		9999	4790	0	0	0
2019/04/01 09:41:00	BASE	15.07	249	17.34	245	-0.3	81	-3.1	0	0	989.5	NA	0.0000		9999	4660	0	0	0
2019/04/01 09:42:00	BASE	15.29	249	17.34	245	-0.3	81	-3.2	0	0	989.5	NA	0.0000		9999	4400	0	0	0
2019/04/01 09:43:00	BASE	15.17	246	17.34	245	-0.3	81	-3.2	0	0	989.5	NA	0.0000		9999	4200	0	0	0
2019/04/01 09:44:00	BASE	15.73	244	17.54	242	-0.3	80	-3.3	0	0	989.5	NA	0.0000		9999	4130	0	0	0
2019/04/01 09:45:00	BASE	15.37	243	17.54	242	-0.3	80	-3.3	0	0	989.5	NA	0.0000		9999	5090	0	0	0
2019/04/01 09:46:00	BASE	14.60	244	17.54	242	-0.3	80	-3.4	0	0	989.6	NA	0.0000		9999	5050	8460	0	0
2019/04/01 09:47:00	BASE	14.55	247	17.65	245	-0.3	79	-3.4	0	0	989.6	NA	0.0000		9999	5280	8460	0	0
2019/04/01 09:48:00	BASE	15.02	247	17.75	245	-0.3	79	-3.4	0	0	989.6	NA	0.0000		9999	5350	8430	0	0
2019/04/01 09:49:00	BASE	14.67	242	17.75	245	-0.3	79	-3.4	0	0	989.6	NA	0.0000		9999	3510	4990	0	0
2019/04/01 09:50:00	BASE	13.55	243	17.75	245	-0.3	80	-3.4	0	0	989.6	NA	0.0000		9999	3280	4920	0	0
2019/04/01 09:51:00	BASE	14.35	246	17.75	245	-0.3	80	-3.3	0	0	989.7	NA	0.0000		9999	4760	0	0	0
2019/04/01 09:52:00	BASE	14.25	246	17.75	245	-0.3	81	-3.2	0	0	989.7	NA	0.0000		9999	4690	0	0	0
2019/04/01 09:53:00	BASE	13.02	246	17.75	245	-0.3	81	-3.2	0	0	989.7	NA	0.0000		9999	3350	4630	0	0
2019/04/01 09:54:00	BASE	13.00	246	17.75	245	-0.3	81	-3.1	0	0	989.7	NA	0.0000		9999	4530	0	0	0
2019/04/01 09:55:00	BASE	12.96	243	17.75	245	-0.3	82	-3.1	0	0	989.7	NA	0.0000		9999	4330	0	0	0
2019/04/01 09:56:00	BASE	12.48	241	17.75	245	-0.3	82	-3.0	0	0	989.7	NA	0.0000		9999	4230	0	0	0
2019/04/01 09:57:00	BASE	12.21	241	17.75	245	-0.3	82	-3.0	0	0	989.7	NA	0.0000		9999	4040	0	0	0
2019/04/01 09:58:00	BASE	12.30	239	17.39	246	-0.3	82	-3.0	0	0	989.7	NA	0.0000		9999	4300	0	0	0
2019/04/01 09:59:00	BASE	12.06	241	17.39	246	-0.3	82	-2.9	0	0	989.7	NA	0.0000		9999	4230	0	0	0
2019/04/01 10:00:00	BASE	12.48	245	17.39	246	-0.3	83	-2.9	0	0	989.7	NA	0.0000		9999	4460	0	0	0
2019/04/01 10:01:00	BASE	13.54	245	15.74	242	-0.3	83	-2.9	0	0	989.7	NA	0.0000		9999	4400	0	0	0
2019/04/01 10:02:00	BASE	13.15	245	15.64	245	-0.3	83	-2.9	0	0	989.7	NA	0.0000		9999	4360	0	0	0
2019/04/01 10:03:00	BASE	11.96	247	15.07	250	-0.3	83	-2.9	0	0	989.7	NA	0.0000		9999	4400	0	0	0
2019/04/01 10:04:00	BASE	11.64	246	14.76	242	-0.3	82	-2.9	0	0	989.7	NA	0.0000		9999	4430	0	0	0
2019/04/01 10:05:00	BASE	11.07	244	14.76	242	-0.3	82	-2.9	0	0	989.7	NA	0.0000		9999	4400	0	0	0
2019/04/01 10:06:00	BASE	10.46	245	14.76	242	-0.3	82	-2.9	0	0	989.7	NA	0.0000		9999	4300	0	0	0
2019/04/01 10:07:00	BASE	10.81	249	14.76	242	-0.3	83	-2.9	0	0	989.7	NA	0.0000		9999	4200	0	0	0
2019/04/01 10:08:00	BASE	11.43	249	14.76	242	-0.3	83	-2.9	0	0	989.7	NA	0.0000		9999	2660	4590	0	0
2019/04/01 10:09:00	BASE	11.46	247	14.76	242	-0.3	83	-2.8	0	0	989.7	NA	0.0000		9999	4560	5250	0	0
2019/04/01 10:10:00	BASE	10.94	249	14.76	242	-0.3	83	-2.8	0	0	989.7	NA	0.0000		9999	5050	0	0	0
2019/04/01 10:11:00	BASE	12.07	249	15.07	247	-0.3	84	-2.7	0	0	989.7	NA	0.0000		9999	5050	0	0	0
2019/04/01 10:12:00	BASE	12.29	247	15.07	247	-0.3	84	-2.7	0	0	989.7	NA	0.0000		9999	4890	0	0	0
2019/04/01 10:13:00	BASE	11.34	248	15.07	247	-0.3	84	-2.7	0	0	989.7	NA	0.0000		9999	4790	0	0	0
2019/04/01 10:14:00	BASE	10.88	245	15.07	247	-0.3	83	-2.8	0	0	989.7	NA	0.0000		9999	4460	0	0	0
2019/04/01 10:15:00	BASE	10.34	245	15.07	247	-0.3	83	-2.9	0	0	989.8	NA	0.0000		9999	4530	0	0	0
2019/04/01 10:16:00	BASE	10.14	249	15.07	247	-0.3	82	-3.0	0	0	989.8	NA	0.0000		9999	4560	0	0	0
2019/04/01 10:17:00	BASE	10.29	249	15.07	247	-0.3	82	-3.0	0	0	989.8	NA	0.0000		9999	4530	0	0	0
2019/04/01 10:18:00	BASE	11.01	245	15.07	247	-0.3	81	-3.1	0	0	989.8	NA	0.0000		9999	4590	0	0	0
2019/04/01 10:19:00	BASE	11.10	242	15.07	247	-0.3	81	-3.1	0	0	989.8	NA	0.0000		9999	4790	0	0	0
2019/04/01 10:20:00	BASE	10.73	242	15.07	247	-0.3	81	-3.1	0	0	989.8	NA	0.0000		9999	4720	0	0	0
2019/04/01 10:21:00	BASE	10.54	241	12.81	251	-0.2	81	-3.1	0	0	989.8	NA	0.0000		9999	4490	0	0	0
2019/04/01 10:22:00	BASE	9.59	238	12.81	251	-0.2	81	-3.1	0	0	989.8	NA	0.0000		9999	4490	0	0	0
2019/04/01 10:23:00	BASE	8.28	237	12.30	239	-0.2	81	-3.0	0	0	989.8	NA	0.0000		9999	4430	0	0	0
2019/04/01 10:24:00	BASE	7.61	240	12.30	239	-0.2	81	-3.0	0	0	989.7	NA	0.0000		9999	4530	0	0	0
2019/04/01 10:25:00	BASE	7.93	240	12.30	239	-0.2	82	-2.9	0	0	989.7	NA	0.0000		9999	4430	0	0	0
2019/04/01 10:26:00	BASE	8.79	235	12.30	239	-0.2	82	-2.9	0	0	989.7	NA	0.0000		9999	4460	0	0	0
2019/04/01 10:27:00	BASE	9.64	227	12.30	239	-0.2	82	-2.9	0	0	989.7	NA	0.0000		9999	4430	0	0	0
2019/04/01 10:28:00	BASE	9.77	222	12.30	239	-0.2	82	-2.9	0	0	989.7	NA	0.0000		9999	4630	5380	0	0
2019/04/01 10:29:00	BASE	9.70	226	11.73	223	-0.2	82	-2.8	0	0	989.7	NA	0.0000		9999	4560	0	0	0
2019/04/01 10:30:00	BASE	10.36	225	12.55	221	-0.1	82	-2.8	0	0	989.7	NA	0.0000		9999	4530	5120	0	0
2019/04/01 10:31:00	BASE	10.80	223	12.55	221	-0.1	83	-2.7	0	0	989.7	NA	0.0000		9999	4360	0	0	0
2019/04/01 10:32:00	BASE	10.74	224	12.55	221	-0.1	83	-2.7	1	0	989.7	NA	0.0000		9999	4660	0	0	0
2019/04/01 10:33:00	BASE	10.48	229	13.17	235	-0.1	83	-2.6	1	0	989.7	NA	0.0000		9999	4630	0	0	0
2019/04/01 10:34:00	BASE	10.54	233	13.17	235	-0.1	83	-2.7	1	0	989.8	NA	0.0000		9999	4660	0	0	0
2019/04/01 10:35:00	BASE	11.20	231	13.79	232	-0.1	83	-2.7	1	0	989.8	NA	0.0000		9999	4720	0	0	0
2019/04/01 10:36:00	BASE	11.09	231	13.79	232	-0.2	83	-2.8	1	0	989.8	NA	0.0000		9999	4820	0	0	0
2019/04/01 10:37:00	BASE	10.25	235	13.79	232	-0.2	82	-2.8	1	0	989.8	NA	0.0000		9999	4720	0	0	0
2019/04/01 10:38:00	BASE	10.44	240	13.79	232	-0.2	82	-2.8	1	0	989.8	NA	0.0000		9999	4820	0	0	0
2019/04/01 10:39:00	BASE	11.30	241	13.79	232	-0.2	82	-2.8	1	0	989.8	NA	0.0000		9999	4660	0	0	0
2019/04/01 10:40:00	BASE	11.10	239	13.79	232	-0.2	82	-2.8	1	0	989.9	NA	0.0000		9999	4760	0	0	0
2019/04/01 10:41:00	BASE	9.48	238	13.79	232	-0.2	82	-2.8	1	0	989.9	NA	0.0000		9999	4950	0	0	0
2019/04/01 10:42:00	BASE	9.63	241	13.79	232	-0.2	82	-2.9	1	0	989.9	NA	0.0000		9999	4860	0	0	0
2019/04/01 10:43:00	BASE	11.04	242	13.79	232	-0.2	82	-2.9	1	0	989.9	NA	0.0000		9999	4990	0	0	0
2019/04/01 10:44:00	BASE	11.46	241	13.79	232	-0.2	82	-2.9	1	0	989.9	NA	0.0000		9999	4990	0	0	0
2019/04/01 10:45:00	BASE	10.64	242	13.68	230	-0.2	82	-2.9	2	0	989.9	NA	0.0000		9999	4890	0	0	0
2019/04/01 10:46:00	BASE	10.38	241	13.12	240	-0.2	82	-2.9	2	0	989.9	NA	0.0000		9999	5020	0	0	0
2019/04/01 10:47:00	BASE	10.96	240	13.12	240	-0.2	82	-2.9	2	0	989.9	NA	0.0000		9999	4950	0	0	0
2019/04/01 10:48:00	BASE	10.68	241	13.12	240	-0.2	82	-2.9	2	0	989.9	NA	0.0000		9999	4790	0	0	0
2019/04/01 10:49:00	BASE	10.34	241	12.91	239	-0.2	82	-3.0	2	0	989.9	NA	0.0000		9999	4790	0	0	0
2019/04/01 10:50:00	BASE	9.82	240	12.91	239	-0.2	81	-3.0	2	0	989.9	NA	0.0000		9999	4820	0	0	0
2019/04/01 10:51:00	BASE	9.94	245	12.91	239	-0.2	81	-3.0	2	0	989.9	NA	0.0000		9999	4690	0	0	0
2019/04/01 10:52:00	BASE	9.49	249	12.91	239	-0.2	81	-3.1	2	0	989.9	NA	0.0000		9999	4790	0	0	0
2019/04/01 10:53:00	BASE	8.81	247	12.91	239	-0.2	81	-3.0	2	0	989.9	NA	0.0000		9999	5020	0	0	0
2019/04/01 10:54:01	BASE	8.99	247	12.71	239	-0.2	81	-3.0	2	0	989.9	NA	0.0000		9999	5050	0	0	0
2019/04/01 10:55:00	BASE	8.79	249	12.71	239	-0.2	82	-3.0	2	0	989.9	NA	0.0000		9999	4950	0	0	0
2019/04/01 10:56:00	BASE	8.44	247	12.55	243	-0.2	82	-2.9	2	0	989.9	NA	0.0000		9999	4690	5380	0	0
2019/04/01 10:57:00	BASE	7.90	244	11.73	248	-0.2	82	-2.9	2	0	989.9	NA	0.0000		9999	4530	0	0	0
2019/04/01 10:58:00	BASE	7.61	243	11.73	248	-0.2	82	-2.9	2	0	989.9	NA	0.0000		9999	4560	0	0	0
2019/04/01 10:59:00	BASE	7.73	241	11.73	248	-0.2	82	-2.9	2	0	989.9	NA	0.0000		9999	4630	0	0	0
2019/04/01 11:00:00	BASE	7.69	241	11.73	248	-0.2	82	-2.9	2	0	989.9	NA	0.0000		9999	4630	0	0	0
2019/04/01 11:01:01	BASE	7.77	240	10.49	245	-0.2	82	-2.9	2	0	990.0	NA	0.0000		9999	4590	0	0	0
2019/04/01 11:02:00	BASE	8.56	239	10.49	245	-0.2	82	-2.8	2	0	990.0	NA	0.0000		9999	4690	0	0	0
2019/04/01 11:03:00	BASE	8.79	242	10.49	245	-0.2	83	-2.8	3	0	990.0	NA	0.0000		9999	4660	0	0	0
2019/04/01 11:04:00	BASE	8.69	244	10.49	245	-0.2	83	-2.7	3	0	990.0	NA	0.0000		9999	4590	0	0	0
2019/04/01 11:05:00	BASE	8.41	242	10.34	236	-0.2	83	-2.7	3	0	990.0	NA	0.0000		9999	4460	0	0	0
2019/04/01 11:06:00	BASE	7.41	242	10.34	236	-0.2	83	-2.7	3	0	990.1	NA	0.0000		9999	4530	0	0	0
2019/04/01 11:07:00	BASE	7.44	241	10.34	236	-0.2	83	-2.7	4	0	990.0	NA	0.0000		9999	4490	0	0	0
2019/04/01 11:08:00	BASE	7.44	239	10.34	236	-0.2	83	-2.7	4	0	990.0	NA	0.0000		9999	4920	0	0	0
2019/04/01 11:09:00	BASE	7.14	240	10.34	236	-0.2	83	-2.7	5	0	990.0	NA	0.0000		9999	4460	0	0	0
2019/04/01 11:10:01	BASE	7.61	241	10.34	236	-0.2	83	-2.7	5	0	990.0	NA	0.0000		9999	4720	0	0	0
2019/04/01 11:11:01	BASE	8.04	238	10.34	236	-0.2	83	-2.6	6	0	990.1	NA	0.0000		9999	4270	0	0	0
2019/04/01 11:12:01	BASE	8.09	235	9.77	240	-0.1	84	-2.6	6	0	990.1	NA	0.0000		9999	4330	0	0	0
2019/04/01 11:13:01	BASE	8.05	236	9.77	240	-0.1	84	-2.5	6	0	990.0	NA	0.0000		9999	4270	0	0	0
2019/04/01 11:14:01	BASE	8.91	233	10.96	233	-0.1	84	-2.5	6	0	990.0	NA	0.0000		9999	4170	0	0	0
2019/04/01 11:15:01	BASE	9.86	232	10.96	233	-0.1	84	-2.5	6	0	990.0	NA	0.0000		9999	4100	4890	0	0
2019/04/01 11:16:01	BASE	9.83	230	10.96	233	-0.1	83	-2.6	5	0	990.1	NA	0.0000		9999	3940	4630	0	0
2019/04/01 11:17:00	BASE	9.37	230	10.96	233	-0.1	83	-2.6	4	0	990.1	NA	0.0000		9999	3870	0	0	0
2019/04/01 11:18:00	BASE	8.73	233	10.96	233	-0.1	83	-2.7	4	0	990.1	NA	0.0000		9999	3710	0	0	0
2019/04/01 11:19:00	BASE	8.08	237	10.96	233	-0.1	83	-2.7	3	0	990.1	NA	0.0000		9999	3810	0	0	0
2019/04/01 11:20:00	BASE	7.99	238	10.96	233	-0.1	83	-2.7	3	0	990.1	NA	0.0000		9999	3580	0	0	0
2019/04/01 11:21:00	BASE	7.59	236	10.96	233	-0.1	83	-2.7	3	0	990.1	NA	0.0000		9999	3510	0	0	0
2019/04/01 11:22:00	BASE	7.06	234	10.96	233	-0.1	83	-2.6	4	0	990.1	NA	0.0000		9999	3540	0	0	0
2019/04/01 11:23:00	BASE	6.36	236	10.96	233	-0.1	83	-2.7	4	0	990.1	NA	0.0000		9999	3410	4040	0	0
2019/04/01 11:24:00	BASE	5.96	240	10.44	233	-0.1	83	-2.7	5	0	990.1	NA	0.0000		9999	3480	0	0	0
2019/04/01 11:25:00	BASE	6.38	239	10.24	231	-0.1	83	-2.6	5	0	990.0	NA	0.0000		9999	3640	0	0	0
2019/04/01 11:26:00	BASE	5.99	242	9.77	234	-0.1	83	-2.6	5	0	990.1	NA	0.0000	UP	9999	3280	3840	0	0
2019/04/01 11:27:00	BASE	5.28	240	9.47	232	-0.1	84	-2.5	6	0	990.1	NA	0.0000	UP	9999	3280	0	0	0
2019/04/01 11:28:00	BASE	5.42	236	9.05	228	-0.1	84	-2.5	7	0	990.1	NA	0.0000	UP	9999	1150	3150	0	0
2019/04/01 11:29:00	BASE	5.68	238	9.05	228	-0.2	85	-2.4	7	0	990.1	NA	0.0000	UP	9999	460	0	0	0
2019/04/01 11:30:00	BASE	5.61	237	8.28	235	-0.2	85	-2.3	6	0	990.1	NA	0.0000	UP	9000	4170	0	0	0
2019/04/01 11:31:00	BASE	6.17	231	7.72	230	-0.2	86	-2.3	6	0	990.1	NA	0.0000	UP	9000	2030	0	0	0
2019/04/01 11:32:00	BASE	6.75	228	7.67	229	-0.2	86	-2.2	5	0	990.1	NA	0.0000	UP	9999	0	0	0	4360
2019/04/01 11:33:00	BASE	6.94	229	7.67	229	-0.2	87	-2.2	5	0	990.1	NA	0.0000	UP BR	9000	360	3350	0	0
2019/04/01 11:34:00	BASE	7.09	230	8.08	229	-0.2	87	-2.1	5	0	990.1	NA	0.0000	UP BR	8000	430	0	0	0
2019/04/01 11:35:00	BASE	7.75	227	9.98	221	-0.2	87	-2.1	5	0	990.1	NA	0.0000	UP BR	3800	390	0	0	0
2019/04/01 11:36:00	BASE	8.50	222	9.98	221	-0.2	87	-2.1	6	0	990.1	NA	0.0000	UP BR	1400	0	0	0	3510
2019/04/01 11:37:00	BASE	8.91	224	10.24	227	-0.2	87	-2.1	6	0	990.1	NA	0.0000	-SN BR	1400	0	0	0	2820
2019/04/01 11:38:00	BASE	8.50	231	10.24	227	-0.3	87	-2.1	6	0	990.1	NA	0.0000	-SN BR	2600	300	3220	0	0
2019/04/01 11:39:00	BASE	7.06	237	10.24	227	-0.3	88	-2.1	6	0	990.2	NA	0.0000	-SN BR	3600	300	3120	0	0
2019/04/01 11:40:00	BASE	6.41	239	10.24	227	-0.4	88	-2.0	7	0	990.2	NA	0.0000	-SN BR	5000	2760	0	0	0
2019/04/01 11:41:00	BASE	5.68	238	10.24	227	-0.4	89	-2.0	7	0	990.2	NA	0.0000	-SN BR	8000	2690	0	0	0
2019/04/01 11:42:00	BASE	5.51	235	10.24	227	-0.5	90	-2.0	7	0	990.2	NA	0.0000	-SN BR	9999	2660	0	0	0
2019/04/01 11:43:00	BASE	6.42	231	10.24	227	-0.5	90	-1.9	8	0	990.2	NA	0.0000	-SN BR	9999	2620	3350	0	0
2019/04/01 11:44:00	BASE	6.15	232	10.24	227	-0.5	91	-1.8	8	0	990.2	NA	0.0000	-SN BR	8000	2620	0	0	0
2019/04/01 11:45:00	BASE	4.95	232	10.24	227	-0.5	91	-1.7	8	0	990.2	NA	0.0000	-SN BR	9999	2620	0	0	0
2019/04/01 11:46:00	BASE	4.57	228	10.24	227	-0.5	92	-1.6	8	0	990.2	NA	0.0000	-SN BR	9999	2590	0	0	0
2019/04/01 11:47:00	BASE	5.18	225	9.47	230	-0.5	92	-1.5	7	0	990.2	NA	0.0000	-SN BR	9999	2490	0	0	0
2019/04/01 11:48:00	BASE	5.92	224	7.36	229	-0.4	93	-1.5	7	0	990.2	NA	0.0000	-SN BR	9999	2400	3250	0	0
2019/04/01 11:49:00	BASE	6.22	230	7.31	228	-0.4	93	-1.4	7	0	990.2	NA	0.0000	-SN BR	9999	980	0	0	0
2019/04/01 11:50:00	BASE	5.89	234	7.31	228	-0.4	93	-1.4	8	0	990.2	NA	0.0000	-SN BR	9999	1970	0	0	0
2019/04/01 11:51:00	BASE	5.91	234	7.31	228	-0.4	93	-1.4	8	0	990.2	NA	0.0000	-SN BR	7000	430	2330	0	0
2019/04/01 11:52:00	BASE	5.83	234	7.31	228	-0.4	93	-1.3	7	0	990.2	NA	0.0000	-SN BR	1800	330	2300	0	0
2019/04/01 11:53:00	BASE	5.53	231	7.31	228	-0.4	94	-1.3	8	0	990.2	NA	0.0000	-SN BR	1200	360	0	0	0
2019/04/01 11:54:00	BASE	5.75	230	7.31	228	-0.4	94	-1.3	8	0	990.2	NA	0.0000	-SN BR	2200	2400	0	0	0
2019/04/01 11:55:00	BASE	5.75	228	7.31	228	-0.4	94	-1.2	9	0	990.2	NA	0.0000	-SN BR	7000	2360	0	0	0
2019/04/01 11:56:00	BASE	5.68	230	7.31	228	-0.4	94	-1.2	10	0	990.2	NA	0.0000	-SN BR	9000	2300	0	0	0
2019/04/01 11:57:00	BASE	5.55	233	7.31	228	-0.4	94	-1.2	12	0	990.2	NA	0.0000	-SN BR	9999	2130	4860	0	0
2019/04/01 11:58:00	BASE	5.01	234	7.05	234	-0.4	94	-1.3	14	0	990.2	NA	0.0000	-SN BR	9999	2260	2820	0	0
2019/04/01 11:59:00	BASE	4.68	232	6.69	238	-0.4	94	-1.3	15	0	990.2	NA	0.0000	-SN BR	9999	2230	0	0	0
2019/04/01 12:00:00	BASE	5.06	226	6.69	238	-0.4	94	-1.2	16	0	990.2	NA	0.0000	UP BR	9999	2200	2950	0	0
2019/04/01 12:01:00	BASE	5.62	224	6.48	220	-0.4	95	-1.2	16	0	990.1	NA	0.0000	UP BR	9999	4400	0	0	0
2019/04/01 12:02:00	BASE	5.94	224	6.48	220	-0.4	95	-1.2	18	0	990.1	NA	0.0000	UP BR	9999	3020	0	0	0
2019/04/01 12:03:00	BASE	6.00	223	6.48	220	-0.4	95	-1.1	20	0	990.1	NA	0.0000	UP BR	9999	2260	2820	0	0
2019/04/01 12:04:00	BASE	5.63	221	6.48	220	-0.4	95	-1.1	20	0	990.1	NA	0.0000	UP	9999	2300	2720	0	0
2019/04/01 12:05:00	BASE	5.44	224	6.48	220	-0.4	95	-1.1	18	0	990.1	NA	0.0000	UP	9999	2100	0	0	0
2019/04/01 12:06:00	BASE	5.50	230	6.48	220	-0.4	95	-1.2	16	0	990.1	NA	0.0000	UP	9999	2030	0	0	0
2019/04/01 12:07:00	BASE	5.35	234	6.48	220	-0.4	94	-1.2	13	0	990.2	NA	0.0000	UP	9999	2000	0	0	0
2019/04/01 12:08:00	BASE	5.18	236	6.48	220	-0.4	94	-1.3	12	0	990.2	NA	0.2540	UP	9999	2030	0	0	0
2019/04/01 12:09:00	BASE	4.81	235	6.48	220	-0.4	94	-1.3	12	0	990.2	NA	0.0000	UP	9999	1570	0	0	0
2019/04/01 12:10:00	BASE	4.36	238	6.38	225	-0.4	94	-1.3	11	0	990.2	NA	0.0000	UP	9999	390	0	0	0
2019/04/01 12:11:00	BASE	3.72	245	6.38	225	-0.4	94	-1.3	12	0	990.2	NA	0.0000	UP	4600	260	0	0	0
2019/04/01 12:12:00	BASE	3.46	253	6.28	224	-0.4	94	-1.3	12	0	990.2	NA	0.0000	-SN BR	3000	0	0	0	3610
2019/04/01 12:13:00	BASE	3.13	267	5.97	234	-0.4	94	-1.2	12	0	990.2	NA	0.0000	-SN BR	3500	330	0	0	0
2019/04/01 12:14:00	BASE	2.63	274	5.97	234	-0.4	94	-1.2	13	0	990.2	NA	0.0000	-SN BR	4700	360	0	0	0
2019/04/01 12:15:00	BASE	2.74	274	5.97	234	-0.4	94	-1.2	13	0	990.1	NA	0.0000	-SN BR	6000	390	5250	0	0
2019/04/01 12:16:00	BASE	2.65	284	5.97	234	-0.4	94	-1.2	15	0	990.1	NA	0.0000	-SN BR	5000	4990	0	0	0
2019/04/01 12:17:00	BASE	2.87	289	5.66	234	-0.4	94	-1.2	16	0	990.2	NA	0.0000	-SN BR	4800	2200	0	0	0
2019/04/01 12:18:00	BASE	3.43	295	5.25	227	-0.4	94	-1.2	19	0	990.2	NA	0.0000	-SN BR	7000	5050	0	0	0
2019/04/01 12:19:00	BASE	3.78	305	4.78	234	-0.4	94	-1.2	23	0	990.2	NA	0.0000	-SN BR	9999	1840	0	0	0
2019/04/01 12:20:00	BASE	3.92	309	4.37	307	-0.4	94	-1.2	28	0	990.2	NA	0.0000	-SN BR	9999	1740	0	0	0
2019/04/01 12:21:00	BASE	4.08	308	4.73	306	-0.4	95	-1.2	35	0	990.2	NA	0.0000	-SN BR	9999	1740	5680	0	0
2019/04/01 12:22:00	BASE	4.53	306	5.04	304	-0.4	95	-1.1	42	0	990.2	NA	0.0000	-SN BR	9999	1740	0	0	0
2019/04/01 12:23:00	BASE	4.68	306	5.04	304	-0.5	96	-1.0	47	0	990.2	NA	0.0000	-SN BR	9999	2100	4660	0	0
2019/04/01 12:24:00	BASE	4.31	306	5.04	304	-0.5	97	-0.9	50	0	990.2	NA	0.0000	-SN BR	9999	1740	4720	0	0
2019/04/01 12:25:00	BASE	3.66	308	5.04	304	-0.5	97	-0.9	50	0	990.2	NA	0.0000	-SN BR	9999	4460	0	0	0
2019/04/01 12:26:00	BASE	3.15	312	5.04	304	-0.5	98	-0.8	48	0	990.2	NA	0.0000	-SN	9999	2300	4560	0	0
2019/04/01 12:27:00	BASE	2.95	320	5.04	304	-0.5	98	-0.8	44	0	990.2	NA	0.0000	-SN	9999	2260	4300	0	0
2019/04/01 12:28:00	BASE	2.74	335	5.04	304	-0.5	99	-0.7	40	0	990.2	NA	0.0000	-SN	9999	2170	0	0	0
2019/04/01 12:29:00	BASE	2.60	343	5.04	304	-0.6	99	-0.7	35	0	990.2	NA	0.0000		9999	2620	0	0	0
2019/04/01 12:30:00	BASE	2.54	344	5.04	304	-0.6	99	-0.7	31	0	990.2	NA	0.0000		9999	1970	0	0	0
2019/04/01 12:31:00	BASE	2.46	345	5.04	304	-0.6	100	-0.7	29	0	990.2	NA	0.0000		9999	1870	2590	0	0
2019/04/01 12:32:00	BASE	2.45	347	4.68	305	-0.7	100	-0.7	29	0	990.2	NA	0.0000		9999	1840	0	0	0
2019/04/01 12:33:00	BASE	2.68	355	4.37	305	-0.7	100	-0.7	28	0	990.2	NA	0.0000		9999	1840	0	0	0
2019/04/01 12:34:00	BASE	3.00	358	4.01	304	-0.7	100	-0.7	28	0	990.2	NA	0.0000		9999	1870	2890	0	0
2019/04/01 12:35:00	BASE	3.23	0	3.60	360	-0.7	100	-0.7	29	0	990.2	NA	0.0000		9999	1840	2790	0	0
2019/04/01 12:36:00	BASE	3.13	4	3.60	360	-0.7	100	-0.7	30	0	990.2	NA	0.0000		9999	1940	0	0	0
2019/04/01 12:37:00	BASE	3.05	5	3.60	360	-0.8	100	-0.8	31	0	990.3	NA	0.0000		9999	1870	0	0	0
2019/04/01 12:38:00	BASE	3.09	5	3.60	360	-0.8	100	-0.8	33	0	990.3	NA	0.0000		9999	1940	0	0	0
2019/04/01 12:39:00	BASE	3.12	6	3.60	360	-0.8	100	-0.8	35	0	990.3	NA	0.0000		9999	1900	0	0	0
2019/04/01 12:40:00	BASE	3.22	7	3.60	8	-0.8	100	-0.8	36	0	990.3	NA	0.0000		9999	1900	0	0	0
2019/04/01 12:41:00	BASE	3.44	7	3.70	5	-0.8	100	-0.8	36	0	990.3	NA	0.0000		9999	1900	0	0	0
2019/04/01 12:42:00	BASE	3.66	8	3.81	8	-0.8	100	-0.8	37	0	990.3	NA	0.0000		9999	1900	3220	0	0
2019/04/01 12:43:00	BASE	3.79	8	4.01	10	-0.8	100	-0.8	41	0	990.3	NA	0.0000		9999	1900	0	0	0
2019/04/01 12:44:00	BASE	3.94	6	4.12	3	-0.8	100	-0.8	44	0	990.3	NA	0.0000	-SN	9999	1870	0	0	0
2019/04/01 12:45:00	BASE	3.80	5	4.12	3	-0.8	100	-0.8	43	0	990.3	NA	0.0000	-SN	9999	2030	2850	0	0
2019/04/01 12:46:00	BASE	3.66	7	4.12	3	-0.8	100	-0.8	43	0	990.3	NA	0.0000	-SN	9999	1900	0	0	0
2019/04/01 12:47:00	BASE	3.80	8	4.12	3	-0.8	100	-0.8	43	0	990.3	NA	0.0000	-SN	9999	1970	0	0	0
2019/04/01 12:48:00	BASE	3.90	7	4.32	1	-0.8	100	-0.8	42	0	990.3	NA	0.0000	-SN	9999	2000	5220	0	0
2019/04/01 12:49:00	BASE	3.96	7	4.32	1	-0.8	100	-0.8	41	0	990.3	NA	0.0000	-SN	9999	2070	0	0	0
2019/04/01 12:50:00	BASE	4.16	3	4.58	1	-0.8	100	-0.8	41	0	990.3	NA	0.0000	-SN	9999	2100	0	0	0
2019/04/01 12:51:00	BASE	4.19	360	4.58	1	-0.8	100	-0.8	43	0	990.3	NA	0.0000	-SN	9999	3810	0	0	0
2019/04/01 12:52:00	BASE	3.91	2	4.58	1	-0.8	100	-0.8	45	0	990.3	NA	0.0000	-SN	9999	3670	0	0	0
2019/04/01 12:53:00	BASE	3.59	3	4.58	1	-0.8	100	-0.8	45	0	990.3	NA	0.0000		9999	3540	0	0	0
2019/04/01 12:54:00	BASE	3.51	4	4.58	1	-0.8	100	-0.8	47	0	990.3	NA	0.0000		9999	3050	0	0	0
2019/04/01 12:55:00	BASE	3.55	4	4.58	1	-0.8	100	-0.8	49	0	990.3	NA	0.0000		9999	2990	0	0	0
2019/04/01 12:56:00	BASE	3.41	5	4.58	1	-0.8	100	-0.8	51	0	990.3	NA	0.0000		9999	3050	3870	5350	0
2019/04/01 12:57:00	BASE	3.19	9	4.58	1	-0.8	100	-0.8	49	0	990.3	NA	0.0000		9999	3710	5350	0	0
2019/04/01 12:58:00	BASE	3.05	11	4.58	1	-0.8	100	-0.8	47	0	990.3	NA	0.0000		9999	3180	0	0	0
2019/04/01 12:59:00	BASE	3.08	9	4.58	1	-0.8	100	-0.8	44	0	990.3	NA	0.0000		9999	1870	3310	0	0
2019/04/01 13:00:00	BASE	3.09	11	4.22	3	-0.8	100	-0.8	42	0	990.3	NA	0.0000		9999	1770	0	0	0
2019/04/01 13:01:00	BASE	3.34	14	3.91	1	-0.8	100	-0.8	40	0	990.3	NA	0.0000		9999	1710	0	0	0
2019/04/01 13:02:00	BASE	3.61	12	3.81	15	-0.8	100	-0.8	38	0	990.3	NA	0.0000		9999	1710	0	0	0
2019/04/01 13:03:00	BASE	3.45	7	3.81	15	-0.7	100	-0.7	36	0	990.3	NA	0.0000		9999	1640	0	0	0
2019/04/01 13:04:00	BASE	3.42	5	3.81	350	-0.7	100	-0.7	35	0	990.3	NA	0.0000		9999	1640	0	0	0
2019/04/01 13:05:00	BASE	3.86	356	4.78	340	-0.7	100	-0.7	36	0	990.3	NA	0.0000		9999	1740	0	0	0
2019/04/01 13:06:00	BASE	4.33	347	5.20	346	-0.6	100	-0.6	39	0	990.3	NA	0.0000		9999	1710	0	0	0
2019/04/01 13:07:11	BASE	4.74	340	5.45	340	-0.6	100	-0.6	44	0	990.2	NA	0.0000		9999	1640	0	0	0
2019/04/01 13:08:00	BASE	4.68	337	5.45	340	-0.6	100	-0.6	49	0	990.3	NA	0.0000		9999	1610	0	0	0
2019/04/01 13:09:00	BASE	4.53	332	5.45	340	-0.5	100	-0.5	50	0	990.3	NA	0.0000		9999	1640	2490	0	0
2019/04/01 13:10:00	BASE	4.95	327	5.71	324	-0.5	100	-0.5	48	0	990.3	NA	0.0000		9999	2460	3120	0	0
2019/04/01 13:11:00	BASE	5.54	324	6.33	320	-0.5	100	-0.5	49	0	990.3	NA	0.0000		9999	2590	0	0	0
2019/04/01 13:12:00	BASE	5.63	326	6.33	320	-0.4	100	-0.4	51	0	990.3	NA	0.0000		9999	2990	3540	0	0
2019/04/01 13:13:00	BASE	5.99	319	8.69	294	-0.4	100	-0.4	53	0	990.3	NA	0.0000		9999	3810	0	0	0
2019/04/01 13:14:00	BASE	7.83	306	10.34	306	-0.4	100	-0.4	52	0	990.3	NA	0.0000		9999	3540	0	0	0
2019/04/01 13:15:00	BASE	9.62	299	11.32	305	-0.3	100	-0.3	50	0	990.3	NA	0.0000		9999	2000	3380	4270	0
2019/04/01 13:16:00	BASE	9.98	300	11.57	300	-0.2	100	-0.2	49	0	990.3	NA	0.0000		9999	1870	3670	0	0
2019/04/01 13:17:00	BASE	10.24	300	12.45	299	-0.1	100	-0.1	52	0	990.4	NA	0.0000		9999	4270	0	0	0
2019/04/01 13:18:00	BASE	10.73	298	12.50	300	0.0	100	0.0	55	0	990.4	NA	0.0000		9999	4270	0	0	0
2019/04/01 13:19:00	BASE	10.99	295	12.50	300	0.1	100	0.1	60	0	990.4	NA	0.0000		9999	3180	4300	0	0
2019/04/01 13:20:00	BASE	11.61	293	13.74	296	0.1	100	0.1	64	0	990.4	NA	0.0000		9999	1800	2920	4270	0
2019/04/01 13:21:00	BASE	11.53	291	13.74	296	0.1	100	0.1	68	0	990.4	NA	0.0000		9999	1670	0	0	0
2019/04/01 13:22:00	BASE	12.17	287	14.51	282	0.1	100	0.1	73	0	990.4	NA	0.0000		9999	2720	4400	0	0
2019/04/01 13:23:00	BASE	13.62	281	14.92	280	0.1	100	0.1	77	0	990.4	NA	0.0000		9999	4330	0	0	0
2019/04/01 13:24:00	BASE	12.86	281	14.92	280	0.1	100	0.1	83	0	990.4	NA	0.0000		9999	1540	2100	4790	0
2019/04/01 13:25:00	BASE	10.82	284	14.92	280	0.1	100	0.1	86	0	990.4	NA	0.0000		9999	2200	4400	20640	0
2019/04/01 13:26:00	BASE	9.99	284	14.92	280	0.2	100	0.2	85	0	990.4	NA	0.0000		9999	2560	0	0	0
2019/04/01 13:27:00	BASE	10.30	284	14.92	280	0.2	100	0.2	80	0	990.4	NA	0.0000		9999	2260	4070	4890	0
2019/04/01 13:28:00	BASE	11.01	282	14.92	280	0.2	100	0.2	73	0	990.4	NA	0.0000		9999	1380	2170	0	0
2019/04/01 13:29:00	BASE	11.44	281	14.92	280	0.2	100	0.2	65	0	990.4	NA	0.0000		9999	1380	1970	0	0
2019/04/01 13:30:00	BASE	11.33	286	14.92	280	0.2	100	0.2	57	0	990.4	NA	0.0000		9999	1350	0	0	0
2019/04/01 13:31:00	BASE	11.17	292	14.92	280	0.2	100	0.2	55	0	990.4	NA	0.0000		9999	1540	2890	0	0
2019/04/01 13:32:00	BASE	10.74	296	14.92	280	0.2	100	0.2	58	0	990.4	NA	0.0000		9999	1350	3150	0	0
2019/04/01 13:33:00	BASE	10.69	298	13.68	284	0.1	100	0.1	64	0	990.4	NA	0.0000		9999	3610	0	0	0
2019/04/01 13:34:00	BASE	11.17	296	13.68	284	0.1	100	0.1	72	0	990.4	NA	0.0000		9999	4130	0	0	0
2019/04/01 13:35:00	BASE	11.37	293	13.68	284	0.1	100	0.1	80	0	990.4	NA	0.0000		9999	4200	0	0	0
2019/04/01 13:36:00	BASE	11.36	292	13.68	284	0.1	100	0.1	85	0	990.4	NA	0.0000		9999	4360	0	0	0
2019/04/01 13:37:00	BASE	11.71	289	13.68	284	0.1	100	0.1	87	0	990.4	NA	0.0000		9999	4400	0	0	0
2019/04/01 13:38:00	BASE	11.90	291	13.99	293	0.1	100	0.1	90	0	990.4	NA	0.0000		9999	4590	0	0	0
2019/04/01 13:39:00	BASE	11.61	295	13.99	293	0.1	100	0.1	96	0	990.4	NA	0.0000		9999	4460	0	0	0
2019/04/01 13:40:00	BASE	11.86	294	13.99	293	0.1	100	0.1	105	0	990.4	NA	0.0000		9999	4530	0	0	0
2019/04/01 13:41:00	BASE	12.55	292	13.99	293	0.1	100	0.1	110	0	990.4	NA	0.0000		9999	4630	0	0	0
2019/04/01 13:42:00	BASE	12.55	291	13.99	293	0.1	100	0.1	110	0	990.4	NA	0.0000		9999	4360	0	0	0
2019/04/01 13:43:00	BASE	12.81	292	13.99	293	0.1	100	0.1	108	0	990.4	NA	0.0000		9999	4560	0	0	0
2019/04/01 13:44:00	BASE	13.06	291	14.04	294	0.1	100	0.1	106	0	990.4	NA	0.0000		9999	4400	0	0	0
2019/04/01 13:45:00	BASE	11.71	293	14.04	294	0.1	100	0.1	107	0	990.4	NA	0.0000		9999	4460	0	0	0
2019/04/01 13:46:00	BASE	10.26	298	14.04	294	0.1	100	0.1	109	0	990.4	NA	0.0000		9999	4400	0	0	0
2019/04/01 13:47:00	BASE	10.59	296	14.04	294	0.1	100	0.1	112	0	990.4	NA	0.0000		9999	4590	0	0	0
2019/04/01 13:48:00	BASE	10.65	298	14.04	294	0.1	100	0.1	112	0	990.4	NA	0.0000		9999	4590	0	0	0
2019/04/01 13:49:00	BASE	10.55	301	14.04	294	0.1	100	0.1	111	0	990.4	NA	0.0000		9999	4660	0	0	0
2019/04/01 13:50:00	BASE	11.06	299	14.04	294	0.1	100	0.1	109	0	990.4	NA	0.0000		9999	4430	0	0	0
2019/04/01 13:51:00	BASE	11.22	300	14.04	294	0.1	100	0.1	107	0	990.4	NA	0.0000		9999	4490	0	0	0
2019/04/01 13:52:00	BASE	11.64	301	14.04	294	0.2	100	0.2	107	0	990.4	NA	0.0000		9999	4430	0	0	0
2019/04/01 13:53:00	BASE	11.92	300	14.04	294	0.1	100	0.1	106	0	990.4	NA	0.0000		9999	4430	0	0	0
2019/04/01 13:54:00	BASE	11.78	300	13.58	300	0.2	100	0.2	103	0	990.4	NA	0.0000		9999	4460	0	0	0
2019/04/01 13:55:00	BASE	11.81	301	13.58	300	0.2	100	0.2	102	0	990.4	NA	0.0000		9999	4300	0	0	0
2019/04/01 13:56:00	BASE	11.96	301	13.58	300	0.2	100	0.2	101	0	990.4	NA	0.0000		9999	4200	0	0	0
2019/04/01 13:57:00	BASE	11.43	300	13.58	300	0.1	100	0.1	96	0	990.4	NA	0.0000		9999	5050	0	0	0
2019/04/01 13:58:00	BASE	10.58	300	13.58	300	0.1	100	0.1	84	0	990.4	NA	0.0000		9999	4690	0	0	0
2019/04/01 13:59:00	BASE	10.36	301	13.58	300	0.1	100	0.1	76	0	990.4	NA	0.0000		9999	1670	0	0	0
2019/04/01 14:00:00	BASE	10.48	303	13.58	300	0.1	100	0.1	73	0	990.4	NA	0.0000		9999	1610	2360	0	0
2019/04/01 14:01:00	BASE	11.49	298	15.38	287	0.1	100	0.1	74	0	990.4	NA	0.0000		9999	1840	2430	0	0
2019/04/01 14:02:00	BASE	12.62	297	15.38	287	0.1	100	0.1	77	0	990.4	NA	0.0000		9999	2000	0	0	0
2019/04/01 14:03:00	BASE	13.07	297	15.38	287	0.1	100	0.1	85	0	990.4	NA	0.0000		9999	1900	3120	0	0
2019/04/01 14:04:00	BASE	14.28	290	16.41	289	0.1	100	0.1	92	0	990.4	NA	0.0000		9999	2000	0	0	0
2019/04/01 14:05:00	BASE	14.88	291	16.41	289	0.1	100	0.0	97	0	990.4	NA	0.0000		9999	4790	0	0	0
2019/04/01 14:06:00	BASE	13.90	295	16.41	289	0.1	99	-0.0	99	0	990.4	NA	0.0000		9999	1870	6590	0	0
2019/04/01 14:07:00	BASE	14.38	294	17.03	287	0.1	99	-0.1	103	0	990.4	NA	0.0000		9999	2360	5220	6270	0
2019/04/01 14:08:00	BASE	15.15	290	17.03	287	0.1	98	-0.2	103	0	990.4	NA	0.0000		9999	1940	4590	5450	0
2019/04/01 14:09:00	BASE	14.14	288	17.03	287	0.1	97	-0.3	103	0	990.5	NA	0.0000		9999	2100	4630	0	0
2019/04/01 14:10:00	BASE	12.81	280	17.03	287	0.1	97	-0.3	104	0	990.5	NA	0.0000		9999	4300	0	0	0
2019/04/01 14:11:00	BASE	11.15	267	17.03	287	0.1	96	-0.4	106	0	990.6	NA	0.0000		9999	4400	0	0	0
2019/04/01 14:12:00	BASE	11.20	259	17.03	287	0.1	96	-0.4	105	0	990.6	NA	0.0000		9999	2300	4560	0	0
2019/04/01 14:13:00	BASE	12.11	255	17.03	287	0.1	96	-0.4	101	0	990.6	NA	0.0000		9999	4490	0	0	0
2019/04/01 14:14:00	BASE	12.58	255	17.03	287	0.0	97	-0.5	98	0	990.6	NA	0.0000		9999	4430	0	0	0
2019/04/01 14:15:00	BASE	12.79	255	17.03	287	-0.1	97	-0.5	96	0	990.6	NA	0.0000		9999	4360	0	0	0
2019/04/01 14:16:00	BASE	12.03	254	17.03	287	-0.2	98	-0.6	93	0	990.7	NA	0.0000		9999	4230	0	0	0
2019/04/01 14:17:00	BASE	10.93	255	16.05	291	-0.3	98	-0.5	91	0	990.7	NA	0.0000		9999	2070	4270	0	0
2019/04/01 14:18:00	BASE	9.68	255	15.12	291	-0.4	99	-0.5	87	0	990.7	NA	0.0000		9999	1900	4200	21160	0
2019/04/01 14:19:00	BASE	9.40	256	14.51	280	-0.4	99	-0.5	88	0	990.7	NA	0.0000		9999	1710	0	0	0
2019/04/01 14:20:00	BASE	10.41	256	14.10	256	-0.4	100	-0.4	95	0	990.7	NA	0.0000		9999	4170	0	0	0
2019/04/01 14:21:00	BASE	10.91	255	14.10	256	-0.4	100	-0.4	103	0	990.7	NA	0.0000		9999	4400	0	0	0
2019/04/01 14:22:00	BASE	10.03	255	14.10	256	-0.4	100	-0.4	105	0	990.7	NA	0.0000		9999	4530	0	0	0
2019/04/01 14:23:00	BASE	9.31	254	14.10	256	-0.4	100	-0.4	106	0	990.7	NA	0.0000		9999	4630	0	0	0
2019/04/01 14:24:00	BASE	8.74	253	13.43	256	-0.4	100	-0.4	105	0	990.7	NA	0.0000		9999	4760	0	0	0
2019/04/01 14:25:00	BASE	8.43	251	12.55	252	-0.4	100	-0.4	105	0	990.7	NA	0.0000		9999	4300	0	0	0
2019/04/01 14:26:00	BASE	9.42	250	12.35	253	-0.4	100	-0.4	104	0	990.7	NA	0.0000		9999	4200	0	0	0
2019/04/01 14:27:00	BASE	9.85	250	12.35	253	-0.4	100	-0.4	105	0	990.7	NA	0.0000		9999	4200	0	0	0
2019/04/01 14:28:00	BASE	9.90	251	12.35	253	-0.5	100	-0.5	109	0	990.7	NA	0.0000		9999	4270	0	0	0
2019/04/01 14:29:00	BASE	9.55	254	12.35	253	-0.5	100	-0.5	112	0	990.7	NA	0.0000		9999	4300	0	0	0
2019/04/01 14:30:00	BASE	8.32	254	12.14	255	-0.5	100	-0.5	115	0	990.7	NA	0.0000		9999	4590	0	0	0
2019/04/01 14:31:00	BASE	7.59	253	11.78	248	-0.5	100	-0.5	119	0	990.7	NA	0.0000		9999	4690	0	0	0
2019/04/01 14:32:00	BASE	7.99	255	11.78	248	-0.5	100	-0.5	123	0	990.7	NA	0.0000		9999	4660	0	0	0
2019/04/01 14:33:00	BASE	8.78	254	11.78	248	-0.5	100	-0.5	126	0	990.7	NA	0.0000		9999	4530	0	0	0
2019/04/01 14:34:00	BASE	8.60	253	11.78	248	-0.5	100	-0.5	131	0	990.7	NA	0.0000		9999	4760	0	0	0
2019/04/01 14:35:00	BASE	8.61	254	11.78	248	-0.6	100	-0.6	132	0	990.7	NA	0.0000		9999	4920	0	0	0
2019/04/01 14:36:00	BASE	8.95	253	11.52	253	-0.6	100	-0.6	128	0	990.7	NA	0.0000		9999	4820	0	0	0
2019/04/01 14:37:00	BASE	9.10	256	11.52	253	-0.6	100	-0.6	123	0	990.7	NA	0.0000		9999	5150	0	0	0
2019/04/01 14:38:00	BASE	9.17	257	9.98	265	-0.6	100	-0.6	118	0	990.7	NA	0.0000		9999	4040	4890	0	0
2019/04/01 14:39:00	BASE	8.97	257	9.98	265	-0.6	100	-0.6	115	0	990.7	NA	0.0000		9999	4230	4890	0	0
2019/04/01 14:40:00	BASE	8.46	257	9.98	265	-0.6	100	-0.6	114	0	990.8	NA	0.0000		9999	4360	0	0	0
2019/04/01 14:41:00	BASE	7.76	255	9.98	265	-0.6	100	-0.6	111	0	990.8	NA	0.0000		9999	5770	0	0	0
2019/04/01 14:42:00	BASE	7.32	255	9.98	265	-0.6	100	-0.6	106	0	990.8	NA	0.0000		9999	5180	0	0	0
2019/04/01 14:43:00	BASE	6.98	261	9.98	265	-0.6	100	-0.6	103	0	990.8	NA	0.0000		9999	4430	0	0	0
2019/04/01 14:44:00	BASE	6.68	266	9.98	265	-0.6	100	-0.6	102	0	990.8	NA	0.0000		9999	4530	0	0	0
2019/04/01 14:45:00	BASE	6.58	265	9.98	265	-0.6	100	-0.6	101	0	990.8	NA	0.0000		9999	4560	0	0	0
2019/04/01 14:46:00	BASE	6.44	268	9.88	249	-0.6	100	-0.6	102	0	990.8	NA	0.0000		9999	4760	0	0	0
2019/04/01 14:47:00	BASE	5.73	270	9.88	249	-0.6	100	-0.6	103	0	990.8	NA	0.0000		9999	4660	0	0	0
2019/04/01 14:48:00	BASE	5.55	272	9.52	257	-0.5	100	-0.5	106	0	990.8	NA	0.0000		9999	4990	0	0	0
2019/04/01 14:49:00	BASE	6.62	277	8.75	266	-0.5	100	-0.5	109	0	990.8	NA	0.0000		9999	3450	4360	0	0
2019/04/01 14:50:00	BASE	7.20	278	8.75	266	-0.5	100	-0.5	113	0	990.8	NA	0.0000		9999	2950	4530	0	0
2019/04/01 14:51:00	BASE	6.93	278	8.75	266	-0.5	100	-0.5	117	0	990.8	NA	0.0000		9999	3180	4630	0	0
2019/04/01 14:52:00	BASE	6.83	281	8.75	266	-0.5	100	-0.5	122	0	990.8	NA	0.0000		9999	3250	0	0	0
2019/04/01 14:53:00	BASE	6.69	281	8.75	266	-0.5	100	-0.5	126	0	990.9	NA	0.0000		9999	3940	0	0	0
2019/04/01 14:54:00	BASE	6.27	281	8.75	266	-0.5	100	-0.5	129	0	990.8	NA	0.0000		9999	4760	0	0	0
2019/04/01 14:55:00	BASE	5.91	285	8.28	276	-0.5	100	-0.5	131	0	990.8	NA	0.0000		9999	4790	0	0	0
2019/04/01 14:56:00	BASE	5.69	287	8.28	276	-0.4	100	-0.4	131	0	990.8	NA	0.0000		9999	4950	0	0	0
2019/04/01 14:57:00	BASE	5.71	286	8.28	276	-0.4	100	-0.4	130	0	990.9	NA	0.0000		9999	4950	0	0	0
2019/04/01 14:58:00	BASE	5.83	283	8.28	276	-0.4	100	-0.4	128	0	990.9	NA	0.0000		9999	5050	0	0	0
2019/04/01 14:59:00	BASE	5.47	280	8.28	276	-0.4	100	-0.4	125	0	990.9	NA	0.0000		9999	4660	0	0	0
2019/04/01 15:00:00	BASE	5.02	285	7.77	275	-0.4	100	-0.4	125	0	990.9	NA	0.0000		9999	4630	5180	0	0
2019/04/01 15:01:00	BASE	5.08	291	7.77	275	-0.4	100	-0.4	127	0	990.8	NA	0.0000		9999	4490	0	0	0
2019/04/01 15:02:00	BASE	5.07	292	7.31	280	-0.5	100	-0.5	127	0	990.8	NA	0.0000		9999	4720	0	0	0
2019/04/01 15:03:00	BASE	4.56	290	7.05	280	-0.5	100	-0.5	125	0	990.8	NA	0.0000		9999	4560	0	0	0
2019/04/01 15:04:00	BASE	4.14	296	6.58	290	-0.4	100	-0.4	123	0	990.8	NA	0.0000		9999	4460	0	0	0
2019/04/01 15:05:00	BASE	4.02	305	6.38	291	-0.4	100	-0.4	122	0	990.8	NA	0.0000		9999	4530	24480	0	0
2019/04/01 15:06:00	BASE	3.69	310	6.28	282	-0.4	100	-0.4	121	0	990.8	NA	0.0000		9999	4530	0	0	0
2019/04/01 15:07:00	BASE	3.40	305	6.28	282	-0.4	100	-0.4	122	0	990.8	NA	0.0000		9999	4560	0	0	0
2019/04/01 15:08:00	BASE	3.61	305	5.81	282	-0.4	100	-0.4	125	0	990.9	NA	0.0000		9999	4630	0	0	0
2019/04/01 15:09:00	BASE	4.02	312	5.76	279	-0.4	100	-0.4	129	0	990.9	NA	0.0000		9999	4360	0	0	0
2019/04/01 15:10:00	BASE	4.40	315	5.45	293	-0.4	100	-0.4	137	0	990.9	NA	0.0000		9999	4430	19920	21520	0
2019/04/01 15:11:00	BASE	5.04	318	5.61	320	-0.4	100	-0.4	144	0	990.9	NA	0.0000		9999	4560	0	0	0
2019/04/01 15:12:00	BASE	5.29	317	5.61	320	-0.4	100	-0.4	145	0	990.9	NA	0.0000		9999	4530	0	0	0
2019/04/01 15:13:00	BASE	5.21	316	5.76	315	-0.4	100	-0.4	147	0	990.9	NA	0.0000		9999	4460	0	0	0
2019/04/01 15:14:00	BASE	5.42	319	6.07	326	-0.4	100	-0.4	149	0	990.9	NA	0.0000		9999	4560	0	0	0
2019/04/01 15:15:00	BASE	5.66	319	6.74	312	-0.4	100	-0.4	152	0	990.9	NA	0.0000		9999	4200	0	0	0
2019/04/01 15:16:00	BASE	5.39	321	6.74	312	-0.4	100	-0.4	158	0	990.9	NA	0.0000		9999	4690	0	0	0
2019/04/01 15:17:00	BASE	5.10	330	6.74	312	-0.4	100	-0.4	169	0	990.9	NA	0.0000		9999	2330	5510	0	0
2019/04/01 15:18:00	BASE	5.20	331	6.74	312	-0.3	100	-0.3	176	0	990.9	NA	0.0000		9999	4660	0	0	0
2019/04/01 15:19:00	BASE	5.14	333	6.74	312	-0.3	100	-0.3	178	0	990.9	NA	0.0000		9999	2460	4760	0	0
2019/04/01 15:20:00	BASE	5.13	342	6.74	312	-0.3	100	-0.3	173	0	990.9	NA	0.0000		9999	2070	4760	0	0
2019/04/01 15:21:00	BASE	5.36	347	6.74	312	-0.3	100	-0.3	172	0	990.9	NA	0.0000		9999	1900	4760	0	0
2019/04/01 15:22:00	BASE	5.40	346	6.74	312	-0.4	100	-0.4	172	0	990.9	NA	0.0000		9999	1900	0	0	0
2019/04/01 15:23:00	BASE	5.28	349	6.74	312	-0.4	100	-0.4	172	0	991.0	NA	0.0000		9999	5250	0	0	0
2019/04/01 15:24:00	BASE	5.38	350	6.74	312	-0.4	100	-0.4	171	0	991.0	NA	0.0000		9999	3020	0	0	0
2019/04/01 15:25:00	BASE	5.17	345	5.92	344	-0.5	100	-0.5	175	0	991.0	NA	0.0000		9999	2820	0	0	0
2019/04/01 15:26:00	BASE	4.88	342	5.92	344	-0.5	100	-0.5	173	0	991.0	NA	0.0000		9999	2560	0	0	0
2019/04/01 15:27:00	BASE	5.04	340	5.92	344	-0.5	100	-0.5	153	0	991.0	NA	0.0000		9999	2230	0	0	0
2019/04/01 15:28:00	BASE	5.20	338	5.92	344	-0.4	100	-0.4	138	0	991.0	NA	0.0000		9999	1380	0	0	0
2019/04/01 15:29:00	BASE	5.30	336	5.92	344	-0.4	100	-0.4	131	0	991.0	NA	0.0000		9999	1080	0	0	0
2019/04/01 15:30:00	BASE	5.67	331	6.58	327	-0.4	100	-0.4	123	0	991.0	NA	0.0000		9999	0	0	0	2890
2019/04/01 15:31:00	BASE	6.34	329	7.10	330	-0.4	100	-0.4	113	0	991.0	NA	0.0000		9999	0	0	0	2490
2019/04/01 15:32:00	BASE	6.99	327	7.72	325	-0.4	100	-0.4	107	0	991.0	NA	0.0000		9999	560	0	0	0
2019/04/01 15:33:00	BASE	7.22	326	7.72	325	-0.4	100	-0.4	103	0	991.0	NA	0.0000		9999	460	0	0	0
2019/04/01 15:34:00	BASE	7.47	329	8.18	329	-0.3	100	-0.3	99	0	991.0	NA	0.0000		9999	300	0	0	0
2019/04/01 15:35:00	BASE	7.72	335	8.28	337	-0.3	100	-0.3	91	0	991.1	NA	0.0000		9999	330	0	0	0
2019/04/01 15:36:00	BASE	7.70	338	8.28	337	-0.4	100	-0.4	83	0	991.1	NA	0.0000	UP	9999	360	0	0	0
2019/04/01 15:37:00	BASE	7.60	338	8.64	345	-0.4	100	-0.4	76	0	991.1	NA	0.0000	UP	9999	430	0	0	0
2019/04/01 15:38:00	BASE	7.27	339	8.64	345	-0.5	100	-0.5	66	0	991.2	NA	0.0000	UP	9999	360	0	0	0
2019/04/01 15:39:00	BASE	7.47	337	8.64	345	-0.6	100	-0.6	55	0	991.2	NA	0.0000	UP	9000	330	0	0	0
2019/04/01 15:40:00	BASE	7.88	328	8.64	345	-0.7	100	-0.7	45	0	991.2	NA	0.0000	UP	9000	260	0	0	0
2019/04/01 15:41:00	BASE	8.36	307	10.44	279	-0.7	100	-0.7	37	0	991.3	NA	0.0000	UP BR	3800	0	0	0	1120
2019/04/01 15:42:00	BASE	8.93	278	13.84	256	-0.7	100	-0.7	29	0	991.3	NA	0.0000	UP BR	1600	0	0	0	1080
2019/04/01 15:43:00	BASE	9.23	264	13.84	256	-0.7	100	-0.7	28	0	991.3	NA	0.0000	UP BR	1200	0	0	0	950
2019/04/01 15:44:00	BASE	12.12	263	17.08	258	-0.8	100	-0.8	27	0	991.3	NA	0.0000	-SN BR	1300	0	0	0	950
2019/04/01 15:45:00	BASE	14.18	259	17.08	258	-0.9	100	-0.9	25	0	991.3	NA	0.0000	-SN BR	1300	0	0	0	690
2019/04/01 15:46:00	BASE	11.01	258	17.08	258	-1.1	100	-1.1	37	0	991.4	NA	0.0000	-SN BR	1200	0	0	0	790
2019/04/01 15:47:00	BASE	7.06	263	17.08	258	-1.3	100	-1.3	49	0	991.4	NA	0.0000	-SN BR	1200	0	0	0	1740
2019/04/01 15:48:00	BASE	5.53	279	17.08	258	-1.4	100	-1.4	60	0	991.4	NA	0.0000	-SN BR	1600	0	0	0	2200
2019/04/01 15:49:00	BASE	5.82	289	17.08	258	-1.4	100	-1.4	71	0	991.4	NA	0.0000	-SN BR	2000	0	0	0	1840
2019/04/01 15:50:00	BASE	5.85	292	17.08	258	-1.4	100	-1.4	83	0	991.4	NA	0.0000	-SN BR	2100	0	0	0	1900
2019/04/01 15:51:00	BASE	5.29	294	17.08	258	-1.4	100	-1.4	97	0	991.3	NA	0.0000	-SN BR	2000	0	0	0	2300
2019/04/01 15:52:00	BASE	4.96	295	17.08	258	-1.4	100	-1.4	106	0	991.3	NA	0.0000	-SN BR	2000	0	0	0	2620
2019/04/01 15:53:00	BASE	4.44	297	17.08	258	-1.4	100	-1.4	115	0	991.3	NA	0.0000	-SN BR	2000	0	0	0	4820
2019/04/01 15:54:00	BASE	4.11	302	15.95	260	-1.5	100	-1.5	127	0	991.3	NA	0.0000	-SN BR	2300	0	0	0	5020
2019/04/01 15:55:00	BASE	3.93	307	10.85	255	-1.5	100	-1.5	139	0	991.3	NA	0.0000	-SN BR	4400	5020	0	0	0
2019/04/01 15:56:00	BASE	3.73	312	7.36	281	-1.5	100	-1.5	146	0	991.3	NA	0.0000	-SN BR	9999	3250	0	0	0
2019/04/01 15:57:00	BASE	3.88	321	7.36	281	-1.5	100	-1.5	151	0	991.3	NA	0.0000	-SN BR	9999	2070	0	0	0
2019/04/01 15:58:00	BASE	4.01	322	7.36	281	-1.5	100	-1.5	155	0	991.3	NA	0.0000	-SN BR	9999	4360	0	0	0
2019/04/01 15:59:00	BASE	3.80	323	6.22	304	-1.4	100	-1.4	159	0	991.3	NA	0.0000	-SN BR	9999	4070	0	0	0
2019/04/01 16:00:00	BASE	3.88	326	6.22	304	-1.4	100	-1.4	161	0	991.3	NA	0.0000	-SN BR	9999	3710	0	0	0
2019/04/01 16:01:00	BASE	3.89	325	5.04	295	-1.4	100	-1.4	160	0	991.3	NA	0.0000	-SN BR	9999	4400	0	0	0
2019/04/01 16:02:00	BASE	3.54	328	4.37	321	-1.3	100	-1.3	160	0	991.3	NA	0.0000	-SN BR	9999	3840	0	0	0
2019/04/01 16:03:00	BASE	3.93	329	4.89	318	-1.3	100	-1.3	160	0	991.3	NA	0.0000	-SN BR	9999	3810	0	0	0
2019/04/01 16:04:00	BASE	4.54	327	5.56	331	-1.3	100	-1.3	159	0	991.3	NA	0.0000	-SN	9999	4560	0	0	0
2019/04/01 16:05:00	BASE	4.26	331	5.56	331	-1.2	100	-1.2	159	0	991.3	NA	0.0000	-SN	9999	4720	0	0	0
2019/04/01 16:06:00	BASE	3.79	331	5.56	331	-1.2	100	-1.2	157	0	991.3	NA	0.0000		9999	4690	0	0	0
2019/04/01 16:07:00	BASE	3.80	330	5.56	331	-1.1	100	-1.1	153	0	991.3	NA	0.0000		9999	4820	0	0	0
2019/04/01 16:08:00	BASE	4.04	333	5.56	331	-1.1	100	-1.1	147	0	991.4	NA	0.0000		9999	3510	4890	0	0
2019/04/01 16:09:00	BASE	4.17	335	5.56	331	-1.1	100	-1.1	143	0	991.4	NA	0.0000		9999	3450	0	0	0
2019/04/01 16:10:00	BASE	4.26	340	5.56	331	-1.1	100	-1.1	142	0	991.4	NA	0.0000		9999	3540	5020	0	0
2019/04/01 16:11:00	BASE	4.59	341	5.56	331	-1.1	100	-1.1	145	0	991.4	NA	0.0000		9999	3640	5020	0	0
2019/04/01 16:12:00	BASE	4.70	341	5.56	331	-1.1	100	-1.1	147	0	991.4	NA	0.0000		9999	3670	5020	0	0
2019/04/01 16:13:00	BASE	4.40	345	5.56	331	-1.1	100	-1.1	150	0	991.4	NA	0.0000		9999	3740	0	0	0
2019/04/01 16:14:00	BASE	4.39	341	5.40	332	-1.0	100	-1.0	153	0	991.4	NA	0.0000		9999	3540	0	0	0
2019/04/01 16:15:00	BASE	4.70	335	5.56	332	-1.0	100	-1.0	154	0	991.4	NA	0.0000		9999	2690	3840	0	0
2019/04/01 16:16:00	BASE	5.07	336	6.12	336	-1.0	100	-1.0	154	0	991.4	NA	0.0000		9999	3870	0	0	0
2019/04/01 16:17:00	BASE	5.59	338	6.12	338	-0.9	100	-0.9	157	0	991.4	NA	0.0000		9999	4000	0	0	0
2019/04/01 16:18:00	BASE	5.72	341	6.12	338	-0.9	100	-0.9	157	0	991.4	NA	0.0000		9999	2530	4000	0	0
2019/04/01 16:19:00	BASE	5.35	347	6.12	338	-0.9	100	-0.9	158	0	991.4	NA	0.0000		9999	4040	5280	0	0
2019/04/01 16:20:00	BASE	5.03	351	6.12	338	-0.9	100	-0.9	155	0	991.4	NA	0.0000		9999	3940	0	0	0
2019/04/01 16:21:00	BASE	4.98	350	6.12	338	-0.9	100	-0.9	149	0	991.4	NA	0.0000		9999	3940	0	0	0
2019/04/01 16:22:00	BASE	4.51	344	6.12	338	-0.9	100	-0.9	148	0	991.4	NA	0.0000		9999	2430	0	0	0
2019/04/01 16:23:00	BASE	3.86	337	6.12	338	-0.9	100	-0.9	155	0	991.4	NA	0.0000		9999	5020	0	0	0
2019/04/01 16:24:00	BASE	3.75	328	6.12	338	-0.9	100	-0.9	162	0	991.5	NA	0.0000		9999	5020	0	0	0
2019/04/01 16:25:00	BASE	3.88	327	6.12	338	-0.9	100	-0.9	158	0	991.5	NA	0.0000		9999	4000	5090	0	0
2019/04/01 16:26:00	BASE	3.64	321	6.12	338	-0.8	100	-0.8	152	0	991.5	NA	0.0000		9999	4040	5220	0	0
2019/04/01 16:27:00	BASE	4.11	291	6.02	342	-0.8	100	-0.8	150	0	991.5	NA	0.0000		9999	4040	5180	0	0
2019/04/01 16:28:00	BASE	4.61	275	5.81	352	-0.7	100	-0.7	151	0	991.5	NA	0.0000		9999	4100	0	0	0
2019/04/01 16:29:00	BASE	4.84	268	6.48	254	-0.7	100	-0.7	152	0	991.5	NA	0.0000		9999	4070	0	0	0
2019/04/01 16:30:00	BASE	5.10	262	6.48	254	-0.6	100	-0.6	151	0	991.5	NA	0.0000		9999	4100	0	0	0
2019/04/01 16:31:00	BASE	4.74	265	6.48	254	-0.5	100	-0.5	151	0	991.5	NA	0.0000		9999	4070	0	0	0
2019/04/01 16:32:00	BASE	5.40	263	8.59	256	-0.4	100	-0.4	153	0	991.5	NA	0.0000		9999	4100	0	0	0
2019/04/01 16:33:00	BASE	7.05	261	10.08	255	-0.4	100	-0.4	158	0	991.5	NA	0.0000		9999	4130	0	0	0
2019/04/01 16:34:00	BASE	7.49	265	10.08	255	-0.3	100	-0.3	165	0	991.5	NA	0.0000		9999	4130	0	0	0
2019/04/01 16:35:00	BASE	7.06	267	10.08	255	-0.3	100	-0.3	170	0	991.5	NA	0.0000		9999	4170	0	0	0
2019/04/01 16:36:00	BASE	7.06	265	10.08	255	-0.2	100	-0.2	173	0	991.5	NA	0.0000		9999	2990	4230	0	0
2019/04/01 16:37:00	BASE	6.94	261	10.08	255	-0.2	100	-0.2	175	0	991.5	NA	0.0000		9999	2660	4230	0	0
2019/04/01 16:38:00	BASE	7.44	260	10.08	255	-0.1	100	-0.2	174	0	991.5	NA	0.0000		9999	4200	0	0	0
2019/04/01 16:39:00	BASE	7.78	257	10.08	255	-0.1	99	-0.2	173	0	991.5	NA	0.0000		9999	2850	4230	0	0
2019/04/01 16:40:00	BASE	7.43	259	10.08	255	0.0	98	-0.2	176	0	991.5	NA	0.0000		9999	2590	4330	0	0
2019/04/01 16:41:00	BASE	6.30	262	10.08	255	0.0	97	-0.4	178	0	991.5	NA	0.0000		9999	4270	21360	0	0
2019/04/01 16:42:00	BASE	5.36	262	10.08	255	0.1	96	-0.5	182	0	991.5	NA	0.0000		9999	4300	0	0	0
2019/04/01 16:43:00	BASE	5.43	262	9.62	257	0.1	95	-0.7	187	0	991.5	NA	0.0000		9999	4270	0	0	0
2019/04/01 16:44:00	BASE	5.83	259	9.62	257	0.1	94	-0.8	191	0	991.5	NA	0.0000		9999	4270	4890	0	0
2019/04/01 16:45:00	BASE	6.10	256	9.62	257	0.1	93	-0.8	192	0	991.5	NA	0.0000		9999	4330	0	0	0
2019/04/01 16:46:00	BASE	5.30	261	9.62	257	0.2	93	-0.9	190	0	991.5	NA	0.0000		9999	2820	4360	0	0
2019/04/01 16:47:01	BASE	4.59	267	9.62	257	0.2	93	-0.9	186	0	991.5	NA	0.0000		9999	4360	0	0	0
2019/04/01 16:48:00	BASE	5.03	275	8.75	254	0.2	93	-0.9	188	0	991.5	NA	0.0000		9999	4460	0	0	0
2019/04/01 16:49:00	BASE	5.11	274	8.59	261	0.2	93	-0.8	192	0	991.5	NA	0.0000		9999	3050	0	0	0
2019/04/01 16:50:00	BASE	5.00	269	7.61	269	0.2	93	-0.8	194	0	991.5	NA	0.0000		9999	4400	0	0	0
2019/04/01 16:51:00	BASE	6.36	273	8.95	279	0.3	92	-0.8	198	0	991.5	NA	0.0000		9999	4400	0	0	0
2019/04/01 16:52:00	BASE	6.62	266	8.95	279	0.3	92	-0.9	201	0	991.5	NA	0.0000		9999	4460	22670	0	0
2019/04/01 16:53:00	BASE	5.81	267	8.95	279	0.3	91	-1.0	204	0	991.5	NA	0.0000		9999	4460	0	0	0
2019/04/01 16:54:00	BASE	6.76	276	8.95	279	0.3	90	-1.1	212	0	991.6	NA	0.0000		9999	4430	0	0	0
2019/04/01 16:55:00	BASE	7.67	280	8.95	279	0.3	89	-1.3	223	0	991.6	NA	0.0000		9999	4460	0	0	0
2019/04/01 16:56:00	BASE	7.47	282	8.95	279	0.3	88	-1.4	251	0	991.6	NA	0.0000		9999	4590	0	0	0
2019/04/01 16:57:00	BASE	7.49	280	8.95	279	0.4	87	-1.5	550	0	991.6	NA	0.0000		9999	4560	0	0	0
2019/04/01 16:58:00	BASE	7.65	279	8.95	279	0.4	86	-1.6	401	0	991.6	NA	0.0000		9999	4590	0	0	0
2019/04/01 16:59:00	BASE	7.59	279	8.95	279	0.5	85	-1.7	392	0	991.6	NA	0.0000		9999	4490	0	0	0
2019/04/01 17:00:00	BASE	7.31	279	8.95	279	0.5	84	-1.8	211	0	991.6	NA	0.0000		9999	4560	0	0	0
2019/04/01 17:01:00	BASE	6.88	278	8.85	270	0.5	83	-2.0	192	0	991.6	NA	0.0000		9999	4460	0	0	0
2019/04/01 17:02:00	BASE	6.23	276	8.85	270	0.6	82	-2.1	170	0	991.6	NA	0.0000		9999	4560	0	0	0
2019/04/01 17:03:00	BASE	6.04	276	8.85	270	0.6	82	-2.2	243	0	991.6	NA	0.0000		9999	4490	0	0	0
2019/04/01 17:04:00	BASE	5.97	280	8.85	270	0.5	81	-2.3	168	0	991.6	NA	0.0000		9999	4560	0	0	0
2019/04/01 17:05:00	BASE	5.66	282	8.85	270	0.5	81	-2.3	115	0	991.6	NA	0.0000		9999	4560	0	0	0
2019/04/01 17:06:00	BASE	6.00	284	8.85	270	0.5	82	-2.2	104	0	991.6	NA	0.0000		9999	4660	0	0	0
2019/04/01 17:07:00	BASE	6.40	290	8.80	275	0.5	83	-2.1	101	0	991.6	NA	0.0000		9999	0	0	0	0
2019/04/01 17:08:00	BASE	6.56	294	8.44	280	0.4	84	-2.0	101	0	991.6	NA	0.0000		9999	0	0	0	0
2019/04/01 17:09:00	BASE	6.41	294	8.03	280	0.4	84	-2.0	105	0	991.6	NA	0.0000		9999	0	0	0	0
2019/04/01 17:10:00	BASE	6.19	292	8.03	280	0.3	85	-1.9	108	0	991.6	NA	0.0000		9999	0	0	0	0
2019/04/01 17:11:00	BASE	6.29	293	7.31	295	0.3	86	-1.8	110	0	991.6	NA	0.0000		9999	0	0	0	0
2019/04/01 17:12:00	BASE	6.38	294	7.31	295	0.2	86	-1.8	119	0	991.6	NA	0.0000		9999	4690	0	0	0
2019/04/01 17:13:00	BASE	6.14	293	7.31	295	0.2	87	-1.8	137	0	991.6	NA	0.0000		9999	0	0	0	0
2019/04/01 17:14:00	BASE	5.43	293	7.31	295	0.2	87	-1.7	143	0	991.6	NA	0.0000		9999	5320	0	0	0
2019/04/01 17:15:00	BASE	5.16	296	7.31	295	0.2	87	-1.7	149	0	991.6	NA	0.0000		9999	5180	0	0	0
2019/04/01 17:16:00	BASE	5.32	300	7.31	295	0.2	87	-1.7	153	0	991.6	NA	0.0000		9999	4820	0	0	0
2019/04/01 17:17:00	BASE	5.58	303	7.31	295	0.2	87	-1.7	156	0	991.6	NA	0.0000		9999	4820	0	0	0
2019/04/01 17:18:00	BASE	6.00	303	7.00	289	0.2	88	-1.6	158	0	991.6	NA	0.0000		9999	4820	0	0	0
2019/04/01 17:19:00	BASE	6.11	307	6.94	292	0.2	88	-1.6	159	0	991.6	NA	0.0000		9999	4790	0	0	0
2019/04/01 17:20:00	BASE	5.87	310	6.94	292	0.2	88	-1.6	158	0	991.6	NA	0.0000		9999	4560	23070	0	0
2019/04/01 17:21:00	BASE	5.86	308	6.74	299	0.2	88	-1.6	154	0	991.6	NA	0.0000		9999	4690	0	0	0
2019/04/01 17:22:00	BASE	6.34	305	7.41	308	0.2	87	-1.6	148	0	991.6	NA	0.0000		9999	4530	23160	0	0
2019/04/01 17:23:00	BASE	6.12	302	7.41	308	0.2	87	-1.6	142	0	991.6	NA	0.0000		9999	4400	0	0	0
2019/04/01 17:24:00	BASE	5.35	305	7.41	308	0.3	87	-1.7	137	0	991.6	NA	0.0000		9999	4490	0	0	0
2019/04/01 17:25:00	BASE	5.26	311	7.41	308	0.2	87	-1.7	136	0	991.6	NA	0.0000		9999	4560	0	0	0
2019/04/01 17:26:00	BASE	5.63	313	7.41	308	0.2	87	-1.7	137	0	991.6	NA	0.0000		9999	4400	0	0	0
2019/04/01 17:27:00	BASE	5.78	315	7.41	308	0.2	86	-1.8	140	0	991.6	NA	0.0000		9999	4400	0	0	0
2019/04/01 17:28:00	BASE	5.65	312	7.41	308	0.3	86	-1.8	143	0	991.6	NA	0.0000		9999	4360	0	0	0
2019/04/01 17:29:00	BASE	5.67	308	7.41	308	0.3	86	-1.9	143	0	991.6	NA	0.0000		9999	4330	0	0	0
2019/04/01 17:30:00	BASE	5.50	310	7.41	308	0.3	85	-2.0	142	0	991.6	NA	0.0000		9999	4400	0	0	0
2019/04/01 17:31:00	BASE	5.35	311	7.41	308	0.3	85	-2.0	142	0	991.6	NA	0.0000		9999	4330	0	0	0
2019/04/01 17:32:00	BASE	5.62	312	6.48	312	0.3	85	-1.9	142	0	991.6	NA	0.0000		9999	4270	0	0	0
2019/04/01 17:33:00	BASE	5.99	314	6.53	306	0.3	85	-1.9	142	0	991.7	NA	0.0000		9999	4270	0	0	0
2019/04/01 17:34:00	BASE	5.98	313	6.53	306	0.3	85	-1.9	143	0	991.7	NA	0.0000		9999	4270	0	0	0
2019/04/01 17:35:00	BASE	6.02	314	6.79	307	0.3	85	-1.8	145	0	991.7	NA	0.0000		9999	4270	0	0	0
2019/04/01 17:36:00	BASE	6.28	311	6.79	307	0.3	85	-1.8	145	0	991.7	NA	0.0000		9999	4270	0	0	0
2019/04/01 17:37:00	BASE	6.11	307	6.79	307	0.4	85	-1.8	145	0	991.7	NA	0.0000		9999	4300	0	0	0
2019/04/01 17:38:00	BASE	6.14	306	6.84	302	0.4	86	-1.8	143	0	991.7	NA	0.0000		9999	4300	0	0	0
2019/04/01 17:39:00	BASE	6.42	305	7.31	308	0.4	86	-1.7	140	0	991.7	NA	0.0000		9999	4270	0	0	0
2019/04/01 17:40:00	BASE	6.61	306	7.56	304	0.4	86	-1.7	136	0	991.7	NA	0.0000		9999	4230	0	0	0
2019/04/01 17:41:00	BASE	6.60	306	7.56	304	0.4	86	-1.6	134	0	991.7	NA	0.0000		9999	4270	0	0	0
2019/04/01 17:42:00	BASE	6.53	304	7.56	304	0.4	86	-1.7	132	0	991.8	NA	0.0000		9999	4170	0	0	0
2019/04/01 17:43:00	BASE	6.40	303	7.56	304	0.4	86	-1.7	132	0	991.8	NA	0.0000		9999	4070	0	0	0
2019/04/01 17:44:00	BASE	5.91	300	7.56	304	0.4	85	-1.8	131	0	991.8	NA	0.0000		9999	3970	0	0	0
2019/04/01 17:45:00	BASE	5.63	300	7.56	304	0.4	85	-1.8	129	0	991.8	NA	0.0000		9999	3900	0	0	0
2019/04/01 17:46:00	BASE	5.61	301	7.56	304	0.4	85	-1.9	127	0	991.8	NA	0.0000		9999	4000	0	0	0
2019/04/01 17:47:00	BASE	5.28	300	7.56	304	0.4	85	-1.9	125	0	991.8	NA	0.0000		9999	3540	0	0	0
2019/04/01 17:48:00	BASE	5.13	302	7.56	304	0.4	84	-1.9	124	0	991.8	NA	0.0000		9999	3510	0	0	0
2019/04/01 17:49:00	BASE	5.42	303	7.56	304	0.4	84	-1.9	123	0	991.8	NA	0.0000		9999	3450	0	0	0
2019/04/01 17:50:00	BASE	5.71	304	7.05	302	0.4	84	-2.0	121	0	991.8	NA	0.0000		9999	3310	0	0	0
2019/04/01 17:51:00	BASE	5.76	304	7.05	302	0.4	84	-2.0	118	0	991.8	NA	0.0000		9999	3120	0	0	0
2019/04/01 17:52:00	BASE	5.47	301	6.84	302	0.4	84	-2.1	116	0	991.8	NA	0.0000		9999	3480	0	0	0
2019/04/01 17:53:00	BASE	5.33	301	6.43	299	0.4	83	-2.1	113	0	991.9	NA	0.0000		9999	3250	0	0	0
2019/04/01 17:54:00	BASE	5.96	298	7.41	295	0.4	82	-2.3	112	0	991.9	NA	0.0000		9999	3180	0	0	0
2019/04/01 17:55:00	BASE	6.61	296	7.41	295	0.4	82	-2.3	114	0	992.0	NA	0.0000		9999	3150	0	0	0
2019/04/01 17:56:00	BASE	6.16	296	7.41	295	0.4	81	-2.5	113	0	992.0	NA	0.0000		9999	3350	0	0	0
2019/04/01 17:57:00	BASE	5.43	297	7.41	295	0.4	80	-2.6	111	0	992.0	NA	0.0000		9999	2920	3480	0	0
2019/04/01 17:58:00	BASE	5.37	302	7.41	295	0.4	79	-2.7	111	0	992.0	NA	0.0000		9999	2990	3740	0	0
2019/04/01 17:59:00	BASE	5.61	301	7.41	295	0.4	79	-2.8	112	0	992.0	NA	0.0000		9999	3840	0	0	0
2019/04/01 18:00:00	BASE	5.54	294	7.41	295	0.5	79	-2.8	109	0	992.0	NA	0.0000		9999	3900	0	0	0
2019/04/01 18:01:00	BASE	5.53	289	7.41	295	0.5	79	-2.8	104	0	992.0	NA	0.0000		9999	3770	0	0	0
2019/04/01 18:02:00	BASE	5.68	285	7.41	295	0.5	80	-2.6	97	0	992.0	NA	0.0000		9999	2760	3810	0	0
2019/04/01 18:03:00	BASE	5.50	280	7.41	295	0.5	80	-2.5	93	0	992.0	NA	0.0000		9999	2760	3770	0	0
2019/04/01 18:04:00	BASE	5.78	282	7.87	273	0.5	81	-2.5	87	0	992.0	NA	0.0000		9999	2590	0	0	0
2019/04/01 18:05:00	BASE	7.33	282	10.34	277	0.5	81	-2.4	81	0	991.9	NA	0.0000		9999	2400	0	0	0
2019/04/01 18:06:00	BASE	8.96	279	10.34	277	0.5	81	-2.4	80	0	992.0	NA	0.0000		9999	2360	0	0	0
2019/04/01 18:07:00	BASE	8.91	281	10.34	277	0.5	81	-2.4	81	0	992.0	NA	0.0000		9999	2460	0	0	0
2019/04/01 18:08:00	BASE	7.90	284	10.34	277	0.5	81	-2.4	81	0	992.0	NA	0.0000		9999	2590	3310	0	0
2019/04/01 18:09:00	BASE	7.50	291	10.34	277	0.5	81	-2.4	81	0	992.0	NA	0.0000		9999	2560	0	0	0
2019/04/01 18:10:00	BASE	7.81	297	10.34	277	0.5	82	-2.3	78	0	991.9	NA	0.0000		9999	2560	0	0	0
2019/04/01 18:11:00	BASE	8.00	298	10.34	277	0.5	82	-2.2	74	0	991.9	NA	0.0000		9999	3180	0	0	0
2019/04/01 18:12:00	BASE	7.86	297	10.34	277	0.4	83	-2.2	71	0	991.9	NA	0.0000		9999	2490	0	0	0
2019/04/01 18:13:00	BASE	7.87	298	10.34	277	0.4	83	-2.1	71	0	991.9	NA	0.0000		9999	2430	0	0	0
2019/04/01 18:14:00	BASE	8.28	301	10.34	277	0.3	84	-2.1	72	0	992.0	NA	0.0000		9999	2490	0	0	0
2019/04/01 18:15:00	BASE	8.76	298	10.24	277	0.3	84	-2.1	73	0	991.9	NA	0.0000		9999	2530	0	0	0
2019/04/01 18:16:00	BASE	8.79	296	9.67	297	0.3	84	-2.1	72	0	992.0	NA	0.0000		9999	2460	0	0	0
2019/04/01 18:17:00	BASE	8.98	297	9.93	289	0.3	84	-2.1	72	0	992.0	NA	0.0000		9999	2590	0	0	0
2019/04/01 18:18:00	BASE	9.28	299	10.24	297	0.3	84	-2.1	73	0	992.0	NA	0.0000		9999	2560	0	0	0
2019/04/01 18:19:00	BASE	9.67	301	10.75	304	0.3	84	-2.2	74	0	992.0	NA	0.0000		9999	2620	19390	0	0
2019/04/01 18:20:00	BASE	9.87	300	10.75	304	0.3	83	-2.2	74	0	992.0	NA	0.0000		9999	2920	0	0	0
2019/04/01 18:21:00	BASE	9.10	298	10.75	304	0.3	83	-2.2	72	0	992.0	NA	0.0000		9999	2990	0	0	0
2019/04/01 18:22:00	BASE	8.50	296	10.75	304	0.3	83	-2.3	71	0	992.0	NA	0.0000		9999	3050	0	0	0
2019/04/01 18:23:00	BASE	8.87	294	10.75	304	0.3	82	-2.3	72	0	992.0	NA	0.0000		9999	2620	3280	0	0
2019/04/01 18:24:00	BASE	8.83	293	10.75	304	0.3	82	-2.4	77	0	992.0	NA	0.0000		9999	2920	0	0	0
2019/04/01 18:25:00	BASE	8.33	298	10.75	304	0.3	81	-2.5	81	0	992.0	NA	0.0000		9999	2760	0	0	0
2019/04/01 18:26:00	BASE	8.41	303	10.75	304	0.3	81	-2.5	85	0	992.0	NA	0.0000		9999	2760	0	0	0
2019/04/01 18:27:00	BASE	8.52	304	10.75	304	0.3	81	-2.6	92	0	992.0	NA	0.0000		9999	2920	0	0	0
2019/04/01 18:28:00	BASE	8.40	305	10.75	304	0.3	81	-2.5	99	0	992.0	NA	0.0000		9999	3150	0	0	0
2019/04/01 18:29:00	BASE	8.36	304	10.13	300	0.4	81	-2.5	104	0	991.9	NA	0.0000		9999	2950	0	0	0
2019/04/01 18:30:00	BASE	8.66	301	10.08	301	0.4	82	-2.4	106	0	991.9	NA	0.0000		9999	2790	3280	0	0
2019/04/01 18:31:00	BASE	8.57	299	10.08	301	0.4	82	-2.3	108	0	991.9	NA	0.0000		9999	3180	0	0	0
2019/04/01 18:32:00	BASE	8.20	297	10.08	301	0.4	82	-2.3	113	0	991.8	NA	0.0000		9999	3350	0	0	0
2019/04/01 18:33:00	BASE	8.32	295	10.08	301	0.4	82	-2.3	117	0	991.9	NA	0.0000		9999	3350	0	0	0
2019/04/01 18:34:00	BASE	8.86	294	10.08	301	0.4	82	-2.3	124	0	991.8	NA	0.0000		9999	3480	0	0	0
2019/04/01 18:35:00	BASE	8.58	297	10.08	301	0.4	82	-2.3	129	0	991.8	NA	0.0000		9999	3510	0	0	0
2019/04/01 18:36:00	BASE	7.86	301	10.08	301	0.4	82	-2.4	132	0	991.8	NA	0.0000		9999	3480	0	0	0
2019/04/01 18:37:00	BASE	8.05	301	10.08	301	0.4	82	-2.4	139	0	991.8	NA	0.0000		9999	3540	0	0	0
2019/04/01 18:38:00	BASE	8.28	299	10.08	301	0.4	82	-2.4	148	0	991.8	NA	0.0000		9999	3580	4130	0	0
2019/04/01 18:39:00	BASE	7.96	299	10.08	301	0.4	82	-2.4	165	0	991.8	NA	0.0000		9999	3970	0	0	0
2019/04/01 18:40:00	BASE	8.38	300	9.77	311	0.4	82	-2.3	233	0	991.8	NA	0.0000		9999	4040	0	0	0
2019/04/01 18:41:00	BASE	8.63	300	9.77	311	0.4	82	-2.3	350	0	991.9	NA	0.0000		9999	4100	0	0	0
2019/04/01 18:42:00	BASE	8.30	297	9.77	311	0.4	82	-2.3	179	0	992.0	NA	0.0000		9999	4200	0	0	0
2019/04/01 18:43:00	BASE	8.21	298	9.77	311	0.5	82	-2.2	144	0	992.0	NA	0.0000		9999	4200	0	0	0
2019/04/01 18:44:00	BASE	8.13	297	9.77	311	0.5	82	-2.3	140	0	992.0	NA	0.0000		9999	4200	0	0	0
2019/04/01 18:45:00	BASE	8.04	296	9.77	311	0.5	82	-2.3	214	0	992.0	NA	0.0000		9999	4360	0	0	0
2019/04/01 18:46:00	BASE	7.82	297	9.77	311	0.5	81	-2.3	138	0	992.0	NA	0.0000		9999	4230	0	0	0
2019/04/01 18:47:01	BASE	7.79	301	9.77	311	0.5	81	-2.4	134	0	992.0	NA	0.0000		9999	3510	0	0	0
2019/04/01 18:48:00	BASE	7.97	304	9.77	311	0.5	81	-2.4	134	0	991.9	NA	0.0000		9999	3450	0	0	0
2019/04/01 18:49:00	BASE	8.00	304	9.77	311	0.5	81	-2.5	135	0	991.9	NA	0.0000		9999	2660	0	0	0
2019/04/01 18:50:00	BASE	8.18	307	9.16	308	0.4	81	-2.5	153	0	992.0	NA	0.0000		9999	3080	3710	0	0
2019/04/01 18:51:00	BASE	8.61	306	9.21	304	0.4	81	-2.5	156	0	991.9	NA	0.0000		9999	3180	0	0	0
2019/04/01 18:52:00	BASE	8.46	305	9.21	304	0.4	81	-2.5	141	0	991.9	NA	0.0000		9999	3970	0	0	0
2019/04/01 18:53:00	BASE	8.28	306	9.21	304	0.4	81	-2.5	138	0	991.9	NA	0.0000		9999	2660	3900	0	0
2019/04/01 18:54:00	BASE	8.24	306	9.21	304	0.4	81	-2.4	138	0	991.9	NA	0.0000		9999	2660	0	0	0
2019/04/01 18:55:00	BASE	7.77	305	9.21	304	0.4	81	-2.4	134	0	991.9	NA	0.0000		9999	2560	0	0	0
2019/04/01 18:56:00	BASE	7.81	306	9.21	304	0.5	81	-2.4	127	0	991.9	NA	0.0000		9999	2620	3480	0	0
2019/04/01 18:57:00	BASE	7.95	304	9.21	304	0.5	82	-2.3	121	0	992.0	NA	0.0000		9999	2690	3220	0	0
2019/04/01 18:58:00	BASE	8.17	302	9.21	304	0.4	82	-2.3	117	0	992.0	NA	0.0000		9999	3640	0	0	0
2019/04/01 18:59:00	BASE	8.22	301	9.21	304	0.4	82	-2.3	118	0	992.0	NA	0.0000		9999	3970	0	0	0
2019/04/01 19:00:00	BASE	7.97	301	9.21	304	0.4	82	-2.4	120	0	992.0	NA	0.0000		9999	2850	3610	0	0
2019/04/01 19:01:00	BASE	8.08	300	9.11	302	0.4	81	-2.4	121	0	992.0	NA	0.0000		9999	3900	0	0	0
2019/04/01 19:02:00	BASE	7.83	300	9.11	302	0.4	81	-2.5	117	0	992.0	NA	0.0000		9999	3940	0	0	0
2019/04/01 19:03:00	BASE	7.82	303	9.11	302	0.4	80	-2.6	115	0	992.0	NA	0.0000		9999	3020	4000	0	0
2019/04/01 19:04:00	BASE	7.99	305	9.11	302	0.4	80	-2.6	115	0	992.0	NA	0.0000		9999	2760	0	0	0
2019/04/01 19:05:00	BASE	7.85	305	9.11	302	0.4	80	-2.6	119	0	992.0	NA	0.0000		9999	2920	0	0	0
2019/04/01 19:06:00	BASE	7.43	310	9.11	302	0.4	80	-2.6	124	0	992.0	NA	0.0000		9999	2760	0	0	0
2019/04/01 19:07:00	BASE	7.99	315	9.52	315	0.5	81	-2.5	126	0	992.0	NA	0.0000		9999	2850	0	0	0
2019/04/01 19:08:00	BASE	8.90	314	9.52	309	0.5	81	-2.4	127	0	992.0	NA	0.0000		9999	3810	0	0	0
2019/04/01 19:09:00	BASE	8.93	312	9.77	308	0.4	81	-2.4	127	0	992.0	NA	0.0000		9999	2990	3810	0	0
2019/04/01 19:10:00	BASE	8.04	319	9.77	308	0.4	82	-2.3	127	0	992.0	NA	0.0000		9999	3050	3770	0	0
2019/04/01 19:11:00	BASE	6.87	328	9.77	308	0.4	83	-2.2	123	0	992.0	NA	0.0000		9999	2850	0	0	0
2019/04/01 19:12:00	BASE	6.50	330	9.77	308	0.4	83	-2.1	118	0	992.0	NA	0.0000		9999	3050	3840	0	0
2019/04/01 19:13:00	BASE	6.39	328	9.77	308	0.4	84	-2.0	113	0	992.0	NA	0.0000		9999	3250	3840	0	0
2019/04/01 19:14:00	BASE	6.27	327	9.77	308	0.3	85	-1.9	110	0	992.0	NA	0.0000		9999	3970	0	0	0
2019/04/01 19:15:00	BASE	6.16	326	9.77	308	0.3	86	-1.8	110	0	992.0	NA	0.0000		9999	4070	0	0	0
2019/04/01 19:16:00	BASE	6.40	325	9.77	308	0.2	86	-1.8	103	0	992.0	NA	0.0000		9999	4000	0	0	0
2019/04/01 19:17:00	BASE	6.73	323	9.77	308	0.2	87	-1.7	101	0	991.9	NA	0.0000		9999	3970	0	0	0
2019/04/01 19:18:00	BASE	6.78	321	9.77	308	0.2	87	-1.7	101	0	991.8	NA	0.0000		9999	3940	0	0	0
2019/04/01 19:19:00	BASE	7.40	317	9.57	313	0.2	88	-1.6	102	0	991.8	NA	0.0000		9999	3050	3940	0	0
2019/04/01 19:20:00	BASE	8.54	311	10.24	305	0.2	88	-1.5	104	0	991.8	NA	0.0000		9999	3770	0	0	0
2019/04/01 19:21:00	BASE	9.38	306	10.44	304	0.2	88	-1.5	100	0	991.8	NA	0.0000		9999	3640	0	0	0
2019/04/01 19:22:00	BASE	9.33	308	10.44	304	0.3	88	-1.5	91	0	991.8	NA	0.0000		9999	3580	0	0	0
2019/04/01 19:23:00	BASE	8.93	310	10.44	304	0.3	88	-1.5	80	0	991.8	NA	0.0000		9999	3670	0	0	0
2019/04/01 19:24:00	BASE	9.12	308	10.44	304	0.3	87	-1.6	71	0	991.8	NA	0.0000		9999	3740	0	0	0
2019/04/01 19:25:00	BASE	9.25	308	10.44	304	0.3	87	-1.6	67	0	991.8	NA	0.0000		9999	3840	0	0	0
2019/04/01 19:26:00	BASE	9.15	308	10.44	304	0.3	86	-1.7	64	0	991.8	NA	0.0000		9999	3840	0	0	0
2019/04/01 19:27:00	BASE	8.89	308	10.44	304	0.3	86	-1.8	60	0	991.7	NA	0.0000		9999	3970	0	0	0
2019/04/01 19:28:00	BASE	8.71	307	10.44	304	0.3	85	-1.9	55	0	991.7	NA	0.0000		9999	4040	0	0	0
2019/04/01 19:29:00	BASE	8.46	304	10.44	304	0.3	85	-1.9	51	0	991.7	NA	0.0000		9999	4070	0	0	0
2019/04/01 19:30:00	BASE	8.70	303	10.55	302	0.3	85	-1.9	48	0	991.7	NA	0.0000		9999	4000	0	0	0
2019/04/01 19:31:00	BASE	9.58	304	10.80	302	0.3	85	-2.0	46	0	991.7	NA	0.0000		9999	3840	0	0	0
2019/04/01 19:32:00	BASE	10.12	304	10.91	304	0.3	85	-2.0	46	0	991.7	NA	0.0000		9999	3840	0	0	0
2019/04/01 19:33:00	BASE	9.88	304	10.91	304	0.2	84	-2.1	47	0	991.7	NA	0.0000		9999	3840	0	0	0
2019/04/01 19:34:00	BASE	9.45	304	10.91	304	0.2	84	-2.2	48	0	991.7	NA	0.0000		9999	3870	0	0	0
2019/04/01 19:35:00	BASE	8.99	301	10.91	304	0.2	83	-2.3	50	0	991.7	NA	0.0000		9999	3840	0	0	0
2019/04/01 19:36:00	BASE	8.56	300	10.91	304	0.3	83	-2.3	51	0	991.7	NA	0.0000		9999	3770	0	0	0
2019/04/01 19:37:00	BASE	8.42	300	10.91	304	0.3	83	-2.3	53	0	991.7	NA	0.0000		9999	3770	0	0	0
2019/04/01 19:38:00	BASE	8.81	302	10.91	304	0.3	83	-2.2	55	0	991.7	NA	0.0000		9999	3810	0	0	0
2019/04/01 19:39:00	BASE	9.75	304	11.21	310	0.3	83	-2.2	58	0	991.6	NA	0.0000		9999	3770	0	0	0
2019/04/01 19:40:00	BASE	10.34	305	11.21	310	0.2	83	-2.2	61	0	991.6	NA	0.0000		9999	3770	0	0	0
2019/04/01 19:41:00	BASE	10.90	305	11.78	302	0.2	83	-2.2	63	0	991.6	NA	0.0000		9999	3770	0	0	0
2019/04/01 19:42:00	BASE	11.28	305	11.99	299	0.3	83	-2.2	64	0	991.6	NA	0.0000		9999	3670	0	0	0
2019/04/01 19:43:00	BASE	11.12	305	11.99	299	0.2	83	-2.3	64	0	991.6	NA	0.0000		9999	3710	0	0	0
2019/04/01 19:44:00	BASE	10.85	305	11.99	299	0.3	83	-2.3	65	0	991.6	NA	0.0000		9999	3610	0	0	0
2019/04/01 19:45:00	BASE	10.18	304	11.99	299	0.3	83	-2.3	67	0	991.6	NA	0.0000		9999	3580	0	0	0
2019/04/01 19:46:00	BASE	9.36	305	11.99	299	0.3	83	-2.3	68	0	991.6	NA	0.0000		9999	3580	0	0	0
2019/04/01 19:47:00	BASE	9.69	308	11.99	299	0.3	83	-2.2	70	0	991.6	NA	0.0000		9999	3510	0	0	0
2019/04/01 19:48:00	BASE	10.36	310	11.99	299	0.3	84	-2.2	71	0	991.6	NA	0.0000		9999	3480	0	0	0
2019/04/01 19:49:00	BASE	10.87	310	11.99	299	0.3	84	-2.1	71	0	991.6	NA	0.0000		9999	3480	0	0	0
2019/04/01 19:50:00	BASE	10.78	311	11.99	299	0.3	84	-2.1	70	0	991.6	NA	0.0000		9999	3610	0	0	0
2019/04/01 19:51:00	BASE	10.53	314	11.99	299	0.3	84	-2.1	69	0	991.6	NA	0.0000		9999	3540	0	0	0
2019/04/01 19:52:00	BASE	10.59	313	11.83	303	0.2	84	-2.1	68	0	991.6	NA	0.0000		9999	3580	0	0	0
2019/04/01 19:53:00	BASE	10.62	312	11.83	303	0.2	84	-2.2	68	0	991.6	NA	0.0000		9999	3480	0	0	0
2019/04/01 19:54:00	BASE	10.55	311	11.78	312	0.2	84	-2.1	66	0	991.6	NA	0.0000		9999	3480	0	0	0
2019/04/01 19:55:00	BASE	9.80	314	11.78	312	0.3	84	-2.1	64	0	991.6	NA	0.0000		9999	3450	0	0	0
2019/04/01 19:56:00	BASE	9.65	317	11.78	312	0.2	85	-2.0	62	0	991.6	NA	0.0000		9999	3510	0	0	0
2019/04/01 19:57:00	BASE	10.00	315	11.78	312	0.2	85	-2.0	60	0	991.6	NA	0.0000		9999	3740	0	0	0
2019/04/01 19:58:00	BASE	9.92	316	11.78	312	0.2	85	-1.9	58	0	991.6	NA	0.0000		9999	3670	0	0	0
2019/04/01 19:59:00	BASE	10.13	318	11.78	312	0.2	86	-1.9	58	0	991.6	NA	0.0000		9999	3580	21690	0	0
2019/04/01 20:00:00	BASE	10.46	318	11.78	312	0.2	86	-1.9	59	0	991.6	NA	0.0000		9999	3450	0	0	0
2019/04/01 20:01:00	BASE	10.06	319	11.47	313	0.2	86	-1.9	62	0	991.6	NA	0.0000		9999	3450	0	0	0
2019/04/01 20:02:00	BASE	9.65	321	11.47	313	0.2	86	-1.9	65	0	991.6	NA	0.0000		9999	3580	0	0	0
2019/04/01 20:03:00	BASE	9.72	320	11.32	315	0.2	86	-1.9	68	0	991.6	NA	0.0000		9999	3380	0	0	0
2019/04/01 20:04:00	BASE	9.80	319	11.32	315	0.1	86	-1.9	69	0	991.6	NA	0.0000		9999	3380	0	0	0
2019/04/01 20:05:00	BASE	9.41	319	11.32	315	0.1	86	-1.9	67	0	991.6	NA	0.0000		9999	3380	0	0	0
2019/04/01 20:06:00	BASE	8.47	320	11.32	315	0.1	86	-1.9	65	0	991.6	NA	0.0000		9999	3480	0	0	0
2019/04/01 20:07:00	BASE	7.96	324	11.32	315	0.2	86	-1.9	63	0	991.6	NA	0.0000		9999	3510	0	0	0
2019/04/01 20:08:00	BASE	8.44	325	11.32	315	0.1	86	-1.9	61	0	991.6	NA	0.0000		9999	3580	0	0	0
2019/04/01 20:09:00	BASE	8.78	323	11.32	315	0.1	86	-1.9	59	0	991.6	NA	0.0000		9999	3540	0	0	0
2019/04/01 20:10:00	BASE	8.61	323	11.01	320	0.1	87	-1.8	57	0	991.6	NA	0.0000		9999	3540	4000	0	0
2019/04/01 20:11:00	BASE	8.82	323	11.01	320	0.1	87	-1.8	55	0	991.6	NA	0.0000		9999	3670	0	0	0
2019/04/01 20:12:00	BASE	9.16	322	11.01	320	0.1	87	-1.8	53	0	991.6	NA	0.0000		9999	3670	0	0	0
2019/04/01 20:13:00	BASE	9.11	323	11.01	320	0.1	87	-1.9	50	0	991.6	NA	0.0000		9999	3770	0	0	0
2019/04/01 20:14:00	BASE	8.93	325	10.24	318	0.1	87	-1.9	46	0	991.6	NA	0.0000		9999	3670	0	0	0
2019/04/01 20:15:00	BASE	8.80	328	9.93	313	0.1	87	-1.9	43	0	991.6	NA	0.0000		9999	3710	0	0	0
2019/04/01 20:16:00	BASE	8.54	330	9.93	313	0.1	87	-1.9	41	0	991.6	NA	0.0000		9999	3710	0	0	0
2019/04/01 20:17:00	BASE	7.79	335	9.93	313	0.1	87	-1.9	40	0	991.6	NA	0.0000		9999	3640	0	0	0
2019/04/01 20:18:00	BASE	7.36	340	9.93	313	0.1	87	-1.8	39	0	991.6	NA	0.0000		9999	3640	0	0	0
2019/04/01 20:19:00	BASE	7.67	339	9.93	313	0.0	87	-1.8	39	0	991.6	NA	0.0000		9999	3610	0	0	0
2019/04/01 20:20:00	BASE	7.73	339	9.93	313	0.0	88	-1.8	39	0	991.6	NA	0.0000		9999	3670	0	0	0
2019/04/01 20:21:00	BASE	7.62	339	9.93	313	-0.0	88	-1.8	38	0	991.6	NA	0.0000		9999	3670	0	0	0
2019/04/01 20:22:00	BASE	7.73	340	9.93	313	-0.1	88	-1.8	36	0	991.6	NA	0.0000		9999	3710	0	0	0
2019/04/01 20:23:00	BASE	7.40	346	9.67	322	-0.1	88	-1.8	35	0	991.6	NA	0.0000		9999	3900	0	0	0
2019/04/01 20:24:00	BASE	6.63	355	9.11	331	-0.1	89	-1.8	33	0	991.7	NA	0.0000		9999	3900	0	0	0
2019/04/01 20:25:00	BASE	6.57	2	9.05	329	-0.2	89	-1.8	32	0	991.7	NA	0.0000		9999	3740	0	0	0
2019/04/01 20:26:00	BASE	6.94	4	8.80	338	-0.2	89	-1.8	31	0	991.7	NA	0.0000		9999	3840	0	0	0
2019/04/01 20:27:00	BASE	7.14	5	8.80	338	-0.3	89	-1.8	30	0	991.7	NA	0.0000		9999	3810	0	0	0
2019/04/01 20:28:00	BASE	7.43	5	8.80	338	-0.4	90	-1.9	29	0	991.7	NA	0.0000		9999	3940	0	0	0
2019/04/01 20:29:00	BASE	7.53	4	8.33	337	-0.4	90	-1.9	28	0	991.7	NA	0.0000		9999	3870	0	0	0
2019/04/01 20:30:00	BASE	7.48	360	8.33	337	-0.5	90	-1.9	26	0	991.7	NA	0.0000		9999	3840	0	0	0
2019/04/01 20:31:00	BASE	7.51	359	8.33	337	-0.5	90	-1.9	25	0	991.7	NA	0.0000		9999	3810	0	0	0
2019/04/01 20:32:00	BASE	7.59	4	8.95	14	-0.5	90	-2.0	24	0	991.7	NA	0.0000		9999	3810	0	0	0
2019/04/01 20:33:00	BASE	8.27	8	9.57	12	-0.5	90	-2.0	23	0	991.7	NA	0.0000		9999	3740	0	0	0
2019/04/01 20:34:00	BASE	8.98	10	9.98	12	-0.5	90	-2.0	22	0	991.7	NA	0.0000		9999	3670	0	0	0
2019/04/01 20:35:00	BASE	9.07	11	9.98	12	-0.6	90	-2.1	21	0	991.7	NA	0.0000		9999	3710	0	0	0
2019/04/01 20:36:00	BASE	9.19	12	10.19	13	-0.6	90	-2.1	20	0	991.7	NA	0.0000		9999	3710	0	0	0
2019/04/01 20:37:00	BASE	9.25	12	10.44	7	-0.7	90	-2.1	20	0	991.7	NA	0.0000		9999	3670	0	0	0
2019/04/01 20:38:00	BASE	9.23	11	10.44	7	-0.7	90	-2.1	20	0	991.7	NA	0.0000		9999	3670	0	0	0
2019/04/01 20:39:00	BASE	9.06	11	10.44	7	-0.7	90	-2.2	19	0	991.7	NA	0.0000		9999	3640	0	0	0
2019/04/01 20:40:00	BASE	9.04	12	10.44	7	-0.7	90	-2.2	19	0	991.7	NA	0.0000		9999	3610	0	0	0
2019/04/01 20:41:00	BASE	9.25	13	10.44	7	-0.7	89	-2.2	19	0	991.7	NA	0.0000		9999	3610	0	0	0
2019/04/01 20:42:00	BASE	9.27	11	10.44	7	-0.7	89	-2.3	20	0	991.7	NA	0.0000		9999	3540	0	0	0
2019/04/01 20:43:00	BASE	9.11	12	10.44	7	-0.7	89	-2.3	19	0	991.7	NA	0.0000		9999	3510	0	0	0
2019/04/01 20:44:00	BASE	9.31	13	10.60	17	-0.7	89	-2.3	18	0	991.7	NA	0.0000		9999	3610	0	0	0
2019/04/01 20:45:00	BASE	9.34	12	10.60	17	-0.7	89	-2.3	18	0	991.7	NA	0.0000		9999	3510	0	0	0
2019/04/01 20:46:00	BASE	9.02	11	10.60	17	-0.7	89	-2.3	17	0	991.7	NA	0.0000		9999	3480	0	0	0
2019/04/01 20:47:00	BASE	9.18	11	10.60	17	-0.7	89	-2.3	16	0	991.7	NA	0.0000		9999	3480	0	0	0
2019/04/01 20:48:00	BASE	9.19	10	10.60	17	-0.7	89	-2.3	15	0	991.7	NA	0.0000		9999	3450	0	0	0
2019/04/01 20:49:00	BASE	8.88	9	10.60	17	-0.7	89	-2.3	14	0	991.7	NA	0.0000		9999	3480	0	0	0
2019/04/01 20:50:00	BASE	8.61	7	10.60	17	-0.7	89	-2.3	14	0	991.7	NA	0.0000		9999	3840	5350	0	0
2019/04/01 20:51:00	BASE	8.49	6	10.60	17	-0.7	89	-2.3	13	0	991.7	NA	0.0000		9999	3540	5350	8990	0
2019/04/01 20:52:00	BASE	8.47	7	10.60	17	-0.7	89	-2.3	12	0	991.7	NA	0.0000		9999	3480	0	0	0
2019/04/01 20:53:00	BASE	8.53	8	10.60	17	-0.7	89	-2.3	12	0	991.7	NA	0.0000		9999	3670	0	0	0
2019/04/01 20:54:00	BASE	8.82	8	10.55	9	-0.7	89	-2.3	11	0	991.7	NA	0.0000		9999	3480	0	0	0
2019/04/01 20:55:00	BASE	9.01	9	10.55	9	-0.7	89	-2.3	11	0	991.7	NA	0.0000		9999	3640	0	0	0
2019/04/01 20:56:00	BASE	9.34	9	10.55	9	-0.7	89	-2.3	10	0	991.7	NA	0.0000		9999	3640	0	0	0
2019/04/01 20:57:00	BASE	9.54	10	10.55	9	-0.7	89	-2.3	10	0	991.7	NA	0.0000		9999	3640	0	0	0
2019/04/01 20:58:00	BASE	9.39	10	10.55	9	-0.7	89	-2.3	10	0	991.8	NA	0.0000		9999	3610	0	0	0
2019/04/01 20:59:00	BASE	9.50	12	10.55	9	-0.7	89	-2.3	10	0	991.8	NA	0.0000		9999	3640	0	0	0
2019/04/01 21:00:00	BASE	9.68	13	10.55	9	-0.6	88	-2.3	9	0	991.8	NA	0.0000		9999	3610	0	0	0
2019/04/01 21:01:00	BASE	9.66	14	10.55	9	-0.6	88	-2.3	9	0	991.8	NA	0.0000		9999	3580	0	0	0
2019/04/01 21:02:00	BASE	9.60	13	10.55	9	-0.6	88	-2.4	9	0	991.7	NA	0.0000		9999	3540	5090	0	0
2019/04/01 21:03:00	BASE	9.86	13	10.91	16	-0.6	88	-2.4	8	0	991.8	NA	0.0000		9999	3540	0	0	0
2019/04/01 21:04:00	BASE	10.05	15	10.91	16	-0.6	88	-2.3	8	0	991.7	NA	0.0000		9999	3510	0	0	0
2019/04/01 21:05:00	BASE	10.05	14	10.91	15	-0.6	88	-2.3	7	0	991.7	NA	0.0000		9999	3510	0	0	0
2019/04/01 21:06:00	BASE	9.87	11	10.91	15	-0.6	89	-2.3	7	0	991.7	NA	0.0000		9999	3480	0	0	0
2019/04/01 21:07:00	BASE	9.52	10	10.91	15	-0.6	89	-2.3	7	0	991.7	NA	0.0000		9999	3450	0	0	0
2019/04/01 21:08:00	BASE	9.61	9	10.91	15	-0.6	89	-2.2	6	0	991.7	NA	0.0000		9999	3410	0	0	0
2019/04/01 21:09:00	BASE	9.86	8	10.91	15	-0.6	89	-2.2	6	0	991.7	NA	0.0000		9999	3380	0	0	0
2019/04/01 21:10:00	BASE	9.69	8	10.91	15	-0.6	89	-2.2	6	0	991.7	NA	0.0000		9999	3380	0	0	0
2019/04/01 21:11:00	BASE	9.21	8	10.91	15	-0.6	89	-2.2	6	0	991.6	NA	0.0000		9999	3380	0	0	0
2019/04/01 21:12:00	BASE	9.21	7	10.91	15	-0.6	89	-2.2	6	0	991.6	NA	0.0000		9999	3310	0	0	0
2019/04/01 21:13:00	BASE	9.58	9	10.91	15	-0.6	89	-2.2	6	0	991.6	NA	0.0000		9999	3310	0	0	0
2019/04/01 21:14:00	BASE	9.53	10	10.91	15	-0.6	88	-2.3	6	0	991.6	NA	0.0000		9999	3280	0	0	0
2019/04/01 21:15:00	BASE	9.63	10	10.60	7	-0.6	88	-2.3	6	0	991.6	NA	0.0000		9999	3310	4890	0	0
2019/04/01 21:16:00	BASE	10.03	11	11.06	13	-0.6	88	-2.3	6	0	991.6	NA	0.0000		9999	3310	0	0	0
2019/04/01 21:17:00	BASE	9.93	13	11.06	13	-0.6	88	-2.3	6	0	991.6	NA	0.0000		9999	3350	0	0	0
2019/04/01 21:18:00	BASE	10.19	14	11.11	9	-0.6	88	-2.3	6	0	991.6	NA	0.0000		9999	3310	4990	0	0
2019/04/01 21:19:00	BASE	10.50	14	11.11	9	-0.6	89	-2.2	6	0	991.6	NA	0.0000		9999	3280	5020	0	0
2019/04/01 21:20:00	BASE	10.40	13	11.68	10	-0.6	89	-2.2	6	0	991.6	NA	0.0000		9999	3310	0	0	0
2019/04/01 21:21:00	BASE	10.46	13	11.68	10	-0.6	89	-2.2	6	0	991.6	NA	0.0000		9999	3310	5020	0	0
2019/04/01 21:22:00	BASE	10.43	13	11.68	10	-0.5	89	-2.2	6	0	991.6	NA	0.0000		9999	3280	5020	0	0
2019/04/01 21:23:00	BASE	10.40	13	11.68	10	-0.5	88	-2.2	6	0	991.6	NA	0.0000		9999	4920	0	0	0
2019/04/01 21:24:00	BASE	10.39	13	11.68	10	-0.5	88	-2.2	5	0	991.6	NA	0.0000		9999	4990	0	0	0
2019/04/01 21:25:00	BASE	10.39	12	11.68	10	-0.5	88	-2.2	5	0	991.6	NA	0.0000		9999	4890	0	0	0
2019/04/01 21:26:00	BASE	10.47	11	11.68	10	-0.5	88	-2.2	5	0	991.6	NA	0.0000		9999	4860	0	0	0
2019/04/01 21:27:00	BASE	10.58	12	11.68	10	-0.5	88	-2.2	5	0	991.6	NA	0.0000		9999	3870	4920	0	0
2019/04/01 21:28:00	BASE	10.65	12	11.68	10	-0.5	88	-2.2	4	0	991.6	NA	0.0000		9999	3580	0	0	0
2019/04/01 21:29:00	BASE	10.91	13	11.73	15	-0.5	89	-2.2	4	0	991.6	NA	0.0000		9999	3580	0	0	0
2019/04/01 21:30:00	BASE	11.15	13	11.78	13	-0.5	89	-2.1	4	0	991.5	NA	0.0000		9999	3710	0	0	0
2019/04/01 21:31:00	BASE	11.26	12	11.99	10	-0.5	89	-2.1	4	0	991.5	NA	0.0000		9999	3640	0	0	0
2019/04/01 21:32:00	BASE	11.35	11	11.99	10	-0.5	89	-2.1	4	0	991.6	NA	0.0000		9999	3610	0	0	0
2019/04/01 21:33:00	BASE	11.40	12	12.04	12	-0.5	89	-2.1	3	0	991.5	NA	0.0000		9999	3540	0	0	0
2019/04/01 21:34:00	BASE	11.24	12	12.04	12	-0.5	89	-2.1	3	0	991.6	NA	0.0000		9999	3580	0	0	0
2019/04/01 21:35:00	BASE	10.98	11	12.04	12	-0.6	89	-2.1	3	0	991.5	NA	0.0000		9999	3540	3940	0	0
2019/04/01 21:36:00	BASE	11.20	11	12.04	12	-0.6	89	-2.2	3	0	991.5	NA	0.0000		9999	3900	0	0	0
2019/04/01 21:37:00	BASE	11.16	12	12.04	12	-0.6	89	-2.1	3	0	991.5	NA	0.0000		9999	3510	3870	0	0
2019/04/01 21:38:00	BASE	11.42	14	12.71	17	-0.6	89	-2.1	3	0	991.5	NA	0.0000		9999	3450	3940	0	0
2019/04/01 21:39:00	BASE	12.08	14	12.76	16	-0.6	90	-2.1	3	0	991.5	NA	0.0000		9999	3410	0	0	0
2019/04/01 21:40:00	BASE	11.90	14	12.76	15	-0.6	90	-2.0	2	0	991.5	NA	0.0000		9999	3350	3970	0	0
2019/04/01 21:41:00	BASE	11.82	15	13.12	17	-0.5	90	-2.0	2	0	991.4	NA	0.0000		9999	3840	5150	0	0
2019/04/01 21:42:00	BASE	12.27	16	13.12	17	-0.5	90	-2.0	2	0	991.4	NA	0.0000		9999	3770	5120	0	0
2019/04/01 21:43:00	BASE	12.50	16	13.12	17	-0.5	90	-2.0	2	0	991.4	NA	0.0000		9999	3810	4990	0	0
2019/04/01 21:44:00	BASE	12.15	16	13.12	17	-0.5	90	-2.0	2	0	991.4	NA	0.0000		9999	3740	4890	0	0
2019/04/01 21:45:00	BASE	11.84	17	13.12	17	-0.5	89	-2.0	2	0	991.4	NA	0.0000		9999	3740	5050	0	0
2019/04/01 21:46:00	BASE	12.15	18	13.12	17	-0.4	89	-2.0	2	0	991.4	NA	0.0000		9999	3640	5120	0	0
2019/04/01 21:47:00	BASE	12.52	19	13.12	17	-0.4	89	-2.0	2	0	991.3	NA	0.0000		9999	3610	0	0	0
2019/04/01 21:48:00	BASE	12.64	20	13.38	19	-0.4	89	-2.0	1	0	991.3	NA	0.0000		9999	3540	0	0	0
2019/04/01 21:49:00	BASE	12.31	21	13.38	19	-0.4	89	-2.0	1	0	991.3	NA	0.0000		9999	3710	0	0	0
2019/04/01 21:50:00	BASE	12.33	20	13.38	19	-0.5	89	-2.1	1	0	991.3	NA	0.0000		9999	3670	0	0	0
2019/04/01 21:51:00	BASE	12.74	20	13.38	19	-0.5	89	-2.1	1	0	991.3	NA	0.0000		9999	3580	0	0	0
2019/04/01 21:52:00	BASE	12.49	20	13.38	19	-0.5	88	-2.1	1	0	991.3	NA	0.0000		9999	3480	0	0	0
2019/04/01 21:53:00	BASE	12.55	21	13.58	21	-0.4	88	-2.2	1	0	991.3	NA	0.0000		9999	3410	0	0	0
2019/04/01 21:54:00	BASE	12.49	21	13.58	21	-0.4	88	-2.2	1	0	991.3	NA	0.0000		9999	3510	0	0	0
2019/04/01 21:55:00	BASE	12.19	20	13.58	21	-0.4	88	-2.2	1	0	991.3	NA	0.0000		9999	3540	0	0	0
2019/04/01 21:56:00	BASE	12.43	20	13.58	21	-0.4	88	-2.1	1	0	991.3	NA	0.0000		9999	3510	0	0	0
2019/04/01 21:57:00	BASE	12.97	20	14.04	17	-0.4	88	-2.1	1	0	991.3	NA	0.0000		9999	3350	0	0	0
2019/04/01 21:58:00	BASE	13.67	19	14.40	19	-0.4	88	-2.1	1	0	991.3	NA	0.0000		9999	3280	0	0	0
2019/04/01 21:59:00	BASE	14.04	20	14.76	20	-0.4	88	-2.2	1	0	991.2	NA	0.0000		9999	3450	0	0	0
2019/04/01 22:00:00	BASE	14.09	20	14.76	20	-0.4	88	-2.2	1	0	991.2	NA	0.0000		9999	3280	0	0	0
2019/04/01 22:01:00	BASE	14.36	20	15.07	20	-0.4	87	-2.3	0	0	991.2	NA	0.0000		9999	3280	0	0	0
2019/04/01 22:02:00	BASE	14.49	18	15.07	20	-0.4	87	-2.3	0	0	991.2	NA	0.0000		9999	3250	0	0	0
2019/04/01 22:03:00	BASE	14.35	17	15.07	20	-0.4	86	-2.4	0	0	991.2	NA	0.0000		9999	3250	0	0	0
2019/04/01 22:04:00	BASE	14.17	18	15.07	20	-0.4	86	-2.5	0	0	991.2	NA	0.0000		9999	3250	0	0	0
2019/04/01 22:05:00	BASE	14.11	19	15.07	20	-0.4	85	-2.5	0	0	991.2	NA	0.0000		9999	3250	0	0	0
2019/04/01 22:06:00	BASE	14.16	17	15.07	20	-0.3	85	-2.6	0	0	991.2	NA	0.0000		9999	3250	0	0	0
2019/04/01 22:07:00	BASE	14.02	17	15.07	20	-0.3	84	-2.6	0	0	991.2	NA	0.0000		9999	3220	0	0	0
2019/04/01 22:08:00	BASE	13.68	18	15.07	20	-0.3	84	-2.6	0	0	991.2	NA	0.0000		9999	3220	0	0	0
2019/04/01 22:09:00	BASE	13.45	18	15.07	20	-0.3	84	-2.7	0	0	991.2	NA	0.0000		9999	3220	0	0	0
2019/04/01 22:10:00	BASE	13.60	17	15.07	20	-0.3	83	-2.8	0	0	991.2	NA	0.0000		9999	3250	0	0	0
2019/04/01 22:11:00	BASE	13.59	18	14.97	15	-0.3	83	-2.8	0	0	991.2	NA	0.0000		9999	3180	0	0	0
2019/04/01 22:12:01	BASE	13.37	19	14.97	15	-0.3	82	-2.9	0	0	991.2	NA	0.0000		9999	3080	0	0	0
2019/04/01 22:13:00	BASE	12.94	21	14.71	17	-0.3	82	-3.0	0	0	991.2	NA	0.0000		9999	3080	0	0	0
2019/04/01 22:14:00	BASE	12.78	22	14.71	17	-0.3	81	-3.1	0	0	991.2	NA	0.0000		9999	3050	0	0	0
2019/04/01 22:15:00	BASE	13.47	21	14.71	18	-0.3	81	-3.1	0	0	991.1	NA	0.0000		9999	2920	0	0	0
2019/04/01 22:16:00	BASE	14.12	20	14.71	18	-0.2	80	-3.2	0	0	991.1	NA	0.0000		9999	2850	0	0	0
2019/04/01 22:17:00	BASE	14.16	21	14.71	18	-0.2	80	-3.3	0	0	991.0	NA	0.0000		9999	2760	0	0	0
2019/04/01 22:18:00	BASE	13.68	23	14.71	18	-0.2	79	-3.4	0	0	991.0	NA	0.0000		9999	2620	0	0	0
2019/04/01 22:19:00	BASE	13.61	22	14.92	19	-0.2	79	-3.4	0	0	991.0	NA	0.0000		9999	2360	0	0	0
2019/04/01 22:20:00	BASE	13.86	21	14.92	19	-0.2	79	-3.5	0	0	991.0	NA	0.0000		9999	2130	0	0	0
2019/04/01 22:21:00	BASE	13.65	22	14.92	19	-0.2	79	-3.5	0	0	991.0	NA	0.0000		9999	2950	0	0	0
2019/04/01 22:22:00	BASE	13.14	21	14.92	19	-0.2	79	-3.5	0	0	991.0	NA	0.0000		9999	2920	0	0	0
2019/04/01 22:23:00	BASE	12.75	21	14.92	19	-0.3	79	-3.5	0	0	991.0	NA	0.0000		9999	2330	0	0	0
2019/04/01 22:24:00	BASE	12.65	21	14.92	19	-0.3	79	-3.5	0	0	991.0	NA	0.0000		9999	2790	0	0	0
2019/04/01 22:25:00	BASE	12.33	22	14.92	19	-0.3	79	-3.5	0	0	991.0	NA	0.0000		9999	2890	0	0	0
2019/04/01 22:26:00	BASE	11.98	23	14.92	19	-0.2	79	-3.5	0	0	991.0	NA	0.0000		9999	2790	0	0	0
2019/04/01 22:27:00	BASE	11.72	24	14.92	19	-0.2	79	-3.5	0	0	991.0	NA	0.0000		9999	2760	0	0	0
2019/04/01 22:28:00	BASE	11.41	25	14.92	19	-0.2	78	-3.6	0	0	990.9	NA	0.0000		9999	2720	0	0	0
2019/04/01 22:29:00	BASE	11.61	25	14.87	20	-0.2	78	-3.6	0	0	990.9	NA	0.0000		9999	2720	0	0	0
2019/04/01 22:30:00	BASE	11.85	25	14.61	17	-0.2	78	-3.7	0	0	990.9	NA	0.0000		9999	2720	0	0	0
2019/04/01 22:31:00	BASE	11.91	25	14.61	17	-0.2	78	-3.7	0	0	990.9	NA	0.0000		9999	2720	0	0	0
2019/04/01 22:32:00	BASE	11.49	26	13.84	20	-0.2	77	-3.7	0	0	990.9	NA	0.0000		9999	2790	0	0	0
2019/04/01 22:33:00	BASE	11.05	26	13.53	26	-0.2	77	-3.7	0	0	990.9	NA	0.0000		9999	2820	0	0	0
2019/04/01 22:34:00	BASE	10.75	27	12.91	27	-0.2	77	-3.7	0	0	990.9	NA	0.0000		9999	2820	0	0	0
2019/04/01 22:35:00	BASE	10.67	29	12.91	27	-0.2	77	-3.7	0	0	990.9	NA	0.0000		9999	2790	0	0	0
2019/04/01 22:36:00	BASE	10.77	28	12.91	27	-0.2	77	-3.8	0	0	990.9	NA	0.0000		9999	2760	0	0	0
2019/04/01 22:37:00	BASE	10.54	27	12.91	27	-0.2	77	-3.8	0	0	990.9	NA	0.0000		9999	2790	0	0	0
2019/04/01 22:38:00	BASE	10.58	29	12.81	26	-0.2	77	-3.8	0	0	991.0	NA	0.0000		9999	2790	0	0	0
2019/04/01 22:39:00	BASE	10.71	28	12.81	26	-0.2	77	-3.8	0	0	991.0	NA	0.0000		9999	2760	0	0	0
2019/04/01 22:40:00	BASE	11.35	26	12.55	25	-0.3	77	-3.8	0	0	990.9	NA	0.0000		9999	2760	0	0	0
2019/04/01 22:41:00	BASE	11.84	27	12.55	25	-0.3	77	-3.8	0	0	991.0	NA	0.0000		9999	2950	0	0	0
2019/04/01 22:42:00	BASE	11.57	28	12.55	25	-0.3	77	-3.8	0	0	991.0	NA	0.0000		9999	2920	0	0	0
2019/04/01 22:43:00	BASE	11.30	28	12.55	25	-0.2	77	-3.9	0	0	991.0	NA	0.0000		9999	2920	0	0	0
2019/04/01 22:44:01	BASE	11.20	27	12.55	25	-0.2	76	-3.9	0	0	991.0	NA	0.0000		9999	2950	0	0	0
2019/04/01 22:45:01	BASE	11.03	26	12.55	25	-0.2	76	-3.9	0	0	991.0	NA	0.0000		9999	2950	0	0	0
2019/04/01 22:46:01	BASE	11.11	26	12.55	25	-0.2	76	-3.9	0	0	991.0	NA	0.0000		9999	2360	0	0	0
2019/04/01 22:47:01	BASE	11.18	27	12.55	25	-0.3	77	-3.9	0	0	991.0	NA	0.0000		9999	2400	0	0	0
2019/04/01 22:48:01	BASE	10.85	27	12.55	25	-0.3	77	-3.8	0	0	991.0	NA	0.0000		9999	2000	3180	0	0
2019/04/01 22:49:01	BASE	10.70	27	12.55	25	-0.3	77	-3.8	0	0	991.0	NA	0.0000		9999	1150	0	0	0
2019/04/01 22:50:00	BASE	10.81	27	12.55	25	-0.2	77	-3.8	0	0	991.0	NA	0.0000		9999	1150	3180	0	0
2019/04/01 22:51:01	BASE	10.83	27	12.55	25	-0.2	77	-3.8	0	0	991.0	NA	0.0000		9999	890	0	0	0
2019/04/01 22:52:01	BASE	10.95	26	11.99	22	-0.2	76	-3.9	0	0	991.0	NA	0.0000		9999	1410	3080	0	0
2019/04/01 22:53:00	BASE	11.09	24	12.04	23	-0.2	76	-3.9	0	0	991.0	NA	0.0000		9999	3120	0	0	0
2019/04/01 22:54:00	BASE	10.97	25	12.04	23	-0.2	76	-3.9	0	0	991.0	NA	0.0000		9999	3180	0	0	0
2019/04/01 22:55:01	BASE	10.64	25	12.04	23	-0.2	77	-3.8	0	0	991.0	NA	0.0000		9999	2990	0	0	0
2019/04/01 22:56:00	BASE	10.84	25	12.19	26	-0.2	77	-3.8	0	0	991.0	NA	0.0000		9999	2850	0	0	0
2019/04/01 22:57:00	BASE	11.27	26	12.19	26	-0.2	77	-3.7	0	0	991.0	NA	0.0000		9999	3020	0	0	0
2019/04/01 22:58:00	BASE	11.25	26	12.19	26	-0.2	77	-3.7	0	0	991.0	NA	0.0000		9999	3050	0	0	0
2019/04/01 22:59:00	BASE	11.32	25	12.24	24	-0.2	77	-3.7	0	0	991.0	NA	0.0000		9999	3020	0	0	0
2019/04/01 23:00:01	BASE	11.79	25	12.96	25	-0.2	77	-3.7	0	0	990.9	NA	0.0000	UP	9999	2260	3020	0	0
2019/04/01 23:01:01	BASE	11.86	25	12.96	25	-0.2	77	-3.7	0	0	990.9	NA	0.0000	UP	9999	1840	0	0	0
2019/04/01 23:02:00	BASE	11.49	25	12.96	25	-0.2	77	-3.8	0	0	991.0	NA	0.0000	UP	9999	3080	0	0	0
2019/04/01 23:03:00	BASE	11.38	23	12.96	25	-0.2	77	-3.8	0	0	991.0	NA	0.0000	UP	9999	2820	0	0	0
2019/04/01 23:04:01	BASE	11.63	20	12.96	25	-0.2	77	-3.8	0	0	990.9	NA	0.0000	UP	9999	2760	0	0	0
2019/04/01 23:05:00	BASE	11.56	21	12.96	25	-0.2	77	-3.7	0	0	990.9	NA	0.0000	UP	9999	2850	0	0	0
2019/04/01 23:06:01	BASE	11.64	21	12.96	25	-0.2	77	-3.7	0	0	990.9	NA	0.0000	UP	9999	0	0	0	3740
2019/04/01 23:07:00	BASE	12.11	21	13.48	18	-0.2	78	-3.6	0	0	990.9	NA	0.0000	UP	9999	2850	0	0	0
2019/04/01 23:08:00	BASE	11.89	20	13.48	18	-0.2	78	-3.6	0	0	990.9	NA	0.0000	UP	9999	3150	0	0	0
2019/04/01 23:09:00	BASE	12.00	19	13.48	18	-0.1	78	-3.5	0	0	990.9	NA	0.0000	UP	9999	0	0	0	4070
2019/04/01 23:10:00	BASE	11.99	19	13.48	18	-0.1	78	-3.4	0	0	990.9	NA	0.0000	UP	9999	3180	0	0	0
2019/04/01 23:11:00	BASE	11.75	19	13.48	18	-0.1	78	-3.4	0	0	990.9	NA	0.0000	UP	9999	3770	0	0	0
2019/04/01 23:12:00	BASE	11.92	18	13.48	18	-0.0	79	-3.3	0	0	990.9	NA	0.0000	UP	9999	3810	0	0	0
2019/04/01 23:13:00	BASE	11.72	18	13.48	18	-0.0	79	-3.3	0	0	990.9	NA	0.0000	UP	9999	1480	0	0	0
2019/04/01 23:14:00	BASE	11.76	18	13.48	18	-0.0	79	-3.2	0	0	990.8	NA	0.0000	UP	9999	3710	0	0	0
2019/04/01 23:15:00	BASE	11.97	18	13.48	18	-0.0	79	-3.2	0	0	990.8	NA	0.0000	UP	9999	3640	0	0	0
2019/04/01 23:16:00	BASE	11.80	19	13.48	18	0.0	79	-3.2	0	0	990.9	NA	0.0000	UP	9999	3540	0	0	0
2019/04/01 23:17:01	BASE	11.72	20	13.02	22	0.0	79	-3.1	0	0	990.9	NA	0.0000	UP	9999	3480	0	0	0
2019/04/01 23:18:00	BASE	11.80	20	13.17	5	0.0	79	-3.1	0	0	990.9	NA	0.0000	UP	9999	3450	0	0	0
2019/04/01 23:19:00	BASE	11.66	18	13.17	5	0.0	79	-3.2	0	0	990.9	NA	0.0000	UP	9999	3450	0	0	0
2019/04/01 23:20:00	BASE	11.96	18	13.17	5	0.0	79	-3.2	0	0	990.9	NA	0.0000	UP	9999	3380	0	0	0
2019/04/01 23:21:00	BASE	12.48	18	13.17	18	0.0	79	-3.2	0	0	990.8	NA	0.0000		9999	3450	4000	0	0
2019/04/01 23:22:00	BASE	12.66	15	13.38	10	0.0	79	-3.3	0	0	990.8	NA	0.0000		9999	3380	4040	0	0
2019/04/01 23:23:00	BASE	12.76	15	13.38	10	0.0	79	-3.3	0	0	990.8	NA	0.0000		9999	3380	0	0	0
2019/04/01 23:24:00	BASE	12.68	17	13.43	19	0.0	79	-3.2	0	0	990.8	NA	0.0000		9999	3510	0	0	0
2019/04/01 23:25:00	BASE	12.82	16	13.94	18	-0.0	79	-3.1	0	0	990.8	NA	0.0000		9999	3410	0	0	0
2019/04/01 23:26:00	BASE	13.20	16	14.25	13	-0.0	80	-3.1	0	0	990.7	NA	0.0000		9999	3450	0	0	0
2019/04/01 23:27:00	BASE	13.83	16	15.18	17	-0.0	80	-3.1	0	0	990.7	NA	0.0000		9999	3510	0	0	0
2019/04/01 23:28:00	BASE	14.07	14	15.18	9	-0.0	80	-3.1	0	0	990.7	NA	0.0000		9999	3510	0	0	0
2019/04/01 23:29:00	BASE	13.50	11	15.18	9	-0.0	80	-3.1	0	0	990.7	NA	0.0000		9999	4460	0	0	0
2019/04/01 23:30:01	BASE	14.39	12	16.51	14	-0.0	79	-3.1	0	0	990.6	NA	0.0000		9999	4530	0	0	0
2019/04/01 23:31:00	BASE	15.22	15	16.51	14	0.0	79	-3.2	0	0	990.6	NA	0.0000		9999	4630	0	0	0
2019/04/01 23:32:00	BASE	14.90	16	16.51	14	0.0	79	-3.2	0	0	990.5	NA	0.0000		9999	4720	0	0	0
2019/04/01 23:33:00	BASE	15.11	15	16.51	14	0.1	79	-3.2	0	0	990.5	NA	0.0000		9999	4760	0	0	0
2019/04/01 23:34:00	BASE	15.15	15	16.51	14	0.1	79	-3.2	0	0	990.5	NA	0.0000		9999	4720	0	0	0
2019/04/01 23:35:00	BASE	15.19	15	16.51	14	0.1	79	-3.2	0	0	990.5	NA	0.0000		9999	4660	5680	0	0
2019/04/01 23:36:00	BASE	14.77	15	16.51	14	0.1	79	-3.2	0	0	990.5	NA	0.0000		9999	3610	4660	5770	0
2019/04/01 23:37:00	BASE	14.99	15	17.44	16	0.1	79	-3.1	0	0	990.4	NA	0.0000		9999	3610	4660	0	0
2019/04/01 23:38:00	BASE	15.91	15	17.54	8	0.1	79	-3.2	0	0	990.4	NA	0.0000		9999	4040	4990	8690	0
2019/04/01 23:39:00	BASE	16.14	16	17.54	8	0.1	79	-3.2	0	0	990.4	NA	0.0000		9999	3580	4400	0	0
2019/04/01 23:40:00	BASE	15.95	16	17.54	8	0.1	79	-3.2	0	0	990.4	NA	0.0000		9999	3510	4300	0	0
2019/04/01 23:41:00	BASE	16.58	15	18.73	14	0.1	79	-3.2	0	0	990.4	NA	0.0000		9999	3410	0	0	0
2019/04/01 23:42:00	BASE	17.63	16	18.98	19	0.1	78	-3.2	0	0	990.4	NA	0.0000		9999	3380	0	0	0
2019/04/01 23:43:00	BASE	17.56	18	18.98	19	0.1	78	-3.2	0	0	990.4	NA	0.0000		9999	3380	0	0	0
2019/04/01 23:44:00	BASE	17.68	20	18.98	19	0.1	78	-3.3	0	0	990.3	NA	0.0000		9999	3250	0	0	0
2019/04/01 23:45:01	BASE	17.75	21	18.98	20	0.1	77	-3.4	0	0	990.3	NA	0.0000		9999	3180	0	0	0
2019/04/01 23:46:00	BASE	17.90	21	19.24	21	0.1	77	-3.4	0	0	990.3	NA	0.0000		9999	3150	0	0	0
2019/04/01 23:47:00	BASE	18.23	20	19.24	21	0.2	76	-3.5	0	0	990.3	NA	0.0000		9999	2920	0	0	0
2019/04/01 23:48:00	BASE	17.84	20	19.24	21	0.2	76	-3.6	0	0	990.4	NA	0.0000		9999	3080	0	0	0
2019/04/01 23:49:01	BASE	17.54	21	19.24	21	0.2	76	-3.6	0	0	990.4	NA	0.0000		9999	3150	0	0	0
2019/04/01 23:50:01	BASE	18.09	21	19.60	22	0.2	76	-3.6	0	0	990.3	NA	0.0000		9999	3080	0	0	0
2019/04/01 23:51:00	BASE	18.26	21	19.60	22	0.2	76	-3.6	0	0	990.4	NA	0.0000		9999	3080	0	0	0
2019/04/01 23:52:00	BASE	18.04	21	19.60	22	0.2	75	-3.7	0	0	990.4	NA	0.0000		9999	3080	0	0	0
2019/04/01 23:53:00	BASE	18.20	21	19.60	22	0.2	75	-3.7	0	0	990.3	NA	0.0000		9999	3180	0	0	0
2019/04/01 23:54:00	BASE	18.00	22	19.60	22	0.2	75	-3.7	0	0	990.3	NA	0.0000		9999	3310	0	0	0
2019/04/01 23:55:00	BASE	18.50	22	19.60	21	0.2	75	-3.7	0	0	990.3	NA	0.0000		9999	3510	0	0	0
2019/04/01 23:56:00	BASE	18.72	22	19.65	24	0.2	75	-3.7	0	0	990.2	NA	0.0000		9999	3540	0	0	0
2019/04/01 23:57:00	BASE	17.66	23	19.65	24	0.2	75	-3.7	0	0	990.3	NA	0.0000		9999	3350	0	0	0
2019/04/01 23:58:00	BASE	17.60	23	19.70	17	0.2	75	-3.7	0	0	990.2	NA	0.0000		9999	3580	0	0	0
2019/04/01 23:59:00	BASE	18.20	22	19.70	17	0.2	75	-3.8	0	0	990.2	NA	0.0000		9999	3380	0	0	0